     2              OBSERVATION DATA    GPS                 RINEX VERSION / TYPE
teqc 2000Jul20 Karen Wendt 20030613 21:06:39UTC             PGM / RUN BY / DATE
                                                            COMMENT
L2: 1 -> 1; 150 -> 5; 250 -> 9                              COMMENT
L2: 1 -> 1; 150 -> 5; 250 -> 9                              COMMENT
L2: 1 -> 1; 150 -> 5; 250 -> 9                              COMMENT
L2: 1 -> 1; 150 -> 5; 250 -> 9                              COMMENT
L2: 1 -> 1; 150 -> 5; 250 -> 9                              COMMENT
L2: 1 -> 1; 150 -> 5; 250 -> 9                              COMMENT
L2: 1 -> 1; 150 -> 5; 250 -> 9                              COMMENT
L2: 1 -> 1; 150 -> 5; 250 -> 9                              COMMENT
L2: 1 -> 1; 150 -> 5; 250 -> 9                              COMMENT
L2: 1 -> 1; 150 -> 5; 250 -> 9                              COMMENT
L2: 1 -> 1; 150 -> 5; 250 -> 9                              COMMENT
L2: 1 -> 1; 150 -> 5; 250 -> 9                              COMMENT
L2: 1 -> 1; 150 -> 5; 250 -> 9                              COMMENT
L2: 1 -> 1; 150 -> 5; 250 -> 9                              COMMENT
Original Marker Name: 1pdi 1_PDI_1986_USGS                  COMMENT
Campaign Name: USGS Death Valley 2003                       COMMENT
4-Character Station Name: 1PDI                              COMMENT
6-Character Antenna Code: DMRCHT                            COMMENT
Vertical Measurement Point: BCR                             COMMENT
Vertical Offset to Rinex Ref. Point: 0.0348                 COMMENT
Radial Measurement Point: ECF                               COMMENT
Radial Offset to Rinex Ref. Point: 0.1897                   COMMENT
Antenna Height from Field Measurement: 0.6140 m             COMMENT
Additional Antenna Identification Info.:                    COMMENT
Turborogue and Ashtech Choke Ring                           COMMENT
Original XYZ: -2258174.1464 -4596735.5111 3790528.1886      COMMENT
New XYZ position is based on association with SCEC monument COMMENT
E1G0H9Q6+0011. Position of that monument is believed to be  COMMENT
valid to within 1 m horizontally; vertical accuracy         COMMENT
should be no worse than 3-times this value.                 COMMENT
                                                            COMMENT
Revised Rinex header created by UCSD GPS archive for        COMMENT
GSAC on 20-Apr-2005 (2005:110) 16:33:05 GMT                 COMMENT
For assistance contact dagnew@ucsd.edu                      COMMENT
or anderson@python.ucsd.edu                                 COMMENT
                                                            COMMENT
1 PDI 1986                                                  MARKER NAME
JMS US GEOLOGICAL SURVEY                                    OBSERVER / AGENCY
LP03360 ASHTECH Z-XII3 CC00                                 REC # / TYPE / VERS
CR14330 DORNE-MARGOL. TYPE T                                ANT # / TYPE
 -2258195.0000 -4596713.0000  3790513.0000                  APPROX POSITION XYZ
        0.5492        0.0000        0.0000                  ANTENNA: DELTA H/E/N
     1     1     0                                          WAVELENGTH FACT L1/2
     5    C1    L1    L2    P1    P2                        # / TYPES OF OBSERV
    30                                                      INTERVAL
  2003     6    11     0     1    0.000000                  TIME OF FIRST OBS
  2003     6    11    23    59   30.000000                  TIME OF LAST OBS
                                                            END OF HEADER
 03  6 11  0  1  0.0000000  0  6G25G16G11G 1G14G20
  20739016.778   -24413358.18349 -19003828.86148  20739016.518    20739021.675
  24304000.699    -6999468.69349  -4916224.06445  24304000.122    24304011.580
  21809866.508   -21423067.64449 -16386868.05347  21809866.164    21809871.789
  23562967.664   -11627287.55749  -9042860.80945  23562967.067    23562975.987
  23557693.835    -9250132.77549  -7189601.08645  23557693.328    23557699.438
  22186266.756   -19336499.50049 -14774016.75446  22186266.018    22186272.069
 03  6 11  0  1 30.0000000  0  6G25G16G11G 1G14G20
  20744764.313   -24383154.73949 -18980293.73348  20744764.059    20744769.205
  24286460.511    -7091641.32049  -4988046.58545  24286459.994    24286471.425
  21817687.369   -21381969.29849 -16354843.43447  21817686.999    21817692.622
  23549962.228   -11695631.48149  -9096115.75145  23549961.651    23549970.557
  23572069.892    -9174586.53849  -7130734.00945  23572069.376    23572075.479
  22170707.935   -19418261.66649 -14837727.52246  22170707.189    22170713.238
 03  6 11  0  2  0.0000000  0  6G25G16G11G 1G14G20
  20750597.775   -24352499.73049 -18956406.74448  20750597.520    20750602.656
  24268919.434    -7183819.46549  -5059873.47145  24268918.937    24268930.258
  21825598.131   -21340398.31949 -16322450.53447  21825597.733    21825603.368
  23536980.117   -11763852.66449  -9149275.06845  23536979.568    23536988.465
  23586451.035    -9099013.95649  -7071846.42645  23586450.470    23586456.627
  22155183.468   -19499843.04049 -14901297.41746  22155182.756    22155188.797
 03  6 11  0  2 30.0000000  0  6G25G16G11G 1G14G20
  20756516.887   -24321394.54449 -18932168.95348  20756516.643    20756521.776
  24251377.778    -7276000.19549  -5131702.33045  24251377.321    24251388.492
  21833598.488   -21298356.32249 -16289690.59947  21833598.094    21833603.740
  23524021.409   -11831950.95449  -9202338.59645  23524020.839    23524029.650
  23600837.063    -9023415.35049  -7012938.52445  23600836.591    23600842.731
  22139693.868   -19581241.48949 -14964724.75346  22139693.139    22139699.169
 03  6 11  0  3  0.0000000  0  6G25G16G11G 1G14G20
  20762521.535   -24289839.98649 -18907580.99948  20762521.286    20762526.447
  24233836.446    -7368179.69549  -5203530.23145  24233836.015    24233847.081
  21841688.306   -21255844.58549 -16256564.61547  21841687.884    21841693.558
  23511086.103   -11899925.73649  -9255305.88145  23511085.624    23511094.388
  23615228.174    -8947790.17649  -6954009.93445  23615227.668    23615233.758
  22124239.595   -19662454.00049 -15028007.19846  22124238.858    22124244.919
 03  6 11  0  3 30.0000000  0  6G25G16G11G 1G14G20
  20768611.275   -24257838.30449 -18882644.63548  20768611.030    20768616.190
  24216295.711    -7460355.67649  -5275355.37745  24216295.248    24216306.259
  21849867.021   -21212865.25749 -16223074.26247  21849866.592    21849872.301
  23498174.267   -11967777.64649  -9308177.39745  23498173.753    23498182.483
  23629624.087    -8872139.20849  -6895061.20645  23629623.532    23629629.748
  22108821.059   -19743478.86249 -15091143.41647  22108820.342    22108826.396
 03  6 11  0  4  0.0000000  0  6G25G16G11G 1G14G20
  20774785.976   -24225390.19349 -18857360.39848  20774785.725    20774790.872
  24198756.336    -7552524.56549  -5347175.00045  24198755.840    24198766.856
  21858134.402   -21169419.97449 -16189220.83747  21858133.999    21858139.706
  23485285.914   -12035506.44549  -9360952.98645  23485285.375    23485294.059
  23644024.988    -8796462.36049  -6836092.30745  23644024.513    23644030.626
  22093438.750   -19824313.52049 -15154131.42347  22093438.021    22093444.029
 03  6 11  0  4 30.0000000  0  6G25G16G11G 1G14G20
  20781045.145   -24192498.12849 -18831730.22248  20781044.892    20781050.050
  24181218.732    -7644683.92049  -5418987.20045  24181218.181    24181229.280
  21866489.976   -21125511.10449 -16155006.17347  21866489.574    21866495.309
  23472420.818   -12103112.62249  -9413633.02445  23472420.192    23472428.976
  23658430.737    -8720760.17849  -6777103.69545  23658430.210    23658436.312
  22078092.922   -19904956.24449 -15216969.86847  22078092.205    22078098.161
 03  6 11  0  5  0.0000000  0  6G25G16G11G 1G14G20
  20787388.484   -24159163.66949 -18805755.32448  20787388.231    20787393.400
  24163683.527    -7736831.03649  -5490789.89045  24163683.030    24163693.963
  21874933.407   -21081140.72249 -16120431.89147  21874933.009    21874938.758
  23459578.963   -12170596.36749  -9466217.65045  23459578.362    23459587.166
  23672841.209    -8645033.30249  -6718095.79345  23672840.683    23672846.664
  22062783.992   -19985405.37249 -15279657.44847  22062783.233    22062789.195
 03  6 11  0  5 30.0000000  0  6G25G16G11G 1G14G20
  20793815.854   -24125387.62649 -18779436.34048  20793815.601    20793820.767
  24146151.382    -7828962.10949  -5562580.09045  24146150.848    24146161.622
  21883464.442   -21036309.78949 -16085498.74647  21883464.063    21883469.851
  23446760.570   -12237956.85549  -9518706.24245  23446760.006    23446768.807
  23687256.364    -8569281.27349  -6659068.32845  23687255.884    23687261.879
  22047512.450   -20065657.71749 -15342191.70547  22047511.715    22047517.698
 03  6 11  0  6  0.0000000  0  6G25G16G11G 1G14G20
  20800326.924   -24091171.85449 -18752774.70948  20800326.663    20800331.830
  24128622.741    -7921074.43849  -5634355.68845  24128622.272    24128632.901
  21892082.703   -20991020.61749 -16050208.52147  21892082.347    21892088.133
  23433965.558   -12305194.64749  -9571099.21745  23433965.054    23433973.842
  23701676.172    -8493504.73149  -6600021.71445  23701675.702    23701681.813
  22032278.688   -20145711.34449 -15404571.11147  22032277.942    22032283.951
 03  6 11  0  6 30.0000000  0  6G25G16G11G 1G14G20
  20806921.112   -24056519.01349 -18725772.49848  20806920.868    20806926.047
  24111098.102    -8013165.44249  -5706114.65445  24111097.715    24111108.192
  21900787.749   -20945275.79349 -16014563.24747  21900787.380    21900793.144
  23421193.732   -12372310.23649  -9623396.98445  23421193.306    23421202.030
  23716100.635    -8417704.26849  -6540956.47445  23716100.106    23716106.332
  22017083.097   -20225564.54849 -15466794.34247  22017082.361    22017088.384
 03  6 11  0  7  0.0000000  0  6G25G16G11G 1G14G20
  20813598.288   -24021430.23349 -18698430.59748  20813598.036    20813603.233
  24093578.205    -8105232.16649  -5777854.72545  24093577.854    24093588.220
  21909579.076   -20899077.12149 -15978564.32047  21909578.704    21909584.490
  23408445.157   -12439303.81449  -9675599.66645  23408444.692    23408453.498
  23730529.521    -8341880.21449  -6481872.85345  23730528.927    23730535.221
  22001926.079   -20305215.22449 -15528859.75947  22001925.324    22001931.319
 03  6 11  0  7 30.0000000  0  6G25G16G11G 1G14G20
  20820358.162   -23985907.06049 -18670750.21048  20820357.916    20820363.092
  24076063.574    -8197271.62749  -5849573.55145  24076063.128    24076073.460
  21918456.353   -20852426.81849 -15942213.47647  21918455.989    21918461.803
  23395719.946   -12506175.19249  -9727707.14145  23395719.441    23395728.197
  23744962.874    -8266032.68549  -6422770.94245  23744962.325    23744968.620
  21986808.018   -20384661.09849 -15590765.59547  21986807.270    21986813.255
 03  6 11  0  8  0.0000000  0  6G25G16G11G 1G14G20
  20827200.204   -23949951.86949 -18642733.18448  20827199.959    20827205.132
  24058554.676    -8289280.81549  -5921268.76945  24058554.180    24058564.391
  21927419.150   -20805326.93549 -15905512.31147  21927418.784    21927424.625
  23383017.884   -12572924.62049  -9779719.58245  23383017.394    23383026.095
  23759400.635    -8190162.21449  -6363651.15845  23759399.989    23759406.423
  21971729.241   -20463900.25949 -15652510.36047  21971728.519    21971734.493
 03  6 11  0  8 30.0000000  0  6G25G16G11G 1G14G20
  20834124.258   -23913565.84149 -18614380.44648  20834123.996    20834129.186
  24041052.080    -8381256.73649  -5992938.09445  24041051.536    24041061.599
  21936467.186   -20757779.42849 -15868462.35447  21936466.810    21936472.666
  23370339.060   -12639552.15949  -9831637.06046  23370338.592    23370347.160
  23773842.752    -8114268.84649  -6304513.54545  23773842.081    23773848.572
  21956690.258   -20542930.31849 -15714092.19347  21956689.550    21956695.526
 03  6 11  0  9  0.0000000  0  6G25G16G11G 1G14G20
  20841129.886   -23876750.96749 -18585693.54648  20841129.636    20841134.816
  24023556.377    -8473196.64949  -6064579.33945  24023555.829    24023565.801
  21945599.941   -20709786.65349 -15831065.43847  21945599.578    21945605.444
  23357683.302   -12706058.20549  -9883459.85845  23357682.753    23357691.419
  23788289.061    -8038353.32649  -6245358.66345  23788288.410    23788294.899
  21941691.436   -20621749.48249 -15775509.69347  21941690.724    21941696.689
 03  6 11  0  9 30.0000000  0  7G25G16G11G 2G 1G14G20
  20848216.652   -23839509.75949 -18556674.43048  20848216.400    20848221.577
  24006067.847    -8565098.43049  -6136190.87445  24006067.326    24006077.316
  21954816.937   -20661351.41549 -15793323.74947  21954816.557    21954822.419
  24472159.439    -3200299.48449  -2474337.44144  24472158.809    24472174.107
  23345050.456   -12772443.50849  -9935188.57545  23345049.949    23345058.618
  23802739.590    -7962416.39849  -6186187.10545  23802738.857    23802745.300
  21926733.034   -20700356.18549 -15836761.64147  21926732.319    21926738.264
 03  6 11  0 10  0.0000000  0  7G25G16G11G 2G 1G14G20
  20855383.505   -23801847.74749 -18527327.41348  20855383.249    20855388.430
  23988586.506    -8656962.50249  -6207773.02745  23988585.988    23988596.009
  21964117.029   -20612479.28549 -15755241.61447  21964116.658    21964122.513
  24455641.771    -3287098.64249  -2541972.69645  24455641.033    24455656.582
  23332439.886   -12838711.93749  -9986826.20945  23332439.339    23332448.010
  23817193.225    -7886462.24949  -6127002.11145  23817192.561    23817199.012
  21911814.819   -20778751.92149 -15897849.19647  21911814.097    21911819.995
 03  6 11  0 10 30.0000000  0  7G25G16G11G 2G 1G14G20
  20862631.547   -23763758.95249 -18497647.83948  20862631.281    20862636.480
  23971114.286    -8748778.33849  -6279317.58645  23971113.773    23971123.815
  21973501.275   -20563165.05549 -15716814.99147  21973500.902    21973506.743
  24439116.695    -3373936.07849  -2609637.76144  24439115.793    24439131.260
  23319853.018   -12904856.02049 -10038366.95946  23319852.472    23319861.149
  23831651.592    -7810483.30149  -6067797.79945  23831650.941    23831657.377
  21896938.622   -20856926.73649 -15958764.60347  21896937.886    21896943.800
 03  6 11  0 11  0.0000000  0  7G25G16G11G 2G 1G14G20
  20869960.224   -23725246.54849 -18467638.18248  20869959.977    20869965.165
  23953651.534    -8840544.65049  -6350823.57745  23953651.023    23953661.043
  21982968.880   -20513412.66649 -15678046.94447  21982968.527    21982974.350
  24422584.703    -3460810.76048  -2677331.93444  24422584.008    24422599.032
  23307289.611   -12970877.42749 -10089812.12546  23307289.040    23307297.589
  23846114.313    -7734481.51449  -6008575.70145  23846113.679    23846120.105
  21882104.545   -20934880.24149 -16019507.56847  21882103.795    21882109.705
 03  6 11  0 11 30.0000000  0  7G25G16G11G 2G 1G14G20
  20877368.968   -23686313.32049 -18437300.60948  20877368.728    20877373.908
  23936198.494    -8932259.68949  -6422289.61445  23936197.976    23936207.955
  21992519.292   -20463225.19449 -15638939.87747  21992518.916    21992524.720
  24406045.724    -3547721.52149  -2745054.15944  24406044.888    24406059.913
  23294749.221   -13036777.48249 -10141162.72246  23294748.651    23294757.094
  23860581.087    -7658458.41049  -5949336.99745  23860580.523    23860586.867
  21867312.776   -21012611.35949 -16080077.24747  21867312.005    21867317.952
 03  6 11  0 12  0.0000000  0  7G25G16G11G 2G 1G14G20
  20884857.426   -23646961.27749 -18406636.68648  20884857.184    20884862.368
  23918755.827    -9023920.14849  -6493713.12845  23918755.301    23918765.304
  22002152.075   -20412604.50049 -15599495.22747  22002151.698    22002157.556
  24389500.327    -3634665.70149  -2812802.45844  24389499.601    24389514.675
  23282231.768   -13102556.18749 -10192418.76446  23282231.247    23282239.737
  23875051.891    -7582413.93849  -5890081.64545  23875051.387    23875057.674
  21852563.768   -21090117.64349 -16140471.72847  21852562.996    21852568.948
 03  6 11  0 12 30.0000000  0  7G25G16G11G 2G 1G14G20
  20892425.265   -23607192.01449 -18375647.65648  20892425.015    20892430.229
  23901324.085    -9115523.03749  -6565091.77745  23901323.608    23901333.588
  22011866.926   -20361552.93449 -15559714.83547  22011866.562    22011872.429
  24372949.270    -3721640.69648  -2880574.78644  24372948.559    24372963.214
  23269737.454   -13168213.61949 -10243580.31746  23269736.977    23269745.477
  23889526.688    -7506348.28049  -5830809.77045  23889526.216    23889532.611
  21837857.940   -21167397.03249 -16200689.41347  21837857.176    21837863.134
 03  6 11  0 13  0.0000000  0  7G25G16G11G 2G 1G14G20
  20900072.079   -23567007.78949 -18344335.28348  20900071.821    20900077.043
  23883903.902    -9207065.40649  -6636423.27545  23883903.438    23883913.533
  22021663.246   -20310072.95949 -15519600.62547  22021662.910    22021668.779
  24356392.741    -3808644.41849  -2948369.50644  24356392.071    24356406.650
  23257266.138   -13233750.27249 -10294647.75646  23257265.710    23257274.126
  23904005.428    -7430262.11849  -5771521.93145  23904004.862    23904011.431
  21823195.719   -21244447.46549 -16260728.68947  21823194.977    21823200.948
 03  6 11  0 13 30.0000000  0  7G25G16G11G 2G 1G14G20
  20907797.434   -23526410.75849 -18312701.23848  20907797.173    20907802.407
  23866495.851    -9298544.69549  -6707705.62645  23866495.320    23866505.386
  22031540.626   -20258167.19749 -15479154.62547  22031540.252    22031546.148
  24339831.183    -3895674.67649  -3016184.90244  24339829.927    24339844.684
  23244817.821   -13299166.60949 -10345621.44446  23244817.358    23244825.722
  23918488.026    -7354155.88949  -5712218.42545  23918487.446    23918494.103
  21808577.393   -21321267.22949 -16320588.22147  21808576.647    21808582.616
 03  6 11  0 14  0.0000000  0  7G25G16G11G 2G 1G14G20
  20915601.047   -23485402.52349 -18280746.77648  20915600.791    20915606.038
  23849100.294    -9389958.08849  -6778936.65345  23849099.862    23849109.782
  22041498.646   -20205837.88249 -15438378.58447  22041498.258    22041504.146
  24323265.000    -3982728.87149  -3084018.98244  24323263.796    24323278.716
  23232392.442   -13364462.70049 -10396501.43146  23232391.910    23232400.247
  23932974.366    -7278029.84149  -5652899.48645  23932973.817    23932980.509
  21794003.422   -21397854.02649 -16380266.22647  21794002.656    21794008.622
 03  6 11  0 14 30.0000000  0  7G25G16G11G 2G 1G14G20
  20923482.509   -23443984.97349 -18248473.36648  20923482.255    20923487.532
  23831717.872    -9481302.31249  -6850113.76545  23831717.425    23831727.308
  22051536.809   -20153087.17949 -15397274.19147  22051536.419    22051542.307
  24306694.825    -4069804.43749  -3151869.75345  24306693.846    24306708.344
  23219989.797   -13429638.66349 -10447287.80946  23219989.246    23219997.622
  23947464.395    -7201884.25849  -5593565.31045  23947463.706    23947470.572
  21779474.209   -21474205.48749 -16439760.84147  21779473.444    21779479.458
 03  6 11  0 15  0.0000000  0  7G25G16G11G 2G 1G14G20
  20931441.580   -23402159.80649 -18215882.33148  20931441.305    20931446.589
  23814349.233    -9572574.34349  -6921234.61245  23814348.810    23814358.592
  22061654.773   -20099917.19849 -15355843.08947  22061654.374    22061660.232
  24290121.010    -4156898.82249  -3219735.05345  24290120.180    24290134.605
  23207610.011   -13494694.52949 -10497980.61246  23207609.476    23207617.804
  23961958.209    -7125719.07149  -5534215.89045  23961957.462    23961964.437
  21764990.189   -21550319.33949 -16499070.30847  21764989.431    21764995.443
 03  6 11  0 15 30.0000000  0  7G25G16G11G 2G 1G14G20
  20939477.876   -23359928.86049 -18182975.10647  20939477.631    20939482.918
  23796994.945    -9663770.97149  -6992296.71245  23796994.574    23797004.199
  22071852.066   -20046330.11849 -15314086.97447  22071851.715    22071857.574
  24273544.210    -4244009.30049  -3287612.95945  24273543.286    24273557.636
  23195253.112   -13559630.36849 -10548579.88546  23195252.561    23195260.875
  23976455.670    -7049534.48549  -5474851.34245  23976454.965    23976461.859
  21750551.862   -21626193.27549 -16558192.83047  21750551.087    21750557.109
 03  6 11  0 16  0.0000000  0  7G25G16G11G 2G 1G14G20
  20947591.015   -23317294.04249 -18149753.17047  20947590.745    20947596.039
  23779655.600    -9754889.22649  -7063297.72445  23779655.167    23779664.716
  22082128.244   -19992328.42549 -15272007.78047  22082127.911    22082133.760
  24256964.720    -4331133.61349  -3355501.68445  24256963.724    24256978.161
  23182918.938   -13624446.52249 -10599085.89846  23182918.410    23182926.678
  23990956.711    -6973330.82249  -5415471.96245  23990956.077    23990962.919
  21736159.535   -21701825.30649 -16617126.84847  21736158.771    21736164.770
 03  6 11  0 16 30.0000000  0  7G25G16G11G 2G 1G14G20
  20955780.622   -23274257.43549 -18116218.15747  20955780.365    20955785.645
  23762331.598    -9845926.47549  -7134235.63445  23762331.181    23762340.680
  22092482.882   -19937914.70049 -15229607.52647  22092482.533    22092488.405
  24240383.081    -4418269.26849  -3423399.24245  24240381.914    24240396.429
  23170607.466   -13689143.20149 -10649498.81746  23170606.893    23170615.246
  24005461.445    -6897108.32849  -5356077.89145  24005460.765    24005467.694
  21721813.629   -21777213.14049 -16675870.58347  21721812.882    21721818.885
 03  6 11  0 17  0.0000000  0  7G25G16G11G 2G 1G14G20
  20964046.361   -23230820.73549 -18082371.38447  20964046.113    20964051.348
  23745023.787    -9936879.23449  -7205107.70545  23745023.433    23745032.736
  22102915.492   -19883090.90549 -15186887.73247  22102915.170    22102921.028
  24223799.777    -4505413.51749  -3491303.54745  24223798.653    24223812.944
  23158318.758   -13753720.19949 -10699818.48046  23158318.180    23158326.582
  24019969.717    -6820867.08549  -5296669.20045  24019969.121    24019976.060
  21707514.679   -21852354.40849 -16734422.18947  21707513.951    21707519.947
 03  6 11  0 17 30.0000000  0  7G25G16G11G 2G 1G14G20
  20972387.883   -23186985.87649 -18048214.35647  20972387.638    20972392.849
  23727732.549   -10027744.36949  -7275911.50545  23727732.154    23727741.492
  22113425.752   -19827859.41749 -15143850.25647  22113425.424    22113431.253
  24207215.355    -4592564.01949  -3559212.69945  24207214.185    24207228.113
  23146052.857   -13818177.84449 -10750045.12846  23146052.272    23146060.591
  24034481.471    -6744607.30649  -5237246.07245  24034480.925    24034487.851
  21693263.132   -21927246.85149 -16792779.89947  21693262.387    21693268.366
 03  6 11  0 18  0.0000000  0  7G25G16G11G 2G 1G14G20
  20980804.826   -23142754.60949 -18013748.43947  20980804.571    20980809.794
  23710458.531   -10118519.26349  -7346644.98745  23710458.042    23710467.373
  22124013.065   -19772223.00149 -15100497.25347  22124012.695    22124018.575
  24190630.152    -4679718.43549  -3627124.85345  24190628.877    24190642.858
  23133809.496   -13882516.38949 -10800178.98146  23133808.947    23133817.322
  24048996.719    -6668329.42349  -5177808.84045  24048996.067    24049003.113
  21679059.261   -22001888.43449 -16850942.14347  21679058.520    21679064.482
 03  6 11  0 18 30.0000000  0  7G25G16G11G 2G 1G14G20
  20989296.788   -23098129.08049 -17978975.30747  20989296.522    20989301.764
  23693202.252   -10209200.72349  -7417305.67245  23693201.748    23693210.995
  22134677.043   -19716183.69049 -15056830.30347  22134676.672    22134682.570
  24174044.546    -4766874.23049  -3695038.11345  24174043.388    24174057.236
  23121588.868   -13946735.91049 -10850220.09446  23121588.328    23121596.638
  24063515.328    -6592033.68549  -5118357.69545  24063514.755    24063521.760
  21664903.606   -22076276.99449 -16908907.22047  21664902.860    21664908.813
 03  6 11  0 19  0.0000000  0  7G25G16G11G 2G 1G14G20
  20997863.374   -23053111.40549 -17943896.60347  20997863.122    20997868.354
  23675964.302   -10299785.99649  -7487891.40145  23675963.821    23675972.975
  22145417.175   -19659744.06849 -15012851.42447  22145416.817    22145422.762
  24157459.250    -4854028.93349  -3762950.53845  24157458.220    24157471.944
  23109390.863   -14010836.68449 -10900168.67046  23109390.332    23109398.628
  24078037.466    -6515720.22649  -5058892.74045  24078036.921    24078043.823
  21650796.484   -22150410.13749 -16966673.26947  21650795.746    21650801.697
 03  6 11  0 19 30.0000000  0  7G25G16G11G 2G 1G14G20
  21006504.105   -23007703.91949 -17908514.15247  21006503.840    21006509.076
  23658745.168   -10390272.34749  -7558400.05745  23658744.642    23658753.835
  22156232.992   -19602906.80949 -14968562.70147  22156232.609    22156238.568
  24140874.726    -4941180.22149  -3830860.29345  24140873.711    24140887.208
  23097215.303   -14074819.17149 -10950025.07446  23097214.811    23097223.084
  24092562.857    -6439389.67049  -4999414.47645  24092562.256    24092569.135
  21636738.358   -22224286.07449 -17024238.90047  21636737.618    21636743.552
 03  6 11  0 20  0.0000000  0  7G25G16G11G 2G 1G14G20
  21015218.887   -22961907.49649 -17872828.63047  21015218.627    21015223.856
  23641545.653   -10480655.62049  -7628828.38645  23641545.109    23641554.233
  22167124.222   -19545673.55649 -14923965.40847  22167123.819    22167129.795
  24124291.414    -5028324.60649  -3898764.69245  24124290.512    24124303.811
  23085062.446   -14138682.71649 -10999788.81546  23085061.904    23085070.130
  24107091.477    -6363041.30949  -4939922.33745  24107090.888    24107097.857
  21622729.732   -22297901.86149 -17081601.82147  21622728.986    21622734.898
 03  6 11  0 20 30.0000000  0  7G25G16G11G 2G 1G14G20
  21024007.210   -22915724.57749 -17836841.95447  21024006.943    21024012.189
  23624366.248   -10570933.61649  -7699174.69245  23624365.672    23624374.686
  22178090.129   -19488047.39849 -14879061.96147  22178089.708    22178095.744
  24107709.655    -5115460.51149  -3966662.49545  24107708.831    24107721.964
  23072932.121   -14202428.10849 -11049460.48646  23072931.572    23072939.769
  24121623.370    -6286675.99749  -4880416.99245  24121622.718    24121629.851
  21608770.954   -22371255.77649 -17138760.69647  21608770.210    21608776.090
 03  6 11  0 21  0.0000000  0  7G25G16G11G 2G 1G14G20
  21032868.788   -22869156.68849 -17800555.29847  21032868.518    21032873.776
  23607207.523   -10661102.55849  -7769436.03245  23607206.971    23607215.909
  22189130.447   -19430030.15149 -14833853.77247  22189130.035    22189136.094
  24091130.273    -5202584.56949  -4034551.05845  24091129.379    24091142.578
  23060824.225   -14266054.93249 -11099039.76746  23060823.744    23060831.862
  24136158.602    -6210293.20249  -4820898.02045  24136157.856    24136165.077
  21594862.524   -22444344.88249 -17195713.21547  21594861.778    21594867.674
 03  6 11  0 21 30.0000000  0  7G25G16G11G 2G 1G14G20
  21041803.239   -22822205.66849 -17763970.09647  21041802.973    21041808.234
  23590070.073   -10751159.64249  -7839610.21645  23590069.545    23590078.345
  22200244.664   -19371624.73549 -14788343.12247  22200244.231    22200250.349
  24074553.506    -5289694.42949  -4102428.54545  24074552.694    24074565.779
  23048738.920   -14329563.35249 -11148526.78246  23048738.441    23048746.566
  24150697.087    -6133893.16649  -4761365.61245  24150696.521    24150703.658
  21581004.906   -22517167.08649 -17252457.76647  21581004.152    21581010.067
 03  6 11  0 22  0.0000000  0  7G25G16G11G 2G 1G14G20
  21050810.150   -22774874.01849 -17727088.30347  21050809.898    21050815.150
  23572954.321   -10841102.16149  -7909695.14845  23572953.904    23572962.638
  22211432.288   -19312833.35249 -14742531.71647  22211431.886    22211438.021
  24057979.926    -5376788.02749  -4170293.38545  24057979.158    24057992.164
  23036676.105   -14392954.05449 -11197922.08346  23036675.532    23036683.647
  24165238.869    -6057476.50349  -4701820.25745  24165238.254    24165245.280
  21567198.401   -22589720.57049 -17308992.92647  21567197.660    21567203.548
 03  6 11  0 22 30.0000000  0  7G25G16G11G 2G 1G14G20
  21059889.444   -22727162.04949 -17689910.16747  21059889.192    21059894.435
  23555861.288   -10930925.43149  -7979687.16545  23555860.887    23555869.573
  22222693.147   -19253657.21049 -14696420.51647  22222692.760    22222698.904
  24041410.272    -5463861.13049  -4238142.24545  24041409.499    24041422.453
  23024635.891   -14456225.62349 -11247224.55546  23024635.317    23024643.389
  24179783.886    -5981041.92949  -4642260.94445  24179783.354    24179790.421
  21553443.814   -22662001.50949 -17365315.72147  21553443.052    21553448.909
 03  6 11  0 23  0.0000000  0  7G25G16G11G 2G 1G14G20
  21069040.231   -22679074.58649 -17652439.43647  21069039.977    21069045.194
  23538791.089   -11020629.23449  -8049586.10145  23538790.655    23538799.387
  22234026.199   -19194101.79649 -14650013.77546  22234025.854    22234031.969
  24024844.413    -5550913.85849  -4305975.25445  24024843.707    24024856.588
  23012617.746   -14519380.87949 -11296436.39546  23012617.197    23012625.256
  24194331.806    -5904592.20549  -4582689.83145  24194331.263    24194338.329
  21539740.997   -22734010.37549 -17421426.51147  21539740.218    21539746.038
 03  6 11  0 23 30.0000000  0  7G25G16G11G 2G 1G14G20
  21078262.488   -22630611.51449 -17614676.02547  21078262.223    21078267.429
  23521744.573   -11110208.44549  -8119387.94545  23521744.066    23521752.936
  22245431.431   -19134167.37549 -14603311.70146  22245431.098    22245437.166
  24008283.277    -5637941.81049  -4373788.94945  24008282.562    24008295.334
  23000622.192   -14582417.99449 -11345556.16746  23000621.601    23000629.672
  24208883.016    -5828125.49649  -4523105.46945  24208882.330    24208889.534
  21526090.728   -22805742.83149 -17477321.92047  21526089.958    21526095.777
 03  6 11  0 24  0.0000000  0  7G25G16G11G 2G 1G14G20
  21087555.664   -22581775.60249 -17576622.08147  21087555.409    21087560.589
  23504722.249   -11199660.57849  -8189090.75645  23504721.810    23504730.588
  22256908.196   -19073857.03749 -14556316.69646  22256907.843    22256913.907
  23991727.273    -5724942.83649  -4441581.65845  23991726.584    23991739.304
  22988648.983   -14645337.65749 -11394584.41246  22988648.340    22988656.396
  24223437.244    -5751642.76849  -4463508.63945  24223436.604    24223443.604
  21512493.389   -22877197.13149 -17533000.57647  21512492.641    21512498.448
 03  6 11  0 24 30.0000000  0  7G25G16G11G 2G 1G14G20
  21096919.450   -22532568.68349 -17538279.04747  21096919.187    21096924.396
  23487724.848   -11288982.37449  -8258692.01545  23487724.357    23487733.158
  22268456.068   -19013173.12949 -14509030.59746  22268455.679    22268461.732
  23975176.935    -5811914.22049  -4509351.25945  23975176.301    23975188.864
  22976698.061   -14708139.89749 -11443521.15846  22976697.453    22976705.474
  24237994.738    -5675143.56349  -4403898.98345  24237994.076    24238001.123
  21498949.476   -22948370.94049 -17588460.67047  21498948.698    21498954.498
 03  6 11  0 25  0.0000000  0  7G25G16G11G 2G 1G14G20
  21106353.401   -22482992.93749 -17499648.61447  21106353.136    21106358.356
  23470752.743   -11378171.09349  -8328189.58045  23470752.326    23470760.959
  22280074.411   -18952118.55949 -14461455.67646  22280074.046    22280080.092
  23958632.661    -5898853.60649  -4577095.93345  23958632.034    23958644.504
  22964769.406   -14770825.07049 -11492366.69646  22964768.841    22964776.811
  24252555.215    -5598628.65749  -4344277.07245  24252554.596    24252561.489
  21485459.279   -23019262.22349 -17643700.61247  21485458.527    21485464.324
 03  6 11  0 25 30.0000000  0  7G25G16G11G 2G 1G14G20
  21115857.219   -22433050.26849 -17460732.27247  21115856.966    21115862.181
  23453806.495   -11467223.52349  -8397580.95045  23453806.068    23453814.664
  22291762.805   -18890695.75049 -14413593.80946  22291762.434    22291768.522
  23942094.998    -5985758.44649  -4644813.70345  23942094.274    23942106.744
  22952862.961   -14833393.32849 -11541121.12146  22952862.394    22952870.408
  24267118.536    -5522097.88849  -4284642.81045  24267117.954    24267124.871
  21472023.339   -23089868.66749 -17698718.60047  21472022.588    21472028.363
 03  6 11  0 26  0.0000000  0  7G25G16G11G 2G 1G14G20
  21125430.467   -22382742.46249 -17421531.40647  21125430.219    21125435.430
  23436886.866   -11556136.35749  -8466863.54645  23436886.351    23436894.958
  22303520.912   -18828906.72049 -14365446.58946  22303520.524    22303526.672
  23925564.456    -6072625.92349  -4712502.36045  23925563.677    23925576.166
  22940978.878   -14895844.50749 -11589784.31046  22940978.341    22940986.298
  24281685.025    -5445551.27649  -4224996.19445  24281684.559    24281691.243
  21458642.022   -23160187.77549 -17753512.69147  21458641.272    21458647.049
 03  6 11  0 26 30.0000000  0  7G25G16G11G 2G 1G14G20
  21135072.787   -22332071.67949 -17382047.70647  21135072.534    21135077.774
  23419994.292   -11644906.76049  -8536035.17045  23419993.806    23420002.318
  22315348.131   -18766754.38349 -14317016.24446  22315347.766    22315353.945
  23909041.521    -6159453.74749  -4780160.13645  23909040.726    23909053.036
  22929117.009   -14958178.87249 -11638356.49346  22929116.443    22929124.391
  24296254.394    -5368989.13949  -4165337.46945  24296253.873    24296260.657
  21445315.779   -23230217.52849 -17808081.31147  21445315.037    21445320.814
 03  6 11  0 27  0.0000000  0  7G25G16G11G 2G 1G14G20
  21144783.792   -22281040.00449 -17342282.78047  21144783.541    21144788.810
  23403129.475   -11733531.51949  -8605093.29245  23403128.991    23403137.435
  22327244.063   -18704241.24849 -14268304.76646  22327243.691    22327249.891
  23892526.638    -6246239.07249  -4847784.78045  23892525.779    23892538.054
  22917277.335   -15020396.49549 -11686837.69746  22917276.789    22917284.742
  24310826.767    -5292411.32249  -4105666.54645  24310826.235    24310833.059
  21432045.122   -23299955.38049 -17862422.47047  21432044.374    21432050.121
 03  6 11  0 27 30.0000000  0  7G25G16G11G 2G 1G14G20
  21154563.202   -22229649.06849 -17302237.92547  21154562.941    21154568.213
  23386292.990   -11822007.60749  -8674035.57045  23386292.487    23386300.820
  22339208.114   -18641370.24349 -14219314.44746  22339207.728    22339213.900
  23876020.193    -6332979.61849  -4915374.54745  23876019.216    23876031.496
  22905459.836   -15082497.73349 -11735228.21846  22905459.301    22905467.217
  24325401.899    -5215818.06949  -4045983.58145  24325401.415    24325408.253
  21418830.397   -23369398.97649 -17916534.34347  21418829.643    21418835.400
 03  6 11  0 28  0.0000000  0  7G25G16G11G 2G 1G14G20
  21164410.577   -22177900.70649 -17261914.54847  21164410.324    21164415.615
  23369485.415   -11910331.49749  -8742859.25045  23369484.922    23369493.201
  22351239.878   -18578143.29149 -14170046.77246  22351239.489    22351245.633
  23859522.866    -6419672.27149  -4982926.99245  23859521.897    23859534.178
  22893664.589   -15144482.08449 -11783527.65446  22893664.066    22893671.920
  24339980.225    -5139209.09149  -3986288.37745  24339979.693    24339986.482
  21405672.175   -23438545.84049 -17970414.99647  21405671.412    21405677.186
 03  6 11  0 28 30.0000000  0  7G25G16G11G 2G 1G14G20
  21174325.465   -22125797.74349 -17221314.85647  21174325.220    21174330.491
  23352707.180   -11998500.77349  -8811562.45845  23352706.708    23352714.971
  22363338.758   -18514563.67149 -14120504.28746  22363338.343    22363344.522
  23843035.031    -6506315.13049  -5050440.66745  23843034.132    23843046.282
  22881891.328   -15206350.59649 -11831736.82546  22881890.807    22881898.644
  24354561.338    -5062585.25349  -3926581.58845  24354560.838    24354567.635
  21392570.670   -23507394.45949 -18024063.25147  21392569.932    21392575.702
 03  6 11  0 29  0.0000000  0  7G25G16G11G 2G 1G14G20
  21184307.512   -22073341.86749 -17180440.17047  21184307.269    21184312.516
  23335959.076   -12086512.16049  -8880142.63145  23335958.642    23335966.832
  22375504.283   -18450633.70749 -14070688.81746  22375503.901    22375510.078
  23826557.337    -6592905.23249  -5117913.23445  23826556.448    23826568.551
  22870140.246   -15268103.08249 -11879855.59346  22870139.692    22870147.477
  24369145.327    -4985946.20449  -3866862.94245  24369144.722    24369151.628
  21379526.528   -23575941.90249 -18077476.82547  21379525.793    21379531.556
 03  6 11  0 29 30.0000000  0  7G25G16G11G 2G 1G14G20
  21194356.445   -22020534.49249 -17139291.58347  21194356.193    21194361.440
  23319241.675   -12174362.27349  -8948597.14045  23319241.196    23319249.398
  22387735.992   -18386355.87949 -14020602.28646  22387735.553    22387741.773
  23810090.065    -6679439.81449  -5185342.53245  23810089.278    23810101.274
  22858411.227   -15329739.36949 -11927883.81146  22858410.632    22858418.409
  24383732.165    -4909292.01349  -3807132.46945  24383731.544    24383738.465
  21366540.121   -23644185.82249 -18130653.88647  21366539.383    21366545.118
 03  6 11  0 30  0.0000000  0  7G25G16G11G 2G 1G14G20
  21204471.885   -21967377.69249 -17097870.72747  21204471.640    21204476.872
  23302555.578   -12262047.98449  -9016923.53745  23302555.057    23302563.306
  22400033.421   -18321732.55049 -13970246.53246  22400033.000    22400039.294
  23793634.032    -6765915.98549  -5252726.30745  23793633.171    23793645.125
  22846704.256   -15391259.57049 -11975821.56146  22846703.706    22846711.471
  24398321.888    -4832622.56649  -3747390.12745  24398321.354    24398328.214
  21353612.011   -23712123.65349 -18183592.42947  21353611.262    21353616.986
 03  6 11  0 30 30.0000000  0  7G25G16G11G 2G 1G14G20
  21214653.297   -21913874.24849 -17056179.74947  21214653.041    21214658.256
  23285901.273   -12349566.34249  -9085119.53245  23285900.747    23285908.961
  22412396.061   -18256766.77049 -13919623.95346  22412395.621    22412401.931
  23777189.429    -6852331.56949  -5320062.86445  23777188.656    23777200.603
  22835019.340   -15452663.97349 -12023669.08546  22835018.776    22835026.556
  24412914.532    -4755938.05649  -3687636.04545  24412913.911    24412920.984
  21340742.482   -23779753.43949 -18236290.94147  21340741.722    21340747.412
 03  6 11  0 31  0.0000000  0  7G25G16G11G 2G 1G14G20
  21224900.357   -21860025.55149 -17014219.75247  21224900.087    21224905.320
  23269279.476   -12436914.31249  -9153182.76445  23269278.923    23269287.119
  22424823.337   -18191461.15249 -13868736.57046  22424822.888    22424829.242
  23760756.973    -6938683.62249  -5387349.93545  23760756.221    23760768.072
  22823356.434   -15513952.47949 -12071426.29646  22823355.890    22823363.679
  24427509.888    -4679238.54649  -3627870.27445  24427509.347    24427516.539
  21327932.012   -23847072.97649 -18288747.70347  21327931.250    21327936.906
 03  6 11  0 31 30.0000000  0  7G25G16G11G 2G 1G14G20
  21235212.668   -21805834.09949 -16971992.66747  21235212.418    21235217.660
  23252690.640   -12524088.61849  -9221110.66345  23252690.118    23252698.273
  22437314.881   -18125818.12249 -13817586.25146  22437314.420    22437320.791
  23744337.038    -7024969.79649  -5454585.67745  23744336.259    23744348.078
  22811715.532   -15575125.45049 -12119093.48346  22811715.009    22811722.814
  24442108.283    -4602524.34449  -3568093.06145  24442107.611    24442114.880
  21315180.988   -23914079.81049 -18340960.80047  21315180.228    21315185.907
 03  6 11  0 32  0.0000000  0  7G25G16G11G 2G 1G14G20
  21245589.786   -21751302.03449 -16929500.17347  21245589.535    21245594.796
  23236135.296   -12611086.69849  -9288901.26845  23236134.839    23236142.924
  22449870.148   -18059839.98849 -13766174.78646  22449869.728    22449876.147
  23727930.143    -7111187.82949  -5521768.34145  23727929.376    23727941.091
  22800096.567   -15636183.50149 -12166671.12346  22800096.002    22800103.746
  24456709.319    -4525795.56849  -3508304.49545  24456708.713    24456715.982
  21302489.810   -23980772.09549 -18392928.80047  21302489.074    21302494.751
 03  6 11  0 32 30.0000000  0  7G25G16G11G 2G 1G14G20
  21256031.381   -21696431.04049 -16886743.57347  21256031.136    21256036.409
  23219614.208   -12697904.93949  -9356551.72945  23219613.766    23219621.822
  22462488.457   -17993530.53349 -13714505.15946  22462488.053    22462494.532
  23711536.835    -7197334.67049  -5588895.52945  23711536.056    23711547.632
  22788499.417   -15697126.29149 -12214158.94546  22788498.891    22788506.645
  24471313.201    -4449051.97849  -3448504.38845  24471312.583    24471319.894
  21289859.103   -24047147.01649 -18444649.49847  21289858.348    21289864.010
 03  6 11  0 33  0.0000000  0  7G25G16G11G 2G 1G14G20
  21266537.064   -21641223.37249 -16843724.63047  21266536.823    21266542.120
  23203127.956   -12784540.30549  -9424059.69946  23203127.539    23203135.503
  22475169.489   -17926891.59749 -13662578.81746  22475169.084    22475175.561
  23695157.644    -7283407.68749  -5655965.18545  23695156.855    23695168.264
  22776924.254   -15757953.75849 -12261556.90246  22776923.744    22776931.473
  24485919.842    -4372293.57749  -3388692.73545  24485919.301    24485926.617
  21277289.188   -24113202.20349 -18496121.04947  21277288.420    21277294.093
 03  6 11  0 33 30.0000000  0  7G25G16G11G 2G 1G14G20
  21277106.353   -21585681.36749 -16800445.16247  21277106.096    21277111.436
  23186677.031   -12870990.12249  -9491423.09545  23186676.558    23186684.546
  22487912.650   -17859926.46349 -13610398.29446  22487912.252    22487918.697
  23678792.859    -7369404.88449  -5722975.77045  23678791.954    23678803.397
  22765370.886   -15818666.59749 -12308865.54446  22765370.362    22765378.104
  24500529.314    -4295520.98249  -3328870.00045  24500528.677    24500536.175
  21264780.414   -24178936.06349 -18547342.22047  21264779.659    21264785.352
 03  6 11  0 34  0.0000000  0  7G25G16G11G 2G 1G14G20
  21287738.927   -21529806.82949 -16756906.57847  21287738.675    21287744.016
  23170262.109   -12957250.80549  -9558639.10746  23170261.552    23170269.579
  22500717.484   -17792637.22749 -13557965.21446  22500717.077    22500723.489
  23662442.963    -7455323.31049  -5789924.96545  23662442.063    23662453.472
  22753839.486   -15879264.51149 -12356084.62546  22753838.945    22753846.679
  24515141.446    -4218733.92949  -3269036.02945  24515140.711    24515148.267
  21252333.325   -24244345.75849 -18598310.79447  21252332.586    21252338.282
 03  6 11  0 34 30.0000000  0  7G25G16G11G 2G 1G14G20
  21298434.462   -21473601.53449 -16713110.26447  21298434.211    21298439.534
  23153883.722   -13043319.56849  -9625705.56946  23153883.191    23153891.072
  22513583.440   -17725026.70949 -13505281.72246  22513583.041    22513589.428
  23646108.572    -7541160.10549  -5856810.56945  23646107.800    23646118.999
  22742329.877   -15939747.54349 -12403214.20846  22742329.373    22742337.030
  24529756.327    -4141932.41849  -3209190.78245  24529755.663    24529763.379
  21239948.342   -24309429.01549 -18649025.00047  21239947.630    21239953.301
 03  6 11  0 35  0.0000000  0  7G25G16G11G 2G 1G14G20
  21309192.559   -21417067.55449 -16669057.83147  21309192.313    21309197.627
  23137542.501   -13129193.05349  -9692619.85346  23137542.023    23137549.877
  22526510.026   -17657097.33749 -13452349.76646  22526509.592    22526516.019
  23629790.286    -7626912.71549  -5923630.57145  23629789.458    23629800.588
  22730842.232   -16000115.62649 -12450254.20846  22730841.656    22730849.341
  24544373.943    -4065116.65149  -3149334.41745  24544373.214    24544380.912
  21227626.018   -24374183.26649 -18699482.84047  21227625.291    21227630.978
 03  6 11  0 35 30.0000000  0  7G25G16G11G 2G 1G14G20
  21320012.688   -21360207.47749 -16624751.29047  21320012.442    21320017.743
  23121238.978   -13214868.49349  -9759379.81146  23121238.440    23121246.213
  22539496.570   -17588852.48749 -13399172.03746  22539496.181    22539502.632
  23613488.365    -7712578.83649  -5990383.17845  23613487.493    23613498.661
  22719376.235   -16060369.37049 -12497205.11946  22719375.664    22719383.344
  24558994.322    -3988286.69849  -3089467.02145  24558993.692    24559001.339
  21215366.609   -24438606.75149 -18749682.93647  21215365.888    21215371.590
 03  6 11  0 36  0.0000000  0  7G25G16G11G 2G 1G14G20
  21330894.592   -21303022.82749 -16580191.84147  21330894.339    21330899.628
  23104973.725   -13300342.45549  -9825982.78946  23104973.220    23104980.968
  22552542.756   -17520294.40149 -13345750.22746  22552542.380    22552548.900
  23597203.447    -7798155.19949  -6057065.86045  23597202.587    23597213.708
  22707932.089   -16120508.36249 -12544066.62046  22707931.556    22707939.193
  24573617.490    -3911441.95449  -3029588.05345  24573616.809    24573624.425
  21203170.752   -24502696.45949 -18799622.95147  21203170.031    21203175.701
 03  6 11  0 36 30.0000000  0  7G25G16G11G 2G 1G14G20
  21341837.847   -21245515.74449 -16535381.15047  21341837.603    21341842.875
  23088747.368   -13385611.99349  -9892426.48146  23088746.884    23088754.661
  22565647.961   -17451426.18949 -13292086.76346  22565647.617    22565654.151
  23580936.125    -7883639.52549  -6123676.82845  23580935.329    23580946.332
  22696509.753   -16180533.12249 -12590839.10946  22696509.184    22696516.795
  24588243.334    -3834583.09649  -2969698.10545  24588242.814    24588250.271
  21191038.712   -24566450.71049 -18849301.57447  21191037.970    21191043.664
 03  6 11  0 37  0.0000000  0  7G25G16G11G 2G 1G14G20
  21352842.023   -21187688.61849 -16490321.06847  21352841.775    21352847.041
  23072560.406   -13470674.56649  -9958708.89746  23072559.900    23072567.732
  22578811.634   -17382250.82649 -13238183.94746  22578811.264    22578817.844
  23564686.898    -7969029.41349  -6190214.24145  23564686.058    23564696.918
  22685109.070   -16240443.98849 -12637522.84646  22685108.517    22685116.086
  24602871.812    -3757710.44849  -2909797.42545  24602871.277    24602878.800
  21178970.882   -24629867.45549 -18898717.20347  21178970.144    21178975.825
 03  6 11  0 37 30.0000000  0  7G25G16G11G 2G 1G14G20
  21363906.777   -21129542.98749 -16445012.79947  21363906.515    21363911.757
  23056413.629   -13555525.95449 -10024826.76546  23056413.118    23056420.976
  22592033.461   -17312769.88449 -13184043.02446  22592033.101    22592039.679
  23548456.165    -8054321.57949  -6256675.49445  23548455.354    23548466.125
  22673730.176   -16300240.25749 -12684117.29246  22673729.594    22673737.197
  24617502.975    -3680823.20349  -2849885.38645  24617502.348    24617510.088
  21166967.905   -24692943.37049 -18947867.24647  21166967.154    21166972.840
 03  6 11  0 38  0.0000000  0  7G25G16G11G 2G 1G14G20
  21375031.754   -21071081.06649 -16399458.07347  21375031.484    21375036.733
  23040307.523   -13640163.66249 -10090778.13146  23040306.978    23040314.850
  22605312.814   -17242986.72649 -13129666.61246  22605312.418    22605319.027
  23532244.404    -8139513.92849  -6323058.94745  23532243.577    23532254.293
  22662372.960   -16359922.43749 -12730622.83046  22662372.387    22662380.055
  24632136.817    -3603921.62149  -2789962.17645  24632136.087    24632143.967
  21155030.185   -24755676.54449 -18996750.22447  21155029.448    21155035.121
 03  6 11  0 38 30.0000000  0  7G25G16G11G 2G 1G14G20
  21386216.518   -21012304.81149 -16353658.41247  21386216.241    21386221.500
  23024242.650   -13724584.61449 -10156560.58546  23024242.169    23024249.984
  22618649.188   -17172903.97049 -13075056.75846  22618648.815    22618655.404
  23516052.217    -8224603.68449  -6389362.46745  23516051.367    23516062.101
  22651037.430   -16419490.51649 -12777039.45746  22651036.894    22651044.602
  24646773.399    -3527005.87349  -2730027.90045  24646772.914    24646780.816
  21143158.108   -24818064.73749 -19045364.38847  21143157.357    21143163.023
 03  6 11  0 39  0.0000000  0  7G25G16G11G 2G 1G14G20
  21397460.677   -20953216.37049 -16307615.48547  21397460.386    21397465.658
  23008219.754   -13808785.26849 -10222171.36446  23008219.302    23008227.033
  22632042.067   -17102524.30549 -13020215.53446  22632041.694    22632048.304
  23499880.200    -8309587.93249  -6455583.78945  23499879.352    23499889.996
  22639723.705   -16478944.27949 -12823367.01046  22639723.176    22639730.907
  24661412.820    -3450075.50549  -2670082.24345  24661412.270    24661420.164
  21131352.155   -24880105.43049 -19093707.76947  21131351.400    21131357.039
 03  6 11  0 39 30.0000000  0  7G25G16G11G 2G 1G14G20
  21408763.769   -20893818.28149 -16261331.27847  21408763.481    21408768.774
  22992239.186   -13892763.32649 -10287608.71346  22992238.734    22992246.402
  22645490.736   -17031851.45549 -12965145.87646  22645490.363    22645496.983
  23483728.626    -8394464.68349  -6521721.36145  23483727.754    23483738.372
  22628431.535   -16538284.84549 -12869606.36446  22628430.993    22628438.725
  24676054.932    -3373131.39949  -2610125.86245  24676054.384    24676062.063
  21119612.644   -24941796.92549 -19141779.05547  21119611.897    21119617.555
 03  6 11  0 40  0.0000000  0  7G25G16G11G 2G 1G14G20
  21420125.395   -20834112.47849 -16214807.29347  21420125.116    21420130.438
  22976301.631   -13976515.15949 -10352869.78346  22976301.198    22976308.792
  22658994.843   -16960887.21549 -12909849.14746  22658994.475    22659001.082
  23467598.069    -8479230.84149  -6587772.73645  23467597.201    23467607.770
  22617160.959   -16597511.62149 -12915757.04946  22617160.455    22617168.174
  24690699.674    -3296172.89249  -2550158.28445  24690699.175    24690706.886
  21107940.101   -25003136.47049 -19189576.09247  21107939.358    21107945.003
 03  6 11  0 40 30.0000000  0  7G25G16G11G 2G 1G14G20
  21431545.191   -20774101.01749 -16168045.13247  21431544.920    21431550.260
  22960407.653   -14060037.96849 -10417952.39946  22960407.261    22960414.831
  22672553.857   -16889634.55349 -12854327.69046  22672553.508    22672560.095
  23451488.986    -8563884.04049  -6653736.06045  23451488.063    23451498.621
  22605912.037   -16656624.94649 -12961819.32946  22605911.473    22605919.224
  24705347.076    -3219200.38249  -2490179.78144  24705346.684    24705354.361
  21096334.925   -25064122.05149 -19237097.30447  21096334.192    21096339.828
 03  6 11  0 41  0.0000000  0  7G25G16G11G 2G 1G14G20
  21443022.853   -20713785.59249 -16121046.11347  21443022.594    21443027.942
  22944558.024   -14143328.34149 -10482853.88446  22944557.573    22944565.093
  22686167.280   -16818095.95949 -12798583.41846  22686166.923    22686173.509
  23435401.941    -8648421.48749  -6719609.22145  23435401.020    23435411.453
  22594684.736   -16715624.50549 -13007792.95946  22594684.205    22594691.982
  24719997.164    -3142213.61649  -2430190.17244  24719996.823    24720004.749
  21084797.595   -25124751.04249 -19284340.65847  21084796.869    21084802.507
 03  6 11  0 41 30.0000000  0  7G25G16G11G 2G 1G14G20
  21454557.896   -20653168.46949 -16073812.01047  21454557.629    21454563.007
  22928753.053   -14226383.70149 -10547572.23446  22928752.575    22928760.081
  22699834.463   -16746275.12949 -12742619.22346  22699834.082    22699840.657
  23419337.280    -8732840.80449  -6785390.34045  23419336.431    23419346.750
  22583479.033   -16774510.79249 -13053678.32346  22583478.503    22583486.227
  24734649.998    -3065212.99749  -2370189.77944  24734649.699    24734657.808
  21073328.526   -25185021.49249 -19331304.63347  21073327.769    21073333.399
 03  6 11  0 42  0.0000000  0  6G25G16G11G 2G 1G20
  21466149.393   -20592254.83549 -16026346.85347  21466149.134    21466154.499
  22912992.885   -14309203.47049 -10612106.99246  22912992.385    22912999.865
  22713554.371   -16674176.91149 -12686438.87446  22713553.974    22713560.513
  23403295.123    -8817142.08949  -6851079.48345  23403294.337    23403304.641
  22572294.386   -16833286.62849 -13099477.62746  22572293.876    22572301.507
  21061927.550   -25244933.90749 -19377989.62347  21061926.792    21061932.424
 03  6 11  0 42 30.0000000  0  6G25G16G11G 2G 1G20
  21477796.641   -20531048.21049 -15978653.39847  21477796.391    21477801.751
  22897277.767   -14391786.26849 -10676457.09546  22897277.296    22897284.762
  22727326.068   -16601806.10649 -12630046.13046  22727325.680    22727332.283
  23387275.681    -8901324.30049  -6916675.84445  23387274.887    23387285.183
  22561130.401   -16891953.52649 -13145192.04046  22561129.895    22561137.514
  21050594.859   -25304487.55749 -19424395.05247  21050594.107    21050599.751
 03  6 11  0 43  0.0000000  0  6G25G16G11G 2G 1G20
  21489500.840   -20469542.08949 -15930726.56947  21489500.588    21489505.960
  22881609.998   -14474120.47249 -10740613.51446  22881609.532    22881616.972
  22741150.840   -16529156.78849 -12573436.36246  22741150.459    22741157.060
  23371281.035    -8985376.37549  -6982170.80145  23371280.189    23371290.396
  22549988.688   -16950503.14149 -13190815.06946  22549988.189    22549995.778
  21039332.466   -25363671.68049 -19470512.54047  21039331.704    21039337.358
 03  6 11  0 43 30.0000000  0  6G25G16G11G 2G 1G20
  21501261.308   -20407740.63649 -15882569.61447  21501261.057    21501266.412
  22865989.722   -14556205.00349 -10804575.37146  22865989.245    22865996.684
  22755027.730   -16456233.63149 -12516613.21846  22755027.313    22755033.972
  23355311.243    -9069297.55549  -7047563.75945  23355310.386    23355320.516
  22538869.063   -17008937.39649 -13236348.19746  22538868.506    22538876.071
  21028140.497   -25422485.65549 -19516341.60447  21028139.752    21028145.417
 03  6 11  0 44  0.0000000  0  6G25G16G11G 2G 1G20
  21513077.349   -20345646.95149 -15834184.93747  21513077.097    21513082.459
  22850417.286   -14638038.06349 -10868341.28146  22850416.816    22850424.262
  22768955.872   -16383041.07549 -12459580.14446  22768955.450    22768962.139
  23339366.636    -9153086.34649  -7112853.57846  23339365.813    23339375.848
  22527771.075   -17067257.59849 -13281792.47046  22527770.529    22527778.055
  21017019.168   -25480928.71149 -19561881.63747  21017018.421    21017024.061
 03  6 11  0 44 30.0000000  0  6G25G16G11G 2G 1G20
  21524948.597   -20283263.38649 -15785574.38747  21524948.338    21524953.677
  22834893.221   -14719616.83649 -10931909.05146  22834892.792    22834900.276
  22782934.781   -16309581.86949 -12402339.29246  22782934.342    22782941.054
  23323447.672    -9236740.46049  -7178038.43746  23323446.804    23323456.859
  22516694.693   -17125464.18249 -13327148.18946  22516694.147    22516701.666
  21005968.775   -25538998.85149 -19607131.07747  21005968.031    21005973.660
 03  6 11  0 45  0.0000000  0  6G25G16G11G 2G 1G20
  21536874.412   -20220592.87749 -15736740.24047  21536874.172    21536879.482
  22819418.019   -14800938.76749 -10995276.68846  22819417.636    22819425.104
  22796963.712   -16235859.41249 -12344893.31246  22796963.291    22796970.091
  23307554.655    -9320257.79749  -7243116.73746  23307553.817    23307563.852
  22505639.861   -17183557.81749 -13372415.89846  22505639.300    22505646.774
  20994989.745   -25596694.10949 -19652088.40747  20994989.002    20994994.618
 03  6 11  0 45 30.0000000  0  6G25G16G11G 2G 1G20
  21548854.570   -20157636.73049 -15687683.51847  21548854.319    21548859.624
  22803992.452   -14882000.14949 -11058441.30546  22803992.055    22803999.500
  22811042.394   -16161875.62649 -12287243.71046  22811042.014    22811048.816
  23291688.305    -9403635.15649  -7308085.95546  23291687.511    23291697.553
  22494606.556   -17241537.94249 -13417595.16246  22494605.999    22494613.475
  20984082.522   -25654011.77849 -19696751.51247  20984081.773    20984087.416
 03  6 11  0 46  0.0000000  0  6G25G16G11G 2G 1G20
  21560888.708   -20094397.06049 -15638405.87247  21560888.438    21560893.760
  22788617.089   -14962798.06849 -11121400.62446  22788616.619    22788624.038
  22825170.184   -16087633.68949 -12229392.94246  22825169.853    22825176.703
  23275849.108    -9486870.10249  -7372944.21346  23275848.316    23275858.325
  22483594.799   -17299404.70549 -13462686.09946  22483594.252    22483601.758
  20973247.622   -25710949.55449 -19741118.59447  20973246.883    20973252.499
 03  6 11  0 46 30.0000000  0  6G25G16G11G 2G 1G20
  21572976.431   -20030875.77149 -15588908.78747  21572976.159    21572981.477
  22773292.502   -15043329.41149 -11184152.23746  22773291.998    22773299.320
  22839346.575   -16013136.70249 -12171343.43946  22839346.189    22839353.071
  23260037.485    -9569959.99349  -7437689.44545  23260036.731    23260046.738
  22472604.563   -17357158.33049 -13507688.86846  22472604.020    22472611.531
  20962485.364   -25767505.58249 -19785188.21347  20962484.644    20962490.234
 03  6 11  0 47  0.0000000  0  6G25G16G11G 2G 1G20
  21585117.225   -19967075.64049 -15539194.41247  21585116.965    21585122.294
  22758019.002   -15123592.04349 -11246694.46846  22758018.462    22758025.752
  22853570.892   -15938387.99249 -12113097.78846  22853570.503    22853577.376
  23244253.873    -9652902.73249  -7502320.00546  23244253.168    23244263.141
  22461635.852   -17414799.21649 -13552603.79246  22461635.284    22461642.738
  20951796.138   -25823677.75649 -19828958.72347  20951795.384    20951800.978
 03  6 11  0 47 30.0000000  0  6G25G16G11G 2G 1G20
  21597310.560   -19902999.21349 -15489264.74647  21597310.293    21597315.621
  22742797.160   -15203583.04149 -11309025.04546  22742796.639    22742803.915
  22867842.426   -15863390.68649 -12054658.43246  22867842.072    22867848.955
  23228498.776    -9735696.08949  -7566834.16546  23228498.016    23228507.967
  22450688.544   -17472327.81649 -13597431.22446  22450687.962    22450695.343
  20941180.309   -25879464.41849 -19872428.83747  20941179.553    20941185.132
 03  6 11  0 48  0.0000000  0  6G25G16G11G 2G 1G20
  21609556.129   -19838648.37349 -15439121.24647  21609555.866    21609561.206
  22727627.645   -15283299.14649 -11371141.42446  22727627.141    22727634.399
  22882160.829   -15788147.34849 -11996027.35446  22882160.460    22882167.370
  23212772.633    -9818337.17249  -7631229.67846  23212771.823    23212781.715
  22439762.567   -17529743.97449 -13642171.02746  22439761.986    22439769.305
  20930638.252   -25934863.07149 -19915596.60247  20930637.501    20930643.083
 03  6 11  0 48 30.0000000  0  6G25G16G11G 2G 1G20
  21621853.572   -19774024.98849 -15388765.38147  21621853.282    21621858.661
  22712511.077   -15362737.29849 -11433041.19846  22712510.537    22712517.751
  22896525.492   -15712660.77549 -11937206.73946  22896525.135    22896532.129
  23197075.805    -9900823.79149  -7695505.03246  23197075.099    23197084.883
  22428858.037   -17587047.42149 -13686823.01146  22428857.445    22428864.789
  20920170.536   -25989871.31349 -19958460.15547  20920169.798    20920175.346
 03  6 11  0 49  0.0000000  0  6G25G16G11G 2G 1G20
  21634202.458   -19709131.02549 -15338198.67247  21634202.174    21634207.588
  22697448.008   -15441894.07549 -11494721.71046  22697447.434    22697454.659
  22910936.018   -15636933.32749 -11878198.43246  22910935.679    22910942.649
  23181409.144    -9983152.24449  -7759657.01545  23181408.445    23181418.178
  22417974.915   -17644238.17449 -13731387.18046  22417974.340    22417981.698
  20909777.625   -26044486.54849 -20001017.46847  20909776.853    20909782.397
 03  6 11  0 49 30.0000000  0  6G25G16G11G 2G 1G20
  21646602.460   -19643968.42849 -15287422.64047  21646602.219    21646607.619
  22682438.931   -15520766.84549 -11556180.92946  22682438.414    22682445.588
  22925391.827   -15560968.28149 -11819004.99746  22925391.443    22925398.430
  23165773.092   -10065319.75049  -7823683.31445  23165772.320    23165782.137
  22407113.261   -17701316.37749 -13775863.65846  22407112.688    22407120.047
  20899459.823   -26098706.77449 -20043266.98647  20899459.066    20899464.604
 03  6 11  0 50  0.0000000  0  6G25G16G11G 2G 1G20
  21659053.110   -19578539.81949 -15236439.32047  21659052.870    21659058.280
  22667484.414   -15599352.67149 -11617416.54346  22667483.948    22667491.098
  22939892.241   -15484768.47449 -11759628.63146  22939891.823    22939898.867
  23150167.923   -10147325.02249  -7887583.32645  23150167.153    23150176.916
  22396273.004   -17758282.24949 -13820252.59346  22396272.403    22396279.719
  20889217.559   -26152530.03849 -20085207.18047  20889216.806    20889222.354
 03  6 11  0 50 30.0000000  0  6G25G16G11G 2G 1G20
  21671554.006   -19512847.30449 -15185250.36647  21671553.755    21671559.172
  22652585.214   -15677648.39049 -11678426.10546  22652584.772    22652591.862
  22954436.768   -15408336.88349 -11700071.64146  22954436.374    22954443.435
  23134594.177   -10229165.10249  -7951354.66846  23134593.404    23134603.127
  22385454.070   -17815135.86649 -13864554.05946  22385453.483    22385460.763
  20879051.304   -26205954.00349 -20126836.23447  20879050.564    20879056.088
 03  6 11  0 51  0.0000000  0  6G25G16G11G 2G 1G20
  21684104.883   -19446892.30449 -15133856.87547  21684104.607    21684110.011
  22637741.843   -15755650.75149 -11739207.07346  22637741.348    22637748.466
  22969024.961   -15331676.07149 -11640336.04746  22969024.545    22969031.605
  23119052.426   -10310836.85049  -8014994.86046  23119051.664    23119061.365
  22374656.594   -17871876.74449 -13908767.67746  22374656.018    22374663.252
  20868961.513   -26258976.17449 -20168152.20947  20868960.769    20868966.286
 03  6 11  0 51 30.0000000  0  6G25G16G11G 2G 1G20
  21696705.181   -19380677.23949 -15082260.73647  21696704.914    21696710.309
  22622954.690   -15833356.96249 -11799757.27346  22622954.205    22622961.403
  22983656.128   -15254789.38649 -11580424.45746  22983655.676    22983662.783
  23103543.138   -10392338.07849  -8078502.19046  23103542.371    23103552.069
  22363880.516   -17928505.12049 -13952893.63246  22363879.948    22363887.154
  20858948.572   -26311594.57949 -20209153.55147  20858947.831    20858953.347
 03  6 11  0 52  0.0000000  0  6G25G16G11G 2G 1G20
  21709354.494   -19314204.81049 -15030464.05447  21709354.247    21709359.601
  22608224.332   -15910764.69949 -11860074.89546  22608223.862    22608231.166
  22998329.666   -15177679.66549 -11520339.05846  22998329.228    22998336.393
  23088066.606   -10473666.82049  -8141875.13946  23088065.835    23088075.553
  22353125.792   -17985021.53049 -13996932.34546  22353125.234    22353132.399
  20849012.762   -26363807.52149 -20249838.94847  20849012.009    20849017.570
 03  6 11  0 52 30.0000000  0  6G25G16G11G 2G 1G20
  21722052.441   -19247476.88849 -14978468.28447  21722052.196    21722057.530
  22593551.364   -15987871.20749 -11920157.79546  22593550.891    22593558.207
  23013044.926   -15100350.27949 -11460082.50346  23013044.560    23013051.788
  23072623.481   -10554820.30449  -8205111.49446  23072622.706    23072632.497
  22342392.315   -18041426.19849 -14040883.98446  22342391.764    22342398.895
  20839154.450   -26415613.04749 -20290206.87947  20839153.704    20839159.268
 03  6 11  0 53  0.0000000  0  6G25G16G11G 2G 1G20
  21734798.619   -19180495.26949 -14926274.83547  21734798.362    21734803.720
  22578936.495   -16064672.73449 -11980003.05046  22578935.988    22578943.260
  23027801.619   -15022803.59649 -11399656.61046  23027801.265    23027808.556
  23057214.298   -10635795.69649  -8268209.05546  23057213.513    23057223.257
  22331680.181   -18097718.67549 -14084748.20446  22331679.630    22331686.747
  20829374.251   -26467008.34549 -20330255.15247  20829373.505    20829379.061
 03  6 11  0 53 30.0000000  0  6G25G16G11G 2G 1G20
  21747592.749   -19113261.62549 -14873884.99847  21747592.495    21747597.867
  22564380.256   -16141165.97249 -12039608.08046  22564379.765    22564386.951
  23042599.285   -14945041.78949 -11339063.10446  23042598.920    23042606.277
  23041839.578   -10716589.73749  -8331165.28246  23041838.837    23041848.496
  22320989.505   -18153898.36649 -14128524.53946  22320988.911    22320996.025
  20819672.657   -26517990.60849 -20369981.57747  20819671.901    20819677.458
 03  6 11  0 54  0.0000000  0  6G25G16G11G 2G 1G20
  21760434.392   -19045778.44049 -14821300.71447  21760434.145    21760439.511
  22549883.163   -16217348.31549 -12098970.85546  22549882.651    22549889.786
  23057437.198   -14867068.38049 -11278304.70746  23057436.828    23057444.264
  23026499.843   -10797200.23749  -8393978.51146  23026499.057    23026508.684
  22310320.134   -18209965.91549 -14172213.49246  22310319.547    22310326.665
  20810049.941   -26568558.19649 -20409384.87747  20810049.203    20810054.775
 03  6 11  0 54 30.0000000  0  6G25G16G11G 2G 1G20
  21773323.181   -18978047.38949 -14768523.28847  21773322.922    21773328.342
  22535445.819   -16293216.70749 -12158088.98246  22535445.326    22535452.384
  23072314.872   -14788886.12149 -11217383.57746  23072314.509    23072321.978
  23011195.437   -10877624.67949  -8456646.78946  23011194.672    23011204.268
  22299672.142   -18265921.28049 -14215815.02146  22299671.569    22299678.669
  20800506.513   -26618709.11849 -20448463.49747  20800505.790    20800511.325
 03  6 11  0 55  0.0000000  0  6G25G16G11G 2G 1G20
  21786258.638   -18910071.15849 -14715554.81647  21786258.367    21786263.798
  22521068.667   -16368768.79549 -12216960.64546  22521068.189    22521075.186
  23087231.603   -14710498.56149 -11156302.45146  23087231.242    23087238.717
  22995926.864   -10957860.89749  -8519168.38346  22995926.072    22995935.656
  22289045.465   -18321764.89849 -14259329.48346  22289044.866    22289051.968
  20791042.767   -26668441.46249 -20487215.95047  20791042.031    20791047.556
 03  6 11  0 55 30.0000000  0  6G25G16G11G 2G 1G20
  21799240.602   -18841850.64349 -14662395.98647  21799240.320    21799245.745
  22506752.535   -16444000.12549 -12275582.37946  22506752.040    22506758.967
  23102187.187   -14631906.93249 -11095062.32146  23102186.829    23102194.250
  22980694.917   -11037904.77049  -8581540.11046  22980694.127    22980703.671
  22278440.288   -18377495.29349 -14302755.71446  22278439.677    22278446.750
  20781659.387   -26717751.42149 -20525639.27047  20781658.657    20781664.156
 03  6 11  0 56  0.0000000  0  6G25G16G11G 2G 1G20
  21812268.539   -18773388.37649 -14609048.78447  21812268.251    21812273.720
  22492497.918   -16518908.23949 -12333952.26946  22492497.429    22492504.300
  23117180.930   -14553114.68149 -11033665.87646  23117180.549    23117188.026
  22965499.924   -11117754.44249  -8643760.51446  22965499.116    22965508.650
  22267856.527   -18433113.06949 -14346094.19646  22267855.924    22267863.022
  20772356.656   -26766637.71349 -20563732.46347  20772355.917    20772361.417
 03  6 11  0 56 30.0000000  0  6G25G16G11G 2G 1G20
  21825342.016   -18704686.72449 -14555515.05147  21825341.760    21825347.257
  22478305.238   -16593490.86849 -12392068.52746  22478304.783    22478311.561
  23132212.267   -14474125.14849 -10972115.69746  23132211.833    23132219.254
  22950342.268   -11197407.96149  -8705828.06846  22950341.459    22950350.958
  22257294.081   -18488618.67349 -14389345.27146  22257293.516    22257300.596
  20763134.762   -26815098.80349 -20601494.34147  20763134.021    20763139.547
 03  6 11  0 57  0.0000000  0  6G25G16G11G 2G 1G20
  21838460.717   -18635747.44849 -14501796.15747  21838460.448    21838465.996
  22464175.090   -16667745.19749 -12449928.96446  22464174.626    22464181.297
  23147280.568   -14394941.25749 -10910414.07346  23147280.091    23147287.575
  22935222.428   -11276862.57349  -8767740.65146  22935221.667    22935231.129
  22246753.058   -18544012.15349 -14432508.97546  22246752.454    22246759.551
  20753994.251   -26863132.38749 -20638923.11247  20753993.529    20753999.049
 03  6 11  0 57 30.0000000  0  6G25G16G11G 2G 1G20
  21851624.060   -18566573.51249 -14447894.40647  21851623.816    21851629.390
  22450107.899   -16741668.64449 -12507531.55746  22450107.434    22450113.998
  23162385.160   -14315566.48649 -10848563.71346  23162384.684    23162392.187
  22920140.837   -11356116.47749  -8829496.83446  22920140.097    22920149.524
  22236233.180   -18599294.06649 -14475585.74546  22236232.587    22236239.661
  20744935.415   -26910736.92149 -20676017.55747  20744934.691    20744940.212
 03  6 11  0 58  0.0000000  0  6G25G16G11G 2G 1G20
  21864831.954   -18497165.66449 -14393810.39147  21864831.692    21864837.314
  22436104.430   -16815257.27349 -12564873.26646  22436103.929    22436110.451
  23177525.758   -14236002.77749 -10786566.13046  23177525.233    23177532.724
  22905098.222   -11435165.72749  -8891093.57546  22905097.481    22905106.876
  22225734.830   -18654463.08949 -14518574.54946  22225734.264    22225741.290
  20735958.835   -26957909.09149 -20712775.09047  20735958.085    20735963.641
 03  6 11  0 58 30.0000000  0  6G25G16G11G 2G 1G20
  21878083.772   -18427527.07749 -14339546.58047  21878083.498    21878089.138
  22422164.973   -16888509.21149 -12621952.61646  22422164.479    22422170.997
  23192701.480   -14156253.96349 -10724424.31546  23192701.067    23192708.497
  22890094.810   -11514008.75149  -8952529.58546  22890094.068    22890103.422
  22215257.778   -18709520.29749 -14561476.21846  22215257.217    22215264.237
  20727064.730   -27004647.71949 -20749194.77047  20727064.012    20727069.593
 03  6 11  0 59  0.0000000  0  6G25G16G11G 2G 1G20
  21891379.258   -18357658.87949 -14285103.84947  21891378.994    21891384.639
  22408290.318   -16961420.30449 -12678766.37646  22408289.844    22408296.370
  23207912.163   -14076321.55749 -10662139.42646  23207911.747    23207919.229
  22875131.405   -11592641.85149  -9013802.01146  22875130.626    22875139.975
  22204802.246   -18764464.55149 -14604289.87547  22204801.646    22204808.661
  20718253.738   -27050949.68549 -20785274.14848  20718253.002    20718258.583
 03  6 11  0 59 30.0000000  0  6G25G16G11G 2G 1G20
  21904717.899   -18287563.94449 -14230484.44347  21904717.629    21904723.275
  22394481.002   -17033988.44849 -12735312.90546  22394480.534    22394487.065
  23223157.081   -13996209.42249 -10599714.50546  23223156.672    23223164.154
  22860208.165   -11671063.41849  -9074909.59746  22860207.378    22860216.784
  22194368.022   -18819296.53549 -14647016.05247  22194367.419    22194374.448
  20709526.099   -27096813.68849 -20821012.31648  20709525.364    20709530.944
 03  6 11  1  0  0.0000000  0  6G25G16G11G 2G 1G20
  21918099.484   -18217243.24249 -14175689.11547  21918099.206    21918104.835
  22380737.616   -17106210.16949 -12791589.49046  22380737.128    22380743.643
  23238435.795   -13915919.52449 -10537151.06046  23238435.406    23238442.902
  22845325.834   -11749269.95949  -9135849.63846  22845325.071    22845334.454
  22183955.281   -18874015.49649 -14689654.14947  22183954.688    22183961.759
  20700882.356   -27142236.78949 -20856406.93348  20700881.608    20700887.176
 03  6 11  1  0 30.0000000  0  6G25G16G11G 2G 1G20
  21931523.543   -18146699.52749 -14120720.01447  21931523.272    21931528.885
  22367060.581   -17178083.29449 -12847594.44246  22367060.087    22367066.579
  23253747.576   -13835455.77549 -10474452.15546  23253747.206    23253754.786
  22830484.762   -11827259.87849  -9196620.88146  22830484.016    22830493.357
  22173563.931   -18928622.18549 -14732204.76947  22173563.362    22173570.449
  20692322.690   -27187217.98949 -20891457.21048  20692321.944    20692327.487
 03  6 11  1  1  0.0000000  0  6G25G16G11G 2G 1G20
  21944989.696   -18075934.39249 -14065578.37247  21944989.430    21944995.048
  22353450.498   -17249604.49749 -12903325.17446  22353449.989    22353456.502
  23269091.980   -13754820.68949 -10411619.73346  23269091.653    23269099.244
  22815685.548   -11905030.12049  -9257220.94046  22815684.780    22815694.053
  22163194.061   -18983115.98949 -14774667.42347  22163193.510    22163200.574
  20683847.685   -27231754.42149 -20926160.90848  20683846.941    20683852.473
 03  6 11  1  1 30.0000000  0  6G25G16G11G 2G 1G20
  21958497.607   -18004950.14249 -14010265.99847  21958497.338    21958502.922
  22339907.835   -17320771.20949 -12958779.69546  22339907.344    22339913.870
  23284468.493   -13674017.18149 -10348656.09245  23284468.127    23284475.717
  22800928.470   -11982578.47749  -9317648.10346  22800927.696    22800936.941
  22152845.658   -19037497.17849 -14817042.32147  22152845.045    22152852.132
  20675457.648   -27275844.53549 -20960516.83348  20675456.899    20675462.397
 03  6 11  1  2  0.0000000  0  6G25G16G11G 2G 1G20
  21972046.790   -17933748.63149 -13954784.32247  21972046.549    21972052.116
  22326433.313   -17391580.17549 -13013955.44046  22326432.792    22326439.263
  23299876.535   -13593047.89449 -10285563.24945  23299876.211    23299883.801
  22786214.153   -12059902.10349  -9377900.17146  22786213.373    22786222.636
  22142518.720   -19091765.32749 -14859329.14147  22142518.134    22142525.199
  20667153.038   -27319485.65649 -20994522.88548  20667152.278    20667157.749
 03  6 11  1  2 30.0000000  0  6G25G16G11G 2G 1G20
  21985636.906   -17862331.95149 -13899134.98447  21985636.670    21985642.252
  22313027.337   -17462028.79549 -13068850.39746  22313026.803    22313033.313
  23315315.477   -13511916.08949 -10222343.77545  23315315.153    23315322.804
  22771542.985   -12136998.86349  -9437975.45046  22771542.209    22771551.472
  22132213.249   -19145920.73649 -14901528.10847  22132212.658    22132219.719
  20658934.069   -27362676.38949 -21028177.98448  20658933.318    20658938.788
 03  6 11  1  3  0.0000000  0  6G25G16G11G 2G 1G20
  21999267.619   -17790702.15349 -13843319.58747  21999267.394    21999272.989
  22299690.367   -17532114.65249 -13123462.69546  22299689.866    22299696.367
  23330784.843   -13430624.72549 -10158999.98245  23330784.504    23330792.205
  22756915.477   -12213866.49549  -9497872.20246  22756914.676    22756923.910
  22121929.181   -19199963.59549 -14943639.37447  22121928.568    22121935.669
  20650801.214   -27405414.73949 -21061480.58148  20650800.468    20650805.934
 03  6 11  1  3 30.0000000  0  6G25G16G11G 2G 1G20
  22012938.615   -17718860.66749 -13787339.23447  22012938.370    22012943.991
  22286423.111   -17601834.11649 -13177789.48346  22286422.631    22286429.115
  23346284.190   -13349175.79349 -10095533.39545  23346283.784    23346291.546
  22742332.254   -12290501.40349  -9557587.60946  22742331.472    22742340.605
  22111666.631   -19253892.97349 -14985662.22247  22111666.062    22111673.192
  20642755.048   -27447697.62449 -21094428.26948  20642754.309    20642759.778
 03  6 11  1  4  0.0000000  0  6G25G16G11G 2G 1G20
  22026649.122   -17646811.58249 -13731197.11647  22026648.878    22026654.509
  22273225.780   -17671186.18949 -13231830.00346  22273225.317    22273231.790
  23361812.492   -13267574.44649 -10031948.05345  23361812.094    23361819.780
  22727793.382   -12366903.30849  -9617121.47246  22727792.597    22727801.639
  22101425.456   -19307710.88149 -15027598.21147  22101424.882    22101431.981
  20634795.484   -27489525.32349 -21127021.27148  20634794.729    20634800.201
 03  6 11  1  4 30.0000000  0  6G25G16G11G 2G 1G20
  22040399.286   -17574554.23549 -13674892.71447  22040399.039    22040404.666
  22260099.367   -17740165.81349 -13285580.29946  22260098.914    22260105.406
  23377369.759   -13185821.17049  -9968244.32845  23377369.344    23377377.004
  22713299.850   -12443067.19049  -9676469.85746  22713299.050    22713308.026
  22091205.950   -19361414.64549 -15069445.26347  22091205.347    22091212.407
  20626923.414   -27530893.30049 -21159256.05148  20626922.679    20626928.152
 03  6 11  1  5  0.0000000  0  6G25G16G11G 2G 1G20
  22054188.438   -17502091.75049 -13618428.46847  22054188.183    22054193.830
  22247044.151   -17808771.14949 -13339038.93946  22247043.702    22247050.174
  23392955.259   -13103919.58049  -9904425.02345  23392954.824    23392962.579
  22698851.877   -12518991.53549  -9735631.60246  22698851.082    22698859.967
  22081007.914   -19415005.29249 -15111204.16747  22081007.357    22081014.375
  20619138.991   -27571800.68849 -21191131.92348  20619138.258    20619143.719
 03  6 11  1  5 30.0000000  0  6G25G16G11G 2G 1G20
  22068016.329   -17429425.85749 -13561805.72347  22068016.060    22068021.734
  22234060.660   -17876999.41049 -13392203.75146  22234060.241    22234066.698
  23408568.409   -13021872.71049  -9840492.52245  23408567.956    23408575.723
  22684449.936   -12594673.86149  -9794604.74946  22684449.163    22684457.970
  22070831.478   -19468482.80749 -15152874.92847  22070830.932    22070837.890
  20611442.586   -27612245.55849 -21222647.39448  20611441.846    20611447.302
 03  6 11  1  6  0.0000000  0  6G25G16G11G 2G 1G20
  22081882.345   -17356559.35549 -13505026.65047  22081882.101    22081887.787
  22221149.427   -17944848.08949 -13445072.79346  22221149.009    22221155.429
  23424208.605   -12939683.52449  -9776449.12045  23424208.167    23424215.912
  22670094.484   -12670111.78449  -9853387.45746  22670093.711    22670102.510
  22060676.564   -19521847.05549 -15194457.42247  22060676.002    22060682.948
  20603834.555   -27652226.01049 -21253800.98048  20603833.823    20603839.242
 03  6 11  1  6 30.0000000  0  7G25G16G11G 2G13G 1G20
  22095785.465   -17283498.27249 -13448095.95947  22095785.196    22095790.906
  22208310.203   -18012318.55949 -13497647.11546  22208309.757    22208316.177
  23439874.471   -12857359.28649  -9712300.49245  23439874.033    23439881.815
  22655785.249   -12745307.06449  -9911981.08446  22655784.487    22655793.191
  24645335.681    -7685290.25249  -5736086.38045  24645335.410    24645344.315
  22050542.428   -19575102.11249 -15235954.84147  22050541.878    22050548.842
  20596314.511   -27691744.12649 -21284594.30348  20596313.779    20596319.192
 03  6 11  1  7  0.0000000  0  7G25G16G11G 2G13G 1G20
  22109725.943   -17210240.46349 -13391011.98147  22109725.675    22109731.412
  22195544.108   -18079404.68549 -13549921.95946  22195543.635    22195550.093
  23455566.096   -12774899.46449  -9648046.21145  23455565.690    23455573.440
  22641523.333   -12820253.80549  -9970381.04946  22641522.550    22641531.183
  24630466.872    -7763425.56949  -5796970.89945  24630466.683    24630475.587
  22040429.792   -19628244.47349 -15277364.44047  22040429.218    22040436.177
  20588883.465   -27730794.62249 -21315023.24948  20588882.723    20588888.119
 03  6 11  1  7 30.0000000  0  7G25G16G11G 2G13G 1G20
  22123704.138   -17136784.58849 -13333773.66347  22123703.888    22123709.646
  22182852.387   -18146099.87149 -13601892.17846  22182851.931    22182858.352
  23471283.717   -12692303.23349  -9583685.63245  23471283.358    23471291.045
  22627309.891   -12894945.82649 -10028582.54046  22627309.110    22627317.674
  24615603.113    -7841534.55749  -5857834.89945  24615603.032    24615611.797
  22030339.280   -19681270.40349 -15318683.31447  22030338.694    22030345.652
  20581542.477   -27769371.75149 -21345083.34048  20581541.725    20581547.115
 03  6 11  1  8  0.0000000  0  7G25G16G11G 2G13G 1G20
  22137719.466   -17063133.68849 -13276383.37547  22137719.226    22137724.994
  22170235.305   -18212402.71349 -13653556.67246  22170234.846    22170241.286
  23487026.576   -12609574.45249  -9519221.76945  23487026.180    23487033.909
  22613145.089   -12969381.86049 -10086584.56946  22613144.316    22613152.821
  24600744.105    -7919618.59149  -5918679.45645  24600744.120    24600753.008
  22020270.658   -19734180.97949 -15359912.31047  22020270.114    22020277.085
  20574291.719   -27807474.76049 -21374773.98148  20574290.955    20574296.340
 03  6 11  1  8 30.0000000  0  7G25G16G11G 2G13G 1G20
  22151771.339   -16989290.57049 -13218843.30447  22151771.128    22151776.879
  22157693.250   -18278311.22549 -13704913.90146  22157692.779    22157699.263
  23502793.949   -12526716.81049  -9454657.50645  23502793.574    23502801.367
  22599029.307   -13043560.29249 -10144385.86346  22599028.528    22599037.033
  24585889.618    -7997678.58849  -5979505.29745  24585889.623    24585898.563
  22010223.913   -19786976.94149 -15401051.98747  22010223.330    22010230.294
  20567131.323   -27845102.77449 -21404094.49548  20567130.572    20567135.955
 03  6 11  1  9  0.0000000  0  7G25G16G11G 2G13G 1G20
  22165859.383   -16915257.46249 -13161155.20247  22165859.165    22165864.939
  22145226.815   -18343822.61049 -13755961.68846  22145226.349    22145232.818
  23518585.198   -12443733.50949  -9389995.32645  23518584.832    23518592.662
  22584963.033   -13117478.65349 -10201984.49046  22584962.256    22584970.740
  24571039.846    -8075714.28849  -6040312.20545  24571039.853    24571048.772
  22000199.007   -19839658.07149 -15442102.18547  22000198.410    22000205.365
  20560061.655   -27882253.99349 -21433043.48648  20560060.906    20560066.300
 03  6 11  1  9 30.0000000  0  7G25G16G11G 2G13G 1G20
  22179983.088   -16841037.08349 -13103321.16147  22179982.857    22179988.648
  22132836.183   -18408935.58249 -13806699.01546  22132835.697    22132842.175
  23534399.598   -12360628.29149  -9325238.12645  23534399.294    23534407.238
  22570946.561   -13191135.50449 -10259379.33446  22570945.779    22570954.223
  24556194.516    -8153726.61349  -6101100.88345  24556194.530    24556203.320
  21990195.752   -19892225.29449 -15483063.61947  21990195.185    21990202.137
  20553082.917   -27918927.61249 -21461620.32248  20553082.167    20553087.531
 03  6 11  1 10  0.0000000  0  7G25G16G11G 2G13G 1G20
  22194142.151   -16766630.97849 -13045342.40247  22194141.925    22194147.662
  22120521.982   -18473646.89049 -13857123.36547  22120521.511    22120527.959
  23550236.843   -12277403.34249  -9260387.64245  23550236.480    23550244.524
  22556980.377   -13264528.01049 -10316568.19146  22556979.618    22556987.991
  24541353.641    -8231715.31949  -6161871.16545  24541353.755    24541362.438
  21980214.383   -19944677.96649 -15523935.79747  21980213.815    21980220.696
  20546195.560   -27955120.84849 -21489822.83548  20546194.805    20546200.154
 03  6 11  1 10 30.0000000  0  7G25G16G11G 2G13G 1G20
  22208336.111   -16692041.30749 -12987220.60747  22208335.849    22208341.596
  22108284.750   -18537953.90149 -13907232.66947  22108284.283    22108290.667
  23566096.273   -12194062.14749  -9195446.58445  23566095.890    23566104.059
  22543064.992   -13337653.71549 -10373549.14546  22543064.232    22543072.521
  24526517.238    -8309680.37749  -6222623.02645  24526517.326    24526526.091
  21970254.773   -19997016.08649 -15564718.70547  21970254.189    21970261.037
  20539399.934   -27990832.07149 -21517649.75048  20539399.180    20539404.527
 03  6 11  1 11  0.0000000  0  7G25G16G11G 2G13G 1G20
  22222564.671   -16617269.86049 -12928957.16647  22222564.429    22222570.167
  22096125.026   -18601853.87149 -13957024.80347  22096124.521    22096130.870
  23581977.389   -12110606.99249  -9130416.71845  23581976.976    23581985.095
  22529200.814   -13410510.17349 -10430320.30746  22529200.010    22529208.265
  24511685.459    -8387621.67849  -6283356.36645  24511685.374    24511694.078
  21960316.958   -20049239.34049 -15605412.11047  21960316.410    21960323.226
  20532696.409   -28026059.31749 -21545099.54348  20532695.641    20532700.991
 03  6 11  1 11 30.0000000  0  7G25G16G11G 2G13G 1G20
  22236827.480   -16542318.41549 -12870553.47647  22236827.195    22236832.953
  22084043.225   -18665344.10149 -14006497.66347  22084042.695    22084049.012
  23597879.569   -12027041.08449  -9065300.55045  23597879.168    23597887.220
  22515388.230   -13483095.09349 -10486879.87446  22515387.422    22515395.739
  24496858.126    -8465539.10749  -6344071.10445  24496858.079    24496866.614
  21950401.006   -20101347.82349 -15646016.07747  21950400.434    21950407.275
  20526085.290   -28060800.95049 -21572170.93748  20526084.527    20526089.878
 03  6 11  1 12  0.0000000  0  7G25G16G11G 2G13G 1G20
  22251124.103   -16467189.27649 -12812011.31747  22251123.817    22251129.563
  22072039.795   -18728422.15949 -14055649.34547  22072039.275    22072045.640
  23613802.231   -11943367.23149  -9000100.27045  23613801.885    23613809.931
  22501627.794   -13555406.16349 -10543226.05946  22501626.978    22501635.343
  24482035.291    -8543432.72449  -6404767.28645  24482035.180    24482043.670
  21940506.857   -20153341.46949 -15686530.55947  21940506.284    21940513.166
  20519566.916   -28095055.23449 -21598862.57948  20519566.150    20519571.507
 03  6 11  1 12 30.0000000  0  7G25G16G11G 2G13G 1G20
  22265454.270   -16391884.03649 -12753331.93547  22265453.987    22265459.695
  22060115.351   -18791085.19649 -14104477.63647  22060114.850    22060121.207
  23629744.936   -11859588.17249  -8934818.01545  23629744.568    23629752.773
  22487919.960   -13627440.61349 -10599356.70446  22487919.148    22487927.569
  24467217.069    -8621302.25249  -6465444.68445  24467217.098    24467225.521
  21930634.697   -20205219.62049 -15726955.05547  21930634.138    21930641.036
  20513141.658   -28128820.07149 -21625172.83448  20513140.898    20513146.256
 03  6 11  1 13  0.0000000  0  7G25G16G11G 2G13G 1G20
  22279817.465   -16316405.02949 -12694517.15347  22279817.164    22279822.854
  22048270.321   -18853331.34149 -14152981.07647  22048269.811    22048276.161
  23645707.035   -11775707.31249  -8869456.45045  23645706.598    23645715.001
  22474265.168   -13699196.70349 -10655270.43646  22474264.351    22474272.752
  24452403.507    -8699147.97049  -6526103.54545  24452403.463    24452411.895
  21920784.475   -20256982.83249 -15767289.97247  21920783.917    21920790.780
  20506809.786   -28162094.24349 -21651100.75648  20506809.022    20506814.375
 03  6 11  1 13 30.0000000  0  7G25G16G11G 2G13G 1G20
  22294213.501   -16240753.65149 -12635568.05147  22294213.188    22294218.899
  22036505.214   -18915157.26049 -14201157.06647  22036504.705    22036511.037
  23661688.073   -11691727.19349  -8804017.53745  23661687.614    23661695.936
  22460663.812   -13770671.69049 -10710965.13646  22460662.997    22460671.404
  24437594.391    -8776969.58049  -6586743.61145  24437594.356    24437602.813
  21910956.206   -20308630.47749 -15807534.84247  21910955.641    21910962.481
  20500571.693   -28194875.41549 -21676644.52148  20500570.940    20500576.310
 03  6 11  1 14  0.0000000  0  7G25G16G11G 2G13G 1G20
  22308641.800   -16164932.42949 -12576486.60347  22308641.509    22308647.195
  22024820.436   -18976561.00749 -14249004.08247  22024819.944    22024826.225
  23677687.299   -11607651.20349  -8738503.92045  23677686.779    23677695.169
  22447116.338   -13841863.66249 -10766439.31346  22447115.535    22447123.962
  24422789.787    -8854767.57449  -6647365.27845  24422789.785    24422798.170
  21901149.860   -20360162.93449 -15847689.95147  21901149.310    21901156.150
  20494427.664   -28227162.48749 -21701803.26948  20494426.914    20494432.274
 03  6 11  1 14 30.0000000  0  7G25G16G11G 2G13G 1G20
  22323102.209   -16088942.64849 -12517273.81447  22323101.908    22323107.620
  22013216.621   -19037539.36649 -14296519.63147  22013216.118    22013222.368
  23693704.416   -11523481.17949  -8672917.02245  23693703.930    23693712.279
  22433623.287   -13912769.41649 -10821690.48646  22433622.497    22433630.922
  24407989.892    -8932541.17849  -6707967.94045  24407989.961    24407998.235
  21891365.675   -20411579.17249 -15887754.50147  21891365.094    21891371.922
  20488378.176   -28258952.73249 -21726574.88648  20488377.441    20488382.810
 03  6 11  1 15  0.0000000  0  7G25G16G11G 2G13G 1G20
  22337594.302   -16012786.41249 -12457931.32147  22337593.975    22337599.685
  22001694.257   -19098089.82449 -14343701.74447  22001693.744    22001699.948
  23709738.683   -11439220.53849  -8607259.52545  23709738.289    23709746.595
  22420185.206   -13983386.83349 -10876716.97446  22420184.399    22420192.807
  24393194.544    -9010290.50549  -6768551.67945  24393194.573    24393202.961
  21881603.485   -20462879.36049 -15927728.62947  21881602.931    21881609.759
  20482423.497   -28290244.84149 -21750958.33948  20482422.744    20482428.100
 03  6 11  1 15 30.0000000  0  7G25G16G11G 2G13G 1G20
  22352117.691   -15936465.48349 -12398460.49347  22352117.411    22352123.109
  21990253.770   -19158209.89749 -14390548.50747  21990253.254    21990259.454
  23725789.814   -11354871.50449  -8541533.15645  23725789.437    23725797.839
  22406802.427   -14053713.45349 -10931516.84946  22406801.624    22406810.033
  24378403.853    -9088015.28149  -6829116.28845  24378403.872    24378412.218
  21871863.489   -20514063.12749 -15967612.03647  21871862.944    21871869.800
  20476563.961   -28321036.88149 -21774952.13548  20476563.220    20476568.571
 03  6 11  1 16  0.0000000  0  7G25G16G11G 2G13G 1G20
  22366671.982   -15859981.99549 -12338862.98747  22366671.736    22366677.472
  21978895.527   -19217897.47849 -14437058.25147  21978895.018    21978901.210
  23741857.124   -11270437.73849  -8475740.75245  23741856.754    23741865.291
  22393475.334   -14123747.19549 -10986088.50146  22393474.560    22393482.975
  24363617.841    -9165715.87949  -6889662.06345  24363617.829    24363626.095
  21862145.660   -20565130.57849 -16007404.80347  21862145.112    21862151.927
  20470799.821   -28351327.44649 -21798555.16748  20470799.081    20470804.458
 03  6 11  1 16 30.0000000  0  7G25G16G11G 2G13G 1G20
  22381257.004   -15783337.53449 -12279140.05446  22381256.748    22381262.473
  21967620.168   -19277149.79649 -14483228.83147  21967619.653    21967625.796
  23757939.999   -11185922.00749  -8409884.48445  23757939.720    23757948.252
  22380204.428   -14193485.70849 -11040430.10846  22380203.648    22380212.086
  24348836.496    -9243391.96649  -6950188.73045  24348836.352    24348844.735
  21852450.007   -20616081.47349 -16047106.75947  21852449.424    21852456.235
  20465131.488   -28381114.78549 -21821766.07648  20465130.745    20465136.106
 03  6 11  1 17  0.0000000  0  7G25G16G11G 2G13G 1G20
  22395872.185   -15706534.24549 -12219293.34946  22395871.900    22395877.667
  21956428.052   -19335964.56749 -14529058.46047  21956427.542    21956433.688
  23774038.047   -11101327.15849  -8343966.56245  23774037.716    23774046.234
  22366990.119   -14262926.97149 -11094540.09246  22366989.336    22366997.779
  24334059.838    -9321043.57349  -7010696.34145  24334059.661    24334067.927
  21842776.506   -20666915.84649 -16086717.91047  21842775.951    21842782.727
  20459559.170   -28410397.48649 -21844583.76148  20459558.413    20459563.798
 03  6 11  1 17 30.0000000  0  7G25G16G11G 2G13G 1G20
  22410517.319   -15629573.61249 -12159324.05846  22410517.012    22410522.837
  21945319.727   -19394338.77349 -14574544.80347  21945319.232    21945325.369
  23790150.726   -11016655.46249  -8277988.76745  23790150.341    23790158.872
  22353832.991   -14332068.01749 -11148416.14246  22353832.194    22353840.574
  24319287.832    -9398670.34649  -7071184.59445  24319287.638    24319295.939
  21833125.364   -20717632.96149 -16126237.69847  21833124.782    21833131.524
  20454083.334   -28439173.18049 -21867006.37848  20454082.583    20454087.986
 03  6 11  1 18  0.0000000  0  7G25G16G11G 2G13G 1G20
  22425191.898   -15552458.12649 -12099234.09446  22425191.633    22425197.429
  21934295.628   -19452270.67549 -14619686.48747  21934295.133    21934301.224
  23806277.310   -10931910.38749  -8211953.80745  23806276.887    23806285.472
  22340733.311   -14400907.16349 -11202056.94946  22340732.513    22340740.855
  24304520.414    -9476272.73749  -7131653.86345  24304520.381    24304528.515
  21823496.438   -20768233.20749 -16165666.42047  21823495.858    21823502.613
  20448704.095   -28467441.13649 -21889033.34948  20448703.347    20448708.753
 03  6 11  1 18 30.0000000  0  7G25G16G11G 2G13G 1G20
  22439895.733   -15475188.95549 -12039024.36646  22439895.464    22439901.305
  21923356.238   -19509757.17349 -14664481.10547  21923355.717    21923361.793
  23822417.434   -10847094.39849  -8145863.57245  23822416.983    23822425.614
  22327691.593   -14469441.61749 -11255460.34546  22327690.772    22327699.090
  24289757.846    -9553850.05849  -7192103.59545  24289757.761    24289765.930
  21813889.869   -20818715.82749 -16205003.48447  21813889.319    21813896.055
  20443421.960   -28495198.94349 -21910662.80048  20443421.214    20443426.619
 03  6 11  1 19  0.0000000  0  7G25G16G11G 2G13G 1G20
  22454628.362   -15397768.45749 -11978696.72946  22454628.094    22454633.968
  21912501.938   -19566796.48849 -14708927.27147  21912501.431    21912507.504
  23838570.514   -10762210.39549  -8079720.33245  23838570.011    23838578.553
  22314708.179   -14537669.41949 -11308624.79046  22314707.390    22314715.684
  24274999.963    -9631402.50949  -7252533.94945  24274999.858    24275008.049
  21804305.730   -20869080.75949 -16244248.84947  21804305.174    21804311.872
  20438237.125   -28522445.34249 -21931893.75548  20438236.393    20438241.790
 03  6 11  1 19 30.0000000  0  7G25G16G11G 2G13G 1G20
  22469389.476   -15320198.24249 -11918252.43946  22469389.196    22469395.116
  21901733.317   -19623385.63449 -14753022.65947  21901732.816    21901738.872
  23854735.935   -10677261.22749  -8013526.33745  23854735.350    23854743.982
  22301783.652   -14605588.05749 -11361548.31646  22301782.867    22301791.104
  24260246.858    -9708929.86049  -7312944.75645  24260246.820    24260254.925
  21794744.026   -20919327.73549 -16283402.30947  21794743.453    21794750.139
  20433149.982   -28549178.49049 -21952724.77648  20433149.235    20433154.646
 03  6 11  1 20  0.0000000  0  7G25G16G11G 2G13G 1G20
  22484178.764   -15242480.14049 -11857692.91046  22484178.477    22484184.414
  21891050.787   -19679522.48749 -14796765.60747  21891050.281    21891056.349
  23870913.078   -10592250.17049  -7947284.11945  23870912.611    23870921.248
  22288918.394   -14673195.41849 -11414229.29146  22288917.574    22288925.791
  24245498.615    -9786432.05349  -7373335.97245  24245498.660    24245506.661
  21785204.811   -20969456.59749 -16322463.72747  21785204.227    21785210.883
  20428160.772   -28575396.87649 -21973154.68148  20428160.029    20428165.437
 03  6 11  1 20 30.0000000  0  7G25G16G11G 2G13G 1G20
  22498995.860   -15164615.89049 -11797019.49446  22498995.589    22499001.496
  21880454.830   -19735204.40249 -14840154.06147  21880454.307    21880460.394
  23887101.536   -10507179.45849  -7880995.39745  23887101.124    23887109.772
  22276112.810   -14740489.02049 -11466665.77546  22276111.989    22276120.181
  24230755.288    -9863908.86849  -7433707.40645  24230755.278    24230763.272
  21775688.131   -21019467.13649 -16361432.95347  21775687.525    21775694.151
  20423269.800   -28601098.97149 -21993182.28048  20423269.065    20423274.488
 03  6 11  1 21  0.0000000  0  7G25G16G11G 2G13G 1G20
  22513840.418   -15086607.36049 -11736233.65346  22513840.153    22513846.033
  21869945.851   -19790429.21749 -14883186.33047  21869945.332    21869951.400
  23903300.819   -10422051.89049  -7814662.37545  23903300.409    23903309.296
  22263367.364   -14807466.61949 -11518856.02647  22263366.532    22263374.682
  24216016.588    -9941360.19349  -7494058.97945  24216016.611    24216024.683
  21766194.014   -21069358.83449 -16400309.56847  21766193.438    21766200.068
  20418477.438   -28626282.93249 -22012806.14248  20418476.713    20418482.137
 03  6 11  1 21 30.0000000  0  7G25G16G11G 2G13G 1G20
  22528712.197   -15008455.90749 -11675336.45346  22528711.937    22528717.759
  21859524.260   -19845194.60549 -14925860.60647  21859523.747    21859529.817
  23919510.374   -10336870.26549  -7748287.21945  23919510.058    23919518.964
  22250682.461   -14874125.97249 -11570798.29147  22250681.644    22250689.763
  24201282.884   -10018785.91449  -7554390.61145  24201282.970    24201290.808
  21756722.567   -21119131.45349 -16439093.40647  21756721.995    21756728.641
  20413783.931   -28650947.42049 -22032025.22048  20413783.192    20413788.618
 03  6 11  1 22  0.0000000  0  7G25G16G11G 2G13G 1G20
  22543610.631   -14930164.38649 -11614330.10046  22543610.363    22543616.168
  21849190.540   -19899498.57549 -14968175.34147  21849190.041    21849196.066
  23935729.621   -10251637.99449  -7681872.61745  23935729.269    23935738.383
  22238058.435   -14940465.22449 -11622491.12547  22238057.623    22238065.741
  24186554.074   -10096186.19549  -7614702.39345  24186554.128    24186561.971
  21747273.707   -21168785.32249 -16477784.70847  21747273.136    21747279.803
  20409189.496   -28675091.31149 -22050838.63848  20409188.753    20409194.177
 03  6 11  1 22 30.0000000  0  7G25G16G11G 2G13G 1G20
  22558535.408   -14851734.12249 -11553215.65246  22558535.141    22558540.966
  21838945.225   -19953337.97449 -15010128.07047  21838944.723    21838950.703
  23951958.133   -10166357.31249  -7615420.29745  23951957.785    23951966.938
  22225495.872   -15006481.60149 -11673932.37947  22225495.060    22225503.179
  24171830.040   -10173560.44349  -7674993.90145  24171830.141    24171837.972
  21737847.593   -21218319.60849 -16516382.82647  21737847.022    21737853.708
  20404694.529   -28698712.54349 -22069244.79048  20404693.794    20404699.196
 03  6 11  1 23  0.0000000  0  7G25G16G11G 2G13G 1G20
  22573486.378   -14773166.38549 -11491994.06646  22573486.111    22573491.950
  21828788.728   -20006710.62349 -15051717.09647  21828788.224    21828794.158
  23968195.261   -10081030.57749  -7548932.07745  23968194.993    23968204.185
  22212995.149   -15072172.87249 -11725120.29747  22212994.344    22213002.498
  24157111.089   -10250908.47549  -7735264.98045  24157111.060    24157119.025
  21728444.338   -21267733.76249 -16554887.33347  21728443.791    21728450.466
  20400299.313   -28721809.49549 -22087242.40848  20400298.577    20400303.976
 03  6 11  1 23 30.0000000  0  7G25G16G11G 2G13G 1G20
  22588463.070   -14694463.56449 -11430667.23846  22588462.772    22588468.620
  21818721.360   -20059614.80349 -15092941.08947  21818720.834    21818726.804
  23984440.688    -9995661.32049  -7482410.73245  23984440.417    23984449.447
  22200556.617   -15137537.34349 -11776053.57747  22200555.815    22200563.968
  24142397.214   -10328230.69749  -7795515.93945  24142397.146    24142404.892
  21719063.924   -21317028.01649 -16593298.41747  21719063.375    21719070.024
  20396004.088   -28744381.19849 -22104830.74648  20396003.351    20396008.724
 03  6 11  1 24  0.0000000  0  7G25G16G11G 2G13G 1G20
  22603465.106   -14615627.43949 -11369236.52946  22603464.827    22603470.655
  21808743.561   -20112048.14449 -15133798.19347  21808743.051    21808749.029
  24000693.531    -9910252.60149  -7415858.64345  24000693.255    24000702.298
  22188180.792   -15202572.52249 -11826730.26747  22188179.983    22188188.093
  24127688.220   -10405526.76549  -7855746.51945  24127688.089    24127695.821
  21709706.414   -21366202.03049 -16631615.80747  21709705.854    21709712.473
  20391809.093   -28766426.13349 -22122008.61648  20391808.355    20391813.719
 03  6 11  1 24 30.0000000  0  7G25G16G11G 2G13G 1G20
  22618492.255   -14536659.36249 -11307702.99946  22618491.944    22618497.784
  21798855.854   -20164008.04949 -15174286.37547  21798855.376    21798861.339
  24016953.449    -9824806.74949  -7349277.62345  24016953.189    24016962.200
  22175868.093   -15267276.00949 -11877148.48447  22175867.277    22175875.347
  24112984.100   -10482796.30549  -7915956.41845  24112984.029    24112991.891
  21700371.852   -21415255.36849 -16669839.15447  21700371.286    21700377.904
  20387714.667   -28787942.44849 -22138774.57048  20387713.929    20387719.292
 03  6 11  1 25  0.0000000  0  7G25G16G11G 2G13G 1G20
  22633544.198   -14457560.70949 -11246067.71746  22633543.894    22633549.793
  21789058.771   -20215491.87049 -15214403.59347  21789058.299    21789064.245
  24033220.163    -9739325.72449  -7282669.17545  24033219.838    24033228.803
  22163618.997   -15331645.24449 -11927306.25447  22163618.187    22163626.206
  24098285.280   -10560038.59349  -7976145.08445  24098285.215    24098293.102
  21691060.402   -21464187.35349 -16707967.94747  21691059.822    21691066.455
  20383721.199   -28808928.38849 -22155127.24848  20383720.434    20383725.809
 03  6 11  1 25 30.0000000  0  7G25G16G11G 2G13G 1G20
  22648620.405   -14378334.52349 -11184333.06246  22648620.126    22648626.061
  21779352.446   -20266498.74149 -15254149.16247  21779351.968    21779357.928
  24049492.537    -9653813.94249  -7216036.76845  24049492.243    24049501.377
  22151433.640   -15395679.28349 -11977202.83147  22151432.812    22151440.804
  24083591.457   -10637254.63949  -8036313.28845  24083591.277    24083599.236
  21681771.931   -21512998.72249 -16746002.75047  21681771.352    21681777.976
  20379828.673   -28829383.65349 -22171066.41248  20379827.909    20379833.281
 03  6 11  1 26  0.0000000  0  7G25G16G11G 2G13G 1G20
  22663720.694   -14298981.92949 -11122499.91746  22663720.413    22663726.387
  21769737.453   -20317025.49349 -15293520.61847  21769736.975    21769742.948
  24065770.482    -9568273.33549  -7149381.89945  24065770.213    24065779.259
  22139312.648   -15459375.14149 -12026835.89847  22139311.814    22139319.796
  24068902.828   -10714443.89249  -8096460.62145  24068902.665    24068910.526
  21672506.517   -21561688.64349 -16783942.91947  21672505.917    21672512.526
  20376037.477   -28849306.40349 -22186590.63448  20376036.723    20376042.111
 03  6 11  1 26 30.0000000  0  7G25G16G11G 2G13G 1G20
  22678844.710   -14219504.66549 -11060569.61446  22678844.443    22678850.438
  21760214.248   -20367070.12849 -15332516.38447  21760213.797    21760219.703
  24082053.550    -9482706.68049  -7082706.75845  24082053.232    24082062.183
  22127256.380   -15522730.87349 -12076203.93247  22127255.590    22127263.487
  24054219.129   -10791606.24349  -8156586.99045  24054219.091    24054226.973
  21663264.349   -21610256.52849 -16821787.98947  21663263.745    21663270.348
  20372347.956   -28868694.99249 -22201698.62248  20372347.208    20372352.601
 03  6 11  1 27  0.0000000  0  7G25G16G11G 2G13G 1G20
  22693992.169   -14139904.40649 -10998543.47446  22693991.916    22693997.885
  21750783.196   -20416630.43149 -15371134.75747  21750782.737    21750788.686
  24098341.002    -9397116.57249  -7016013.32945  24098340.686    24098349.591
  22115265.275   -15585744.14549 -12125305.10847  22115264.471    22115272.357
  24039540.700   -10868741.14849  -8216691.97345  24039540.832    24039548.570
  21654045.479   -21658701.98049 -16859537.65747  21654044.887    21654051.460
  20368760.359   -28887548.03549 -22216389.30248  20368759.611    20368764.976
 03  6 11  1 27 30.0000000  0  7G25G16G11G 2G13G 1G20
  22709162.753   -14060182.67949 -10936422.69946  22709162.494    22709168.466
  21741444.741   -20465704.06249 -15409373.89747  21741444.282    21741450.237
  24114632.332    -9311505.98349  -6949303.94045  24114631.917    24114640.887
  22103339.802   -15648412.78449 -12174137.74947  22103338.997    22103346.826
  24024867.691   -10945848.49049  -8276775.47345  24024867.701    24024875.288
  21644849.901   -21707024.87149 -16897191.82047  21644849.303    21644855.855
  20365274.894   -28905864.25649 -22230661.68248  20365274.144    20365279.516
 03  6 11  1 28  0.0000000  0  7G25G16G11G 2G13G 1G20
  22724356.019   -13980341.99849 -10874209.21546  22724355.766    22724361.730
  21732199.152   -20514289.67549 -15447232.75947  21732198.662    21732204.647
  24130926.964    -9225878.13549  -6882581.10145  24130926.517    24130935.568
  22091480.102   -15710735.59849 -12222700.91347  22091479.307    22091487.103
  24010199.750   -11022928.76649  -8336837.88445  24010199.705    24010207.304
  21635677.602   -21755225.61449 -16934750.80447  21635677.003    21635683.541
  20361891.655   -28923643.17949 -22244515.38748  20361890.916    20361896.274
 03  6 11  1 28 30.0000000  0  7G25G16G11G 2G13G 1G20
  22739571.853   -13900382.59949 -10811903.23746  22739571.592    22739577.592
  21723047.098   -20562383.66449 -15484708.54147  21723046.628    21723052.634
  24147224.421    -9140234.40849  -6815845.89245  24147224.154    24147233.092
  22079686.909   -15772708.93749 -12270991.76547  22079686.111    22079693.909
  23995537.145   -11099980.21949  -8396877.83945  23995537.205    23995544.838
  21626528.878   -21803302.19949 -16972213.04447  21626528.286    21626534.811
  20358611.285   -28940881.78449 -22257948.06648  20358610.547    20358615.885
 03  6 11  1 29  0.0000000  0  7G25G16G11G 2G13G 1G20
  22754809.724   -13820307.42049 -10749507.04746  22754809.453    22754815.415
  21713988.733   -20609985.45149 -15521800.79547  21713988.279    21713994.230
  24163524.239    -9054578.94249  -6749101.53845  24163524.040    24163532.943
  22067960.393   -15834332.17749 -12319009.81347  22067959.599    22067967.336
  23980879.825   -11177004.37749  -8456896.52045  23980879.972    23980887.523
  21617403.604   -21851255.64249 -17009579.33147  21617403.013    21617409.529
  20355433.659   -28957580.34349 -22270959.93548  20355432.907    20355438.250
 03  6 11  1 29 30.0000000  0  7G25G16G11G 2G13G 1G20
  22770069.290   -13740118.29149 -10687022.05746  22770068.999    22770074.953
  21705024.540   -20657092.63949 -15558507.64247  21705024.084    21705029.999
  24179825.861    -8968914.60449  -6682350.27745  24179825.475    24179834.457
  22056300.908   -15895603.00149 -12366753.24347  22056300.091    22056307.820
  23966227.891   -11254001.00249  -8516893.75045  23966227.916    23966235.388
  21608301.809   -21899085.63249 -17046849.41247  21608301.224    21608307.754
  20352359.032   -28973737.54549 -22283549.95848  20352358.286    20352363.625
 03  6 11  1 30  0.0000000  0  7G25G16G11G 2G13G 1G20
  22785350.361   -13659816.06349 -10624448.94046  22785350.090    22785356.009
  21696154.932   -20703702.55549 -15594827.01647  21696154.455    21696160.350
  24196128.693    -8883242.92149  -6615593.29045  24196128.469    24196137.327
  22044709.021   -15956518.47649 -12414219.79547  22044708.196    22044715.910
  23951581.375   -11330968.53749  -8576868.31345  23951581.405    23951588.944
  21599223.735   -21946790.86549 -17084022.28847  21599223.169    21599229.707
  20349387.893   -28989350.92549 -22295716.23248  20349387.142    20349392.514
 03  6 11  1 30 30.0000000  0  7G25G16G11G 2G13G 1G20
  22800652.634   -13579402.23749 -10561788.85346  22800652.357    22800658.358
  21687380.349   -20749813.19449 -15630757.33347  21687379.859    21687385.747
  24212432.411    -8797566.85149  -6548832.86545  24212432.242    24212441.284
  22033185.073   -16017076.97049 -12461408.17147  22033184.224    22033191.950
  23936940.263   -11407907.24449  -8636820.40545  23936940.242    23936947.738
  21590169.487   -21994371.18049 -17121097.82347  21590168.937    21590175.448
  20346520.368   -29004419.73549 -22307458.16348  20346519.628    20346525.014
 03  6 11  1 31  0.0000000  0  7G25G16G11G 2G13G 1G20
  22815975.719   -13498879.02549 -10499043.52846  22815975.449    22815981.506
  21678701.027   -20795423.04449 -15666297.42847  21678700.518    21678706.420
  24228736.281    -8711889.61349  -6482071.55945  24228735.945    24228745.326
  22021729.343   -16077276.72349 -12508317.00647  22021728.525    22021736.262
  23922304.566   -11484817.43549  -8696750.29045  23922304.494    23922312.135
  21581138.987   -22041826.65749 -17158076.07947  21581138.419    21581144.931
  20343756.613   -29018943.39049 -22318775.29848  20343755.871    20343761.277
 03  6 11  1 31 30.0000000  0  7G25G16G11G 2G13G 1G20
  22831319.321   -13418248.10149 -10436214.26446  22831319.077    22831325.124
  21670117.430   -20840529.73149 -15701445.45547  21670116.950    21670122.839
  24245039.884    -8626213.66249  -6415311.25045  24245039.678    24245048.958
  22010342.368   -16137115.37749 -12554944.46847  22010341.558    22010349.296
  23907674.447   -11561698.48749  -8756657.46745  23907674.521    23907681.977
  21572132.364   -22089156.57749 -17194956.50447  21572131.784    21572138.297
  20341096.944   -29032920.01349 -22329666.17548  20341096.192    20341101.607
 03  6 11  1 32  0.0000000  0  7G25G16G11G 2G13G 1G20
  22846683.024   -13337511.45049 -10373302.60646  22846682.730    22846688.841
  21661629.908   -20885131.78249 -15736200.25947  21661629.446    21661635.304
  24261342.884    -8540542.14349  -6348554.38645  24261342.552    24261351.895
  21999024.490   -16196591.10449 -12601289.12947  21999023.663    21999031.405
  23893049.962   -11638550.63849  -8816542.12345  23893049.937    23893057.287
  21563149.664   -22136360.99249 -17231739.12547  21563149.083    21563155.580
  20338541.513   -29046348.94749 -22340130.28248  20338540.771    20338546.186
 03  6 11  1 32 30.0000000  0  7G25G16G11G 2G13G 1G20
  22862066.553   -13256670.36449 -10310309.56746  22862066.291    22862072.405
  21653238.898   -20929226.82149 -15770559.99147  21653238.425    21653244.251
  24277644.619    -8454877.20349  -6281802.65545  24277644.166    24277653.568
  21987776.063   -16255701.69449 -12647349.26647  21987775.250    21987782.991
  23878431.038   -11715373.22149  -8876403.74645  23878430.966    23878438.189
  21554190.967   -22183439.21649 -17268423.42047  21554190.385    21554196.848
  20336090.564   -29059228.82749 -22350166.55548  20336089.808    20336095.202
 03  6 11  1 33  0.0000000  0  7G25G16G11G 2G13G 1G20
  22877469.718   -13175726.54049 -10247236.46746  22877469.477    22877475.585
  21644944.691   -20972813.01149 -15804523.21847  21644944.197    21644950.043
  24293944.439    -8369221.71349  -6215058.27245  24293944.062    24293953.602
  21976597.456   -16314445.13649 -12693123.32147  21976596.659    21976604.438
  23863817.779   -11792166.08149  -8936242.22245  23863817.653    23863824.971
  21545256.303   -22230391.00449 -17305009.20247  21545255.710    21545262.175
  20333744.351   -29071558.36849 -22359773.99848  20333743.592    20333749.002
 03  6 11  1 33 30.0000000  0  7G25G16G11G 2G13G 1G20
  22892892.137   -13094681.43849 -10184084.44446  22892891.871    22892897.975
  21636747.753   -21015888.03449 -15838088.13447  21636747.252    21636753.142
  24310242.028    -8283578.21049  -6148323.23245  24310241.549    24310251.273
  21965489.198   -16372819.17849 -12738609.52247  21965488.389    21965496.186
  23849210.063   -11868928.70649  -8996057.13845  23849210.006    23849217.411
  21536345.856   -22277215.55449 -17341495.82547  21536345.269    21536351.758
  20331503.054   -29083336.36649 -22368951.65648  20331502.294    20331507.677
 03  6 11  1 34  0.0000000  0  7G25G16G11G 2G13G 1G20
  22908333.428   -13013536.91349 -10120854.96546  22908333.171    22908339.292
  21628648.422   -21058450.25749 -15871253.46747  21628647.909    21628653.760
  24326536.670    -8197949.51749  -6081599.73245  24326536.259    24326546.210
  21954451.553   -16430822.18149 -12783806.61047  21954450.740    21954458.522
  23834608.349   -11945660.97649  -9055848.39645  23834608.274    23834615.564
  21527459.653   -22323912.67549 -17377883.16547  21527459.070    21527465.532
  20329366.915   -29094561.92449 -22377698.84448  20329366.153    20329371.529
 03  6 11  1 34 30.0000000  0  7G25G16G11G 2G13G 1G20
  22923793.273   -12932294.75149 -10057549.40746  22923793.029    22923799.163
  21620647.009   -21100497.89949 -15904017.82347  21620646.508    21620652.327
  24342828.071    -8112338.22549  -6014889.80545  24342827.561    24342837.598
  21943484.879   -16488452.25049 -12828713.10347  21943484.072    21943491.843
  23820012.459   -12022362.95049  -9115616.05945  23820012.289    23820019.628
  21518597.787   -22370482.08149 -17414170.98047  21518597.215    21518603.677
  20327336.093   -29105233.83249 -22386014.60948  20327335.349    20327340.732
 03  6 11  1 35  0.0000000  0  7G25G16G11G 2G13G 1G20
  22939271.551   -12850956.11849  -9994168.68646  22939271.293    22939277.417
  21612743.858   -21142029.03849 -15936379.71247  21612743.369    21612749.157
  24359115.723    -8026747.30649  -5948195.73745  24359115.245    24359125.091
  21932589.582   -16545707.41649 -12873327.46447  21932588.765    21932596.496
  23805422.222   -12099034.33949  -9175359.90345  23805422.159    23805429.434
  21509760.324   -22416923.18849 -17450358.83047  21509759.743    21509766.208
  20325410.813   -29115351.24449 -22393898.30848  20325410.072    20325415.467
 03  6 11  1 35 30.0000000  0  7G25G16G11G 2G13G 1G20
  22954767.790   -12769522.89249  -9930714.25346  22954767.535    22954773.679
  21604939.322   -21183042.09449 -15968337.89447  21604938.802    21604944.581
  24375398.793    -7941179.35549  -5881519.57745  24375398.222    24375408.141
  21921765.926   -16602585.84449 -12917648.26647  21921765.108    21921772.814
  23790837.896   -12175674.97049  -9235079.77245  23790837.946    23790845.128
  21500947.319   -22463235.80549 -17486446.55547  21500946.724    21500953.174
  20323591.171   -29124913.36649 -22401349.31648  20323590.441    20323595.838
 03  6 11  1 36  0.0000000  0  7G25G16G11G 2G13G 1G20
  22970281.773   -12687996.24149  -9867187.01346  22970281.535    22970287.698
  21597233.837   -21223534.58749 -15999890.44747  21597233.336    21597239.103
  24391677.151    -7855636.61749  -5814863.06245  24391676.473    24391686.507
  21911014.457   -16659085.05449 -12961673.56747  21911013.641    21911021.313
  23776259.728   -12252283.98349  -9294775.01545  23776259.758    23776266.812
  21492158.955   -22509418.67249 -17522433.17447  21492158.368    21492164.821
  20321877.537   -29133918.31049 -22408366.16448  20321876.807    20321882.232
 03  6 11  1 36 30.0000000  0  7G25G16G11G 2G13G 1G20
  22985812.990   -12606378.96549  -9803589.18446  22985812.773    22985818.954
  21589627.504   -21263505.86349 -16031036.85147  21589627.012    21589632.769
  24407949.929    -7770122.86449  -5748229.11545  24407949.358    24407959.325
  21900335.245   -16715204.37649 -13005402.86147  21900334.454    21900342.103
  23761687.377   -12328862.23649  -9354446.27845  23761687.346    23761694.340
  21483395.074   -22555472.84949 -17558319.52047  21483394.496    21483400.957
  20320269.880   -29142366.57749 -22414949.24148  20320269.170    20320274.592
 03  6 11  1 37  0.0000000  0  8G25G16G11G 2G13G 1G 4G20
  23001360.990   -12524673.59349  -9739922.69246  23001360.779    23001366.947
  21582120.534   -21302955.32049 -16061776.64147  21582120.029    21582125.750
  24424216.552    -7684641.79149  -5681620.64745  24424215.947    24424225.818
  21889728.537   -16770942.81549 -13048835.35347  21889727.767    21889735.395
  23747120.658   -12405410.54649  -9414094.23345  23747120.550    23747127.501
  21474655.635   -22601398.80149 -17594105.95147  21474655.056    21474661.502
  24765459.189    -2139055.30649  -1644253.81445  24765459.159    24765467.086
  20318768.215   -29150258.04149 -22421098.44148  20318767.500    20318772.906
 03  6 11  1 37 30.0000000  0  8G25G16G11G 2G13G 1G 4G20
  23016925.875   -12442879.80749  -9676187.31546  23016925.664    23016931.791
  21574713.488   -21341879.20849 -16092106.90147  21574713.007    21574718.695
  24440476.803    -7599194.00849  -5615038.14145  24440476.240    24440486.230
  21879195.002   -16826296.59549 -13091968.11747  21879194.229    21879201.808
  23732559.973   -12481926.66849  -9473717.09345  23732560.020    23732566.824
  21465941.068   -22647194.00849 -17629790.51147  21465940.459    21465946.923
  24758374.479    -2176286.25549  -1673264.93945  24758374.354    24758382.204
  20317373.083   -29157589.72449 -22426811.45348  20317372.356    20317377.770
 03  6 11  1 38  0.0000000  0  8G25G16G11G 2G13G 1G 4G20
  23032507.384   -12360998.70749  -9612383.89346  23032507.147    23032513.234
  21567407.003   -21380274.94649 -16122025.61247  21567406.505    21567412.181
  24456730.381    -7513781.39149  -5548483.00345  24456729.937    24456739.920
  21868735.192   -16881263.25549 -13134799.21947  21868734.390    21868741.917
  23718005.590   -12558409.81649  -9533314.26845  23718005.636    23718012.483
  21457251.511   -22692857.57049 -17665372.48747  21457250.914    21457257.383
  24751383.333    -2213025.20849  -1701892.67945  24751383.344    24751391.010
  20316084.722   -29164360.28249 -22432087.21948  20316083.988    20316089.372
 03  6 11  1 38 30.0000000  0  8G25G16G11G 2G13G 1G 4G20
  23048105.321   -12279031.13849  -9548513.10746  23048105.099    23048111.116
  21560201.367   -21418140.84349 -16151531.47147  21560200.874    21560206.502
  24472976.615    -7428406.60649  -5481957.36145  24472976.371    24472986.429
  21858349.389   -16935840.76749 -13177327.09847  21858348.610    21858356.091
  23703457.653   -12634859.47349  -9592885.35145  23703457.737    23703464.537
  21448587.223   -22738388.72149 -17700851.29647  21448586.623    21448593.057
  24744485.764    -2249271.16349  -1730136.26745  24744485.939    24744493.582
  20314903.337   -29170568.53149 -22436924.82648  20314902.586    20314907.964
 03  6 11  1 39  0.0000000  0  8G25G16G11G 2G13G 1G 4G20
  23063719.192   -12196979.80649  -9484577.04046  23063718.960    23063725.001
  21553096.771   -21455475.59649 -16180623.44447  21553096.302    21553101.882
  24489215.164    -7343073.05349  -5415463.85645  24489214.850    24489225.017
  21848037.927   -16990027.72649 -13219550.63947  21848037.139    21848044.583
  23688916.104   -12711275.56649  -9652430.27145  23688916.135    23688922.959
  21439948.102   -22783787.46849 -17736226.91947  21439947.503    21439953.916
  24737682.551    -2285023.21849  -1757995.00345  24737682.639    24737690.289
  20313829.038   -29176214.18249 -22441324.03748  20313828.279    20313833.648
 03  6 11  1 39 30.0000000  0  8G25G16G11G 2G13G 1G 4G20
  23079348.659   -12114846.65849  -9420577.22746  23079348.410    23079354.445
  21546093.442   -21492278.24749 -16209300.79847  21546092.970    21546098.519
  24505445.292    -7257783.49049  -5349004.62445  24505444.953    24505455.454
  21837801.004   -17043823.06049 -13261469.03247  21837800.206    21837807.623
  23674380.769   -12787658.76049  -9711949.55945  23674380.837    23674387.613
  21431334.144   -22829054.00349 -17771499.52947  21431333.547    21431339.962
  24730973.192    -2320281.45949  -1785468.93745  24730973.304    24730981.034
  20312861.791   -29181296.97249 -22445284.66448  20312861.049    20312866.415
 03  6 11  1 40  0.0000000  0  8G25G16G11G 2G13G 1G 4G20
  23094993.549   -12032632.38749  -9356514.20146  23094993.299    23094999.339
  21539191.782   -21528546.67649 -16237561.87047  21539191.298    21539196.801
  24521666.656    -7172540.08049  -5282581.34145  24521666.334    24521676.739
  21827638.946   -17097224.43049 -13303080.43747  21827638.181    21827645.595
  23659851.974   -12864008.04549  -9771442.42245  23659851.987    23659858.671
  21422745.571   -22874187.19249 -17806668.24447  21422744.992    21422751.367
  24724357.919    -2355044.73249  -1812557.17645  24724358.083    24724365.860
  20312002.017   -29185815.38349 -22448805.51648  20312001.244    20312006.628
 03  6 11  1 40 30.0000000  0  8G25G16G11G 2G13G 1G 4G20
  23110653.433   -11950339.25349  -9292389.71746  23110653.198    23110659.235
  21532392.030   -21564279.45149 -16265405.54547  21532391.546    21532397.039
  24537878.688    -7087346.08149  -5216196.55745  24537878.210    24537888.764
  21817552.166   -17150230.48649 -13344383.80147  21817551.394    21817558.844
  23645329.566   -12940323.48849  -9830908.93045  23645329.589    23645336.273
  21414182.394   -22919186.97749 -17841733.00047  21414181.820    21414188.150
  24717837.111    -2389311.99949  -1839258.93545  24717837.218    24717844.854
  20311249.668   -29189768.98049 -22451886.24848  20311248.925    20311254.297
 03  6 11  1 41  0.0000000  0  8G25G16G11G 2G13G 1G 4G20
  23126328.053   -11867968.72249  -9228204.92546  23126327.816    23126333.868
  21525694.513   -21599474.81749 -16292830.47547  21525694.022    21525699.509
  24554081.114    -7002203.71149  -5149852.04945  24554080.524    24554090.998
  21807541.021   -17202838.97349 -13385377.37947  21807540.274    21807547.736
  23630813.458   -13016604.78149  -9890348.80145  23630813.579    23630820.293
  21405644.756   -22964052.70749 -17876693.30447  21405644.181    21405650.513
  24711410.655    -2423082.70549  -1865573.74545  24711410.737    24711418.514
  20310604.946   -29193156.88349 -22454526.18548  20310604.211    20310609.585
 03  6 11  1 41 30.0000000  0  8G25G16G11G 2G13G 1G 4G20
  23142017.059   -11785522.86249  -9163961.43646  23142016.785    23142022.872
  21519099.422   -21634131.92249 -16319835.96847  21519098.928    21519104.453
  24570272.864    -6917116.36449  -5083550.36845  24570272.056    24570282.910
  21797605.752   -17255048.92049 -13426060.39147  21797604.972    21797612.465
  23616304.039   -13092851.90149  -9949762.04345  23616304.153    23616310.786
  21397132.517   -23008784.71549 -17911549.40047  21397131.944    21397138.268
  24705078.944    -2456356.45349  -1891501.32345  24705078.950    24705086.919
  20310067.952   -29195978.90049 -22456725.16548  20310067.213    20310072.608
 03  6 11  1 42  0.0000000  0  8G25G16G11G 2G13G 1G 4G20
  23157720.286   -11703002.14449  -9099659.62446  23157719.994    23157726.052
  21512607.253   -21668248.19849 -16346420.04847  21512606.772    21512612.293
  24586453.684    -6832085.33249  -5017292.60245  24586453.123    24586463.945
  21787746.801   -17306857.82249 -13466430.91247  21787746.008    21787753.512
  23601801.382   -13169064.13349 -10009148.09645  23601801.373    23601807.987
  21388646.072   -23053381.36749 -17946300.02447  21388645.509    21388651.838
  24698841.913    -2489131.94849  -1917040.64445  24698841.948    24698849.963
  20309638.895   -29198233.55949 -22458482.05148  20309638.150    20309643.552
 03  6 11  1 42 30.0000000  0  8G25G16G11G 2G13G 1G 4G20
  23173437.342   -11620408.60349  -9035301.07046  23173437.064    23173443.132
  21506218.239   -21701822.57849 -16372581.87647  21506217.755    21506223.283
  24602623.327    -6747114.01349  -4951081.37245  24602622.698    24602633.731
  21777964.419   -17358264.16849 -13506487.75547  21777963.630    21777971.156
  23587305.301   -13245241.12649 -10068506.69445  23587305.268    23587311.988
  21380185.340   -23097842.77549 -17980945.26947  21380184.776    21380191.106
  24692699.760    -2521408.69449  -1942191.35645  24692699.811    24692707.828
  20309317.949   -29199920.25249 -22459796.36948  20309317.202    20309322.604
 03  6 11  1 43  0.0000000  0  8G25G16G11G 2G13G 1G 4G20
  23189168.165   -11537742.96349  -8970886.33546  23189167.893    23189173.926
  21499932.694   -21734853.15849 -16398319.96447  21499932.197    21499937.755
  24618781.289    -6662204.60049  -4884918.38045  24618780.642    24618791.492
  21768259.101   -17409265.78849 -13546229.22247  21768258.318    21768265.838
  23572816.024   -13321382.18649 -10127837.29445  23572815.960    23572822.703
  21371750.508   -23142167.96249 -18015484.36147  21371749.925    21371756.299
  24686652.848    -2553185.47849  -1966952.48045  24686652.866    24686660.879
  20309105.183   -29201038.30749 -22460667.58648  20309104.440    20309109.833
 03  6 11  1 43 30.0000000  0  8G25G16G11G 2G13G 1G 4G20
  23204912.285   -11455007.62449  -8906417.29246  23204912.023    23204917.970
  21493750.771   -21767339.21749 -16423633.75447  21493750.306    21493755.855
  24634926.816    -6577360.21649  -4818806.06845  24634926.155    24634937.087
  21758630.986   -17459861.73049 -13585654.58547  21758630.194    21758637.708
  23558333.651   -13397487.27649 -10187139.86045  23558333.575    23558340.286
  21363341.607   -23186356.95649 -18049917.33347  21363341.037    21363347.416
  24680700.949    -2584462.25349  -1991323.97945  24680700.896    24680709.138
  20309000.701   -29201587.34249 -22461095.41748  20308999.942    20309005.348
 03  6 11  1 44  0.0000000  0  8G25G16G11G 2G13G 1G 4G20
  23220669.312   -11372204.31949  -8841895.28146  23220669.026    23220674.956
  21487672.785   -21799279.20349 -16448522.02447  21487672.324    21487677.871
  24651059.492    -6492583.33949  -4752746.30845  24651058.717    24651069.816
  21749080.383   -17510050.30549 -13624762.51147  21749079.586    21749087.082
  23543858.072   -13473556.87749 -10246414.77345  23543857.976    23543864.647
  21354958.695   -23230409.22249 -18084243.75847  21354958.130    21354964.534
  24674844.522    -2615238.57949  -2015305.53245  24674844.471    24674852.730
  20309004.595   -29201566.84449 -22461079.45248  20309003.859    20309009.276
 03  6 11  1 44 30.0000000  0  8G25G16G11G 2G13G 1G 4G20
  23236439.020   -11289334.02749  -8777321.07846  23236438.738    23236444.701
  21481699.071   -21830671.39249 -16472983.43647  21481698.580    21481704.121
  24667178.898    -6407876.22449  -4686740.94145  24667178.218    24667189.113
  21739607.688   -17559829.58949 -13663551.51947  21739606.883    21739614.361
  23529389.376   -13549589.88349 -10305661.16645  23529389.353    23529395.991
  21346601.992   -23274324.02249 -18118463.06347  21346601.415    21346607.803
  24669083.438    -2645513.43749  -2038896.32045  24669083.368    24669091.689
  20309117.088   -29200975.77549 -22460618.88848  20309116.341    20309121.752
 03  6 11  1 45  0.0000000  0  8G25G16G11G 2G13G 1G 4G20
  23252221.205   -11206397.94449  -8712695.60946  23252220.933    23252226.962
  21475829.892   -21861514.06149 -16497016.65447  21475829.403    21475834.910
  24683284.486    -6323241.19549  -4620791.74445  24683283.858    24683294.528
  21730213.254   -17609197.56949 -13702020.02747  21730212.447    21730219.917
  23514927.663   -13625586.08249 -10364878.87545  23514927.604    23514934.238
  21338271.601   -23318100.57749 -18152574.64747  21338271.022    21338277.392
  24663417.982    -2675285.78449  -2062095.54445  24663417.852    24663426.099
  20309338.290   -29199813.37449 -22459713.13248  20309337.548    20309342.954
 03  6 11  1 45 30.0000000  0  8G25G16G11G 2G13G 1G 4G20
  23268015.739   -11123397.21249  -8648019.75046  23268015.478    23268021.597
  21470065.635   -21891805.38049 -16520620.24747  21470065.153    21470070.650
  24699375.845    -6238680.65149  -4554900.58845  24699375.338    24699385.910
  21720897.433   -17658152.40149 -13740166.60047  21720896.606    21720904.074
  23500473.249   -13701544.16249 -10424066.88145  23500473.231    23500479.772
  21329967.694   -23361737.76849 -18186577.63047  21329967.131    21329973.485
  24657848.297    -2704554.52749  -2084902.37845  24657848.177    24657856.374
  20309668.425   -29198078.62149 -22458361.38448  20309667.680    20309673.099
 03  6 11  1 46  0.0000000  0  8G25G16G11G 2G13G 1G 4G20
  23283822.172   -11040333.77249  -8583295.03946  23283821.935    23283828.089
  21464406.457   -21921544.60949 -16543793.63847  21464405.981    21464411.421
  24715452.664    -6154197.28549  -4489069.55945  24715452.009    24715462.980
  21711660.443   -17706692.87549 -13777990.30647  21711659.621    21711667.065
  23486025.918   -13777464.60749 -10483225.56845  23486025.973    23486032.469
  21321690.291   -23405235.64049 -18220472.05847  21321689.722    21321696.060
  24652374.460    -2733319.66449  -2107316.76145  24652374.286    24652382.550
  20310107.481   -29195771.37649 -22456563.54348  20310106.746    20310112.167
 03  6 11  1 46 30.0000000  0  7G25G16G 2G13G 1G 4G20
  23299641.450   -10957203.22249  -8518518.03046  23299641.174    23299647.326
  21458853.689   -21950724.65549 -16566531.29947  21458853.185    21458858.639
  21702503.677   -17754811.54949 -13815485.33147  21702502.900    21702510.320
  23471586.975   -13853341.12649 -10542350.02945  23471587.069    23471593.539
  21313440.604   -23448588.03949 -18254253.12647  21313440.023    21313446.376
  24646997.592    -2761575.10449  -2129333.99745  24646997.568    24647005.696
  20310656.686   -29192885.33249 -22454314.68748  20310655.955    20310661.365
 03  6 11  1 47  0.0000000  0  7G25G16G 2G13G 1G 4G20
  23315472.311   -10874011.45649  -8453693.32746  23315472.015    23315478.268
  21453406.636   -21979348.86249 -16588835.83547  21453406.146    21453411.597
  21693426.631   -17802511.58949 -13852654.14547  21693425.864    21693433.241
  23457155.551   -13929178.35849 -10601443.88145  23457155.609    23457162.093
  21305217.824   -23491798.85849 -18287923.87247  21305217.255    21305223.605
  24641716.886    -2789324.83349  -2150957.14445  24641716.872    24641725.163
  20311315.145   -29189425.01749 -22451618.34548  20311314.400    20311319.863
 03  6 11  1 47 30.0000000  0  7G25G16G 2G13G 1G 4G20
  23331313.577   -10790764.81549  -8388825.85246  23331313.317    23331319.552
  21448064.755   -22007420.43449 -16610709.75847  21448064.274    21448069.734
  21684428.718   -17849795.82349 -13889498.94947  21684427.933    21684435.319
  23442730.962   -14004980.04349 -10660510.03545  23442730.975    23442737.458
  21297021.268   -23534871.99049 -18321487.33147  21297020.709    21297027.050
  24636531.860    -2816573.08849  -2172189.56945  24636531.824    24636539.881
  20312082.172   -29185394.22249 -22448477.47648  20312081.439    20312086.925
 03  6 11  1 48  0.0000000  0  7G25G16G 2G13G 1G 4G20
  23347165.449   -10707462.70349  -8323915.17146  23347165.204    23347171.442
  21442828.714   -22034935.74749 -16632150.22647  21442828.219    21442833.701
  21675510.598   -17896660.57449 -13926016.88647  21675509.827    21675517.235
  23428313.530   -14080743.68049 -10719546.54845  23428313.546    23428320.029
  21288851.416   -23577804.80149 -18354941.44947  21288850.845    21288857.170
  24631442.742    -2843316.83749  -2193028.86345  24631442.807    24631450.693
  20312958.311   -29180790.03149 -22444889.80348  20312957.582    20312963.077
 03  6 11  1 48 30.0000000  0  7G25G16G 2G13G 1G 4G20
  23363027.757   -10624105.67249  -8258961.68346  23363027.512    23363033.791
  21437698.845   -22061893.03449 -16653155.86347  21437698.370    21437703.859
  21666672.708   -17943103.61749 -13962206.21347  21666671.945    21666679.370
  23413903.499   -14156468.20449 -10778552.56845  23413903.522    23413910.045
  21280708.480   -23620596.10949 -18388285.29747  21280707.932    21280714.241
  24626449.700    -2869554.97449  -2213474.13945  24626449.803    24626457.807
  20313943.760   -29175611.66449 -22440854.71748  20313943.030    20313948.536
 03  6 11  1 49  0.0000000  0  7G25G16G 2G13G 1G 4G20
  23378900.238   -10540695.41849  -8193966.73146  23378899.964    23378906.280
  21432675.364   -22088291.28349 -16673725.89747  21432674.898    21432680.387
  21657915.342   -17989123.68149 -13998065.95547  21657914.558    21657922.003
  23399500.968   -14232153.51749 -10837528.04545  23399500.973    23399507.559
  21272592.567   -23663245.56249 -18421518.61547  21272592.011    21272598.309
  24621553.102    -2895287.14749  -2233525.19645  24621553.184    24621561.059
  20315038.497   -29169858.69849 -22436371.89648  20315037.762    20315043.271
 03  6 11  1 49 30.0000000  0  7G25G16G 2G13G 1G 4G20
  23394782.720   -10457232.27749  -8128930.56946  23394782.499    23394788.888
  21427758.695   -22114128.43849 -16693858.71347  21427758.202    21427763.681
  21649238.882   -18034718.49649 -14033594.33647  21649238.114    21649245.542
  23385106.201   -14307798.27549 -10896471.93145  23385106.197    23385112.770
  21264503.919   -23705751.59349 -18454640.17447  21264503.361    21264509.650
  24616752.871    -2920512.45249  -2253181.28545  24616752.867    24616760.808
  20316242.815   -29163529.99549 -22431440.45248  20316242.098    20316247.600
 03  6 11  1 50  0.0000000  0  7G25G16G 2G13G 1G 4G20
  23410675.293   -10373716.21549  -8063853.17646  23410675.087    23410681.499
  21422949.308   -22139401.83049 -16713552.23547  21422948.831    21422954.289
  21640643.933   -18079885.10249 -14068789.04647  21640643.164    21640650.576
  23370719.430   -14383400.73949 -10955382.84145  23370719.408    23370725.942
  21256442.958   -23748112.12049 -18487648.35247  21256442.391    21256448.670
  24612049.497    -2945228.76349  -2272440.73445  24612049.503    24612057.410
  20317557.078   -29156623.80549 -22426059.01848  20317556.338    20317561.819
 03  6 11  1 50 30.0000000  0  7G25G16G 2G13G 1G 4G20
  23426576.715   -10290153.41249  -7998739.35146  23426576.499    23426582.998
  21418246.552   -22164114.98749 -16732809.20647  21418246.077    21418251.504
  21632129.858   -18124626.71049 -14103652.59147  21632129.089    21632136.504
  23356339.905   -14458965.20349 -11014264.16345  23356339.872    23356346.452
  21248408.908   -23790331.27349 -18520546.37047  21248408.333    21248414.613
  24607442.177    -2969440.48349  -2291307.00445  24607442.162    24607450.142
  20318980.328   -29149144.55649 -22420231.04348  20318979.593    20318985.065
 03  6 11  1 51  0.0000000  0  7G25G16G 2G13G 1G 4G20
  23442487.819   -10206540.13149  -7933586.19746  23442487.634    23442494.082
  21413651.531   -22188261.83349 -16751624.90447  21413651.038    21413656.435
  21623697.948   -18168936.48049 -14138179.63847  21623697.196    21623704.585
  23341968.692   -14534486.02549 -11073111.46945  23341968.672    23341975.260
  21240402.836   -23832403.27049 -18553329.71947  21240402.285    21240408.555
  24602931.988    -2993141.99449  -2309775.70645  24602931.745    24602940.101
  20320513.745   -29141086.49449 -22413952.04448  20320513.002    20320518.486
 03  6 11  1 51 30.0000000  0  7G25G16G 2G13G 1G 4G20
  23458407.985   -10122879.12149  -7868395.84946  23458407.812    23458414.331
  21409164.196   -22211842.70649 -16769999.57947  21409163.715    21409169.130
  21615348.161   -18212814.85949 -14172370.53847  21615347.406    21615354.757
  23327605.546   -14609964.43149 -11131925.71945  23327605.535    23327612.125
  21232424.563   -23874329.28149 -18585999.32047  21232423.999    21232430.297
  24598518.434    -3016334.80349  -2327848.02945  24598518.369    24598526.466
  20322157.022   -29132451.02049 -22407223.11748  20322156.274    20322161.769
 03  6 11  1 52  0.0000000  0  7G25G16G 2G13G 1G 4G20
  23474336.796   -10039172.82449  -7803170.22146  23474336.655    23474343.153
  21404784.609   -22234857.35549 -16787933.04247  21404784.137    21404789.580
  21607080.569   -18256261.39149 -14206224.93147  21607079.790    21607087.132
  23313250.466   -14685400.83749 -11190707.24045  23313250.423    23313256.992
  21224474.035   -23916109.52349 -18618555.32647  21224473.473    21224479.759
  24594201.808    -3039019.39249  -2345524.32845  24594201.738    24594209.657
  20323909.982   -29123238.95649 -22400044.89648  20323909.240    20323914.751
 03  6 11  1 52 30.0000000  0  7G25G16G 2G13G 1G 4G20
  23490274.163    -9955421.74249  -7737909.68646  23490274.012    23490280.508
  21400513.153   -22257303.79349 -16805423.74847  21400512.683    21400518.165
  21598895.588   -18299273.41349 -14239740.74847  21598894.817    21598902.158
  23298903.610   -14760793.79749 -11249454.91745  23298903.545    23298910.040
  21216551.623   -23957742.05049 -18650996.23247  21216551.067    21216557.351
  24589982.068    -3061194.19349  -2362803.40245  24589982.109    24589989.905
  20325773.018   -29113448.65949 -22392416.10648  20325772.271    20325777.797
 03  6 11  1 53  0.0000000  0  7G25G16G 2G13G 1G 4G20
  23506219.842    -9871627.03549  -7672615.16946  23506219.633    23506226.123
  21396350.080   -22279180.70949 -16822470.67147  21396349.586    21396355.101
  21590793.605   -18341849.41249 -14272916.81647  21590792.825    21590800.180
  23284565.103   -14836142.56849 -11308168.15245  23284565.101    23284571.492
  21208657.456   -23999226.15649 -18683321.49047  21208656.892    21208663.150
  24585859.394    -3082859.00849  -2379685.07545  24585859.374    24585867.293
  20327746.178   -29103079.71249 -22384336.42148  20327745.425    20327750.917
 03  6 11  1 53 30.0000000  0  7G25G16G 2G13G 1G 4G20
  23522173.441    -9787790.44449  -7607288.00446  23522173.229    23522179.776
  21392295.356   -22300488.09549 -16839073.80647  21392294.862    21392300.401
  21582774.792   -18383988.53549 -14305752.45747  21582773.996    21582781.319
  23270235.055   -14911447.34649 -11366847.10545  23270235.042    23270241.337
  21200791.468   -24040562.03249 -18715531.24447  21200790.908    21200797.162
  24581833.771    -3104013.92049  -2396169.43645  24581833.620    24581841.680
  20329829.295   -29092132.99149 -22375806.51948  20329828.543    20329834.033
 03  6 11  1 54  0.0000000  0  7G25G16G 2G13G 1G 4G20
  23538134.764    -9703912.99549  -7541929.01946  23538134.558    23538141.231
  21388349.353   -22321224.26649 -16855231.83647  21388348.874    21388354.409
  21574839.418   -18425688.96249 -14338246.26347  21574838.630    21574845.978
  23255913.456   -14986707.34449 -11425491.18645  23255913.446    23255919.718
  21192953.948   -24081748.45949 -18747624.54747  21192953.374    21192959.632
  24577905.189    -3124658.50249  -2412256.12445  24577904.890    24577913.270
  20332022.528   -29080607.45949 -22366825.60048  20332021.784    20332027.261
 03  6 11  1 54 30.0000000  0  7G25G16G 2G13G 1G 4G20
  23554103.609    -9619996.30849  -7476539.44846  23554103.404    23554110.089
  21384512.171   -22341388.63849 -16870944.30647  21384511.720    21384517.255
  21566987.699   -18466949.85449 -14370397.56547  21566986.906    21566994.239
  23241600.453   -15061922.54649 -11484100.33146  23241600.425    23241606.652
  21185144.880   -24122785.19149 -18779601.20047  21185144.320    21185150.562
  24574073.543    -3144793.01949  -2427945.35145  24574073.404    24574081.939
  20334325.863   -29068503.50049 -22357393.95448  20334325.120    20334330.592
 03  6 11  1 55  0.0000000  0  7G25G16G 2G13G 1G 4G20
  23570079.728    -9536041.58149  -7411120.25546  23570079.474    23570086.229
  21380784.020   -22360979.93349 -16886210.22747  21380783.562    21380789.109
  21559219.989   -18507769.42649 -14402204.97847  21559219.183    21559226.484
  23227296.152   -15137092.03749 -11542673.87945  23227296.088    23227302.340
  21177364.511   -24163671.26749 -18811460.46047  21177363.956    21177370.195
  24570339.247    -3164416.85749  -2443236.66445  24570339.138    24570347.656
  20336739.307   -29055820.81949 -22347511.35748  20336738.549    20336744.059
 03  6 11  1 55 30.0000000  0  7G25G16G 2G13G 1G 4G20
  23586062.767    -9452050.33849  -7345672.58346  23586062.508    23586069.268
  21377165.014   -22379997.73449 -16901029.27947  21377164.557    21377170.142
  21551536.384   -18548146.97349 -14433667.95847  21551535.572    21551542.841
  23213000.509   -15212215.82549 -11601211.80745  23213000.414    23213006.662
  21169612.812   -24204406.43649 -18843202.13447  21169612.253    21169618.500
  24566702.155    -3183530.28249  -2458130.22545  24566701.986    24566710.222
  20339262.808   -29042559.57549 -22337177.93448  20339262.062    20339267.584
 03  6 11  1 56  0.0000000  0  7G25G16G 2G13G 1G 4G20
  23602052.639    -9368023.34249  -7280197.07246  23602052.379    23602059.162
  21373655.457   -22398440.58049 -16915400.30347  21373654.987    21373660.539
  21543937.193   -18588080.73949 -14464785.12547  21543936.403    21543943.646
  23198713.695   -15287292.90849 -11659713.35046  23198713.645    23198719.908
  21161890.105   -24244989.49649 -18874825.27647  21161889.559    21161895.793
  24563162.459    -3202132.51649  -2472625.47045  24563162.147    24563170.357
  20341896.583   -29028719.07549 -22326393.13648  20341895.839    20341901.366
 03  6 11  1 56 30.0000000  0  7G25G16G 2G13G 1G 4G20
  23618048.991    -9283962.25649  -7214694.99246  23618048.695    23618055.527
  21370255.457   -22416307.88649 -16929322.86147  21370254.970    21370260.513
  21536422.716   -18627569.48449 -14495555.52847  21536421.925    21536429.136
  23184435.885   -15362322.82549 -11718178.12945  23184435.839    23184442.100
  21154196.464   -24285419.83149 -18906329.41947  21154195.905    21154202.122
  24559719.879    -3220223.80749  -2486722.58445  24559719.540    24559727.667
  20344640.556   -29014299.47849 -22315157.10148  20344639.819    20344645.340
 03  6 11  1 57  0.0000000  0  7G25G16G 2G13G 1G 4G20
  23634051.671    -9199867.86349  -7149166.95046  23634051.347    23634058.214
  21366965.108   -22433598.67249 -16942796.17647  21366964.628    21366970.121
  21528993.176   -18666611.87649 -14525978.12347  21528992.369    21528999.540
  23170167.131   -15437305.02849 -11776605.74345  23170167.087    23170173.338
  21146532.053   -24325696.58249 -18937713.88047  21146531.491    21146537.717
  24556374.401    -3237803.80849  -2500421.26445  24556374.205    24556382.097
  20347494.750   -28999300.62949 -22303469.70048  20347494.013    20347499.526
 03  6 11  1 57 30.0000000  0  7G25G16G 2G13G 1G 4G20
  23650060.462    -9115741.54249  -7083614.04746  23650060.124    23650066.973
  21363784.658   -22450312.04349 -16955819.55647  21363784.180    21363789.658
  21521648.802   -18705206.54349 -14556051.85047  21521648.013    21521655.174
  23155907.625   -15512238.95549 -11834995.73146  23155907.589    23155913.818
  21138896.987   -24365819.07749 -18968978.14147  21138896.437    21138902.626
  24553126.326    -3254872.26849  -2513721.35745  24553126.224    24553134.066
  20350459.210   -28983722.21749 -22291330.69048  20350458.481    20350464.001
 03  6 11  1 58  0.0000000  0  7G25G16G 2G13G 1G 4G20
  23666075.195    -9031583.94849  -7018036.75446  23666074.828    23666081.711
  21360714.344   -22466446.56849 -16968391.89247  21360713.876    21360719.336
  21514389.937   -18743351.72349 -14585775.32847  21514389.148    21514396.309
  23141657.491   -15587123.52749 -11893347.28046  23141657.464    23141663.651
  21131291.520   -24405785.98649 -19000121.16947  21131290.962    21131297.156
  24549975.656    -3271428.70349  -2526622.45345  24549975.536    24549983.400
  20353534.044   -28967563.91849 -22278739.82048  20353533.312    20353538.846
 03  6 11  1 58 30.0000000  0  7G25G16G 2G13G 1G 4G20
  23682095.513    -8947396.96149  -6952436.57446  23682095.236    23682102.075
  21357754.176   -22482002.08049 -16980513.05647  21357753.705    21357759.158
  21507216.793   -18781046.71049 -14615148.00247  21507216.014    21507223.186
  23127416.789   -15661958.60849 -11951660.24546  23127416.792    23127422.946
  21123715.709   -24445597.02049 -19031142.73647  21123715.156    21123721.328
  24546922.419    -3287473.42349  -2539124.83045  24546922.229    24546930.345
  20356719.112   -28950826.34749 -22265697.57048  20356718.377    20356723.918
 03  6 11  1 59  0.0000000  0  7G25G16G 2G13G 1G 4G20
  23698121.064    -8863182.37549  -6886814.87645  23698120.782    23698127.627
  21354904.270   -22496978.46949 -16992182.94947  21354903.798    21354909.211
  21500129.371   -18818291.00949 -14644169.49147  21500128.591    21500135.776
  23113185.556   -15736744.27749 -12009934.72646  23113185.535    23113191.629
  21116169.558   -24485252.19149 -19062042.85047  21116169.000    21116175.182
  24543966.469    -3303007.30649  -2551229.15245  24543966.335    24543974.298
  20360014.306   -28933510.09349 -22252204.39648  20360013.556    20360019.117
 03  6 11  1 59 30.0000000  0  7G25G16G 2G13G 1G 4G20
  23714151.767    -8778940.89749  -6821172.23445  23714151.484    23714158.317
  21352164.797   -22511374.35249 -17003400.50847  21352164.334    21352169.741
  21493128.105   -18855082.66449 -14672838.27447  21493127.328    21493134.511
  23098963.806   -15811479.63349 -12068170.00046  23098963.790    23098969.887
  21108653.327   -24524750.17649 -19092820.49047  21108652.754    21108658.954
  24541107.824    -3318029.44749  -2562934.71245  24541107.764    24541115.643
  20363419.735   -28915614.47749 -22238259.77448  20363418.988    20363424.559
 03  6 11  2  0  0.0000000  0  7G25G16G 2G13G 1G 4G20
  23730187.385    -8694673.39549  -6755509.30345  23730187.183    23730193.869
  21349535.905   -22525189.10149 -17014165.22847  21349535.424    21349540.877
  21486213.211   -18891420.43949 -14701153.38247  21486212.435    21486219.629
  23084751.770   -15886163.80449 -12126365.39946  23084751.779    23084757.892
  21101167.157   -24564090.18249 -19123475.02847  21101166.566    21101172.798
  24538346.557    -3332539.84349  -2574241.48845  24538346.517    24538354.380
  20366935.409   -28897139.55749 -22223863.74248  20366934.665    20366940.254
 03  6 11  2  0 30.0000000  0  7G25G16G 2G13G 1G 4G20
  23746227.668    -8610381.49249  -6689827.35145  23746227.439    23746234.152
  21347017.680   -22538422.20949 -17024476.72447  21347017.208    21347022.664
  21479384.841   -18927303.43949 -14729114.12247  21479384.062    21479391.309
  23070549.550   -15960796.70249 -12184520.84146  23070549.591    23070555.729
  21093711.135   -24603271.68949 -19154006.06247  21093710.558    21093716.791
  24535682.420    -3346539.01949  -2585149.95145  24535682.380    24535690.331
  20370561.189   -28878085.79649 -22209016.66648  20370560.454    20370566.053
 03  6 11  2  1  0.0000000  0  7G25G16G 2G13G 1G 4G20
  23762272.526    -8526065.56549  -6624126.68445  23762272.241    23762278.969
  21344610.495   -22551072.00949 -17034333.70547  21344610.014    21344615.510
  21472643.384   -18962729.74249 -14756718.99847  21472642.599    21472649.879
  23056357.466   -16035376.66349 -12242635.04646  23056357.476    23056363.559
  21086285.612   -24642292.95549 -19184412.23347  21086285.019    21086291.300
  24533115.974    -3360025.85449  -2595659.17745  24533116.067    24533123.968
  20374297.374   -28858452.20349 -22193717.77848  20374296.628    20374302.226
 03  6 11  2  1 30.0000000  0  7G25G16G 2G13G 1G 4G20
  23778321.481    -8441727.94949  -6558409.11045  23778321.201    23778327.901
  21342314.181   -22563139.06849 -17043736.60647  21342313.714    21342319.199
  21465988.833   -18997699.48649 -14783968.10947  21465988.046    21465995.327
  23042175.283   -16109904.32349 -12300708.49146  23042175.274    23042181.329
  21078890.499   -24681154.46449 -19214693.91547  21078889.938    21078896.200
  24530646.913    -3373001.72949  -2605770.26545  24530647.106    24530654.759
  20378143.564   -28838240.39849 -22177968.33248  20378142.815    20378148.407
 03  6 11  2  2  0.0000000  0  7G25G16G 2G13G 1G 4G20
  23794374.254    -8357370.47349  -6492676.07645  23794374.037    23794380.643
  21340128.788   -22574623.48449 -17052685.49847  21340128.337    21340133.765
  21459421.325   -19032211.98849 -14810860.92947  21459420.532    21459427.779
  23028003.114   -16184379.49949 -12358741.03446  23028003.105    23028009.108
  21071525.825   -24719855.97849 -19244850.92947  21071525.267    21071531.532
  24528274.801    -3385467.24949  -2615483.65345  24528275.009    24528282.625
  20382099.665   -28817451.00349 -22161768.82048  20382098.936    20382104.490
 03  6 11  2  2 30.0000000  0  7G25G16G 2G13G 1G 4G20
  23810430.841    -8272992.76849  -6426927.26845  23810430.572    23810437.184
  21338054.623   -22585523.29749 -17061178.85247  21338054.172    21338059.598
  21452941.215   -19066264.92049 -14837395.64347  21452940.428    21452947.665
  23013841.369   -16258800.19449 -12416731.12846  23013841.310    23013847.354
  21064192.012   -24758395.38249 -19274881.61947  21064191.444    21064197.693
  24526000.072    -3397421.37549  -2624798.56745  24526000.144    24526007.759
  20386165.920   -28796082.82349 -22145118.30948  20386165.191    20386170.704
 03  6 11  2  3  0.0000000  0  7G25G16G 2G13G 1G 4G20
  23826490.911    -8188596.44649  -6361163.96345  23826490.704    23826497.274
  21336091.719   -22595838.43149 -17069216.61447  21336091.271    21336096.698
  21446548.638   -19099857.70449 -14863571.80947  21446547.864    21446555.121
  22999689.889   -16333166.56149 -12474678.91846  22999689.846    22999695.808
  21056889.115   -24796772.32249 -19304785.71547  21056888.559    21056894.783
  24523822.562    -3408864.43549  -2633715.25045  24523822.491    24523830.304
  20390342.190   -28774136.59249 -22128017.37348  20390341.450    20390346.966
 03  6 11  2  3 30.0000000  0  7G25G16G 2G13G 1G 4G20
  23842554.379    -8104182.40649  -6295386.83945  23842554.073    23842560.764
  21334240.257   -22605567.99649 -17076798.07147  21334239.803    21334245.200
  21440244.004   -19132988.78949 -14889388.20647  21440243.248    21440250.432
  22985548.887   -16407477.52949 -12532583.50946  22985548.896    22985554.859
  21049617.339   -24834985.76949 -19334562.40747  21049616.764    21049622.982
  24521742.098    -3419796.48149  -2642233.72945  24521742.071    24521749.979
  20394628.435   -28751612.12949 -22110465.86448  20394627.693    20394633.228
 03  6 11  2  4  0.0000000  0  7G25G16G 2G13G 1G 4G20
  23858620.905    -8019752.03849  -6229596.99245  23858620.531    23858627.374
  21332500.334   -22614711.54349 -17083922.89847  21332499.878    21332505.274
  21434027.435   -19165657.04949 -14914843.96147  21434026.662    21434033.806
  22971418.491   -16481732.58249 -12590444.54546  22971418.528    22971424.588
  21042376.855   -24873034.64349 -19364210.86847  21042376.286    21042382.477
  24519759.043    -3430217.55949  -2650354.06145  24519759.103    24519766.938
  20399024.625   -28728509.87249 -22092464.12748  20399023.900    20399029.454
 03  6 11  2  4 30.0000000  0  7G25G16G 2G13G 1G 4G20
  23874690.350    -7935306.67249  -6163795.45345  23874690.086    23874696.872
  21330871.865   -22623269.10149 -17090591.10847  21330871.395    21330876.786
  21427898.982   -19197862.11949 -14939938.78647  21427898.195    21427905.345
  22957298.890   -16555931.46749 -12648261.82146  22957298.903    22957304.923
  21035167.730   -24910918.79149 -19393730.96747  21035167.167    21035173.369
  24517873.210    -3440128.53649  -2658076.92545  24517873.319    24517881.061
  20403530.656   -28704830.56949 -22074012.74048  20403529.930    20403535.516
 03  6 11  2  5  0.0000000  0  7G25G16G 2G13G 1G 4G20
  23890762.493    -7850847.42249  -6097983.10645  23890762.209    23890768.953
  21329355.041   -22631240.00349 -17096802.18547  21329354.575    21329359.938
  21421858.888   -19229602.75549 -14964671.71647  21421858.116    21421865.242
  22943190.109   -16630073.40249 -12706034.70046  22943190.060    22943196.121
  21027990.099   -24948637.43749 -19423122.10047  21027989.546    21027995.732
  24516084.268    -3449529.36749  -2665402.25345  24516084.338    24516092.211
  20408146.447   -28680574.32449 -22055111.79048  20408145.725    20408151.357
 03  6 11  2  5 30.0000000  0  7G25G16G 2G13G 1G 4G20
  23906837.104    -7766375.21349  -6032160.66545  23906836.711    23906843.543
  21327949.921   -22638623.88949 -17102555.84047  21327949.458    21327954.832
  21415907.346   -19260878.10049 -14989042.08547  21415906.586    21415913.690
  22929092.275   -16704157.81149 -12763762.77746  22929092.230    22929098.260
  21020844.123   -24986189.70349 -19452383.59347  21020843.583    21020849.769
  24514392.326    -3458420.45849  -2672330.39245  24514392.438    24514400.134
  20412871.991   -28655741.53249 -22035761.58948  20412871.273    20412876.902
 03  6 11  2  6  0.0000000  0  8G25G16G 2G13G 1G27G 4G20
  23922912.112    -7681900.52149  -5966336.29045  23922911.773    23922918.661
  21326654.738   -22645429.91249 -17107859.20347  21326654.265    21326659.663
  21410042.731   -19291696.73449 -15013056.57347  21410041.966    21410049.058
  22915003.737   -16778193.40249 -12821452.79346  22915003.713    22915009.707
  21013728.172   -25023584.23249 -19481522.16447  21013727.609    21013733.801
  24864024.207    -4540615.43949  -3526873.20245  24864023.495    24864035.097
  24512795.574    -3466811.28749  -2678868.70145  24512795.674    24512803.331
  20417705.383   -28630341.90849 -22015969.69648  20417704.677    20417710.312
 03  6 11  2  6 30.0000000  0  8G25G16G 2G13G 1G27G 4G20
  23938989.450    -7597413.19149  -5900502.06945  23938989.152    23938996.112
  21325471.829   -22651645.90349 -17112702.80747  21325471.363    21325476.758
  21404267.386   -19322046.14949 -15036705.43847  21404266.634    21404273.685
  22900926.797   -16852168.03849 -12879095.32246  22900926.778    22900932.742
  21006644.591   -25060808.51049 -19510528.07647  21006644.033    21006650.248
  24848927.132    -4619950.47149  -3588692.53645  24848926.457    24848937.913
  24511296.200    -3474690.82249  -2685008.61445  24511296.332    24511303.914
  20422648.743   -28604364.46049 -21995727.54948  20422648.035    20422653.659
 03  6 11  2  7  0.0000000  0  8G25G16G 2G13G 1G27G 4G20
  23955069.377    -7512912.93349  -5834657.75845  23955069.081    23955075.983
  21324401.536   -22657270.13449 -17117085.31247  21324401.094    21324406.467
  21398581.817   -19351924.05149 -15059986.89447  21398581.061    21398588.074
  22886861.883   -16926079.24249 -12936688.42246  22886861.885    22886867.863
  20999593.854   -25097860.18549 -19539399.49247  20999593.304    20999599.501
  24833855.767    -4699150.15649  -3650406.35445  24833855.250    24833866.499
  24509894.468    -3482057.74049  -2690749.06645  24509894.493    24509902.062
  20427702.300   -28577808.00949 -21975034.24148  20427701.586    20427707.197
 03  6 11  2  7 30.0000000  0  8G25G16G 2G13G 1G27G 4G20
  23971151.348    -7428401.84649  -5768805.00645  23971150.958    23971157.965
  21323443.631   -22662303.85749 -17121007.68747  21323443.168    21323448.544
  21392985.895   -19381330.76949 -15082901.19447  21392985.135    21392992.119
  22872808.835   -16999928.11449 -12994232.94846  22872808.844    22872814.787
  20992575.888   -25134739.90149 -19568136.91747  20992575.323    20992581.520
  24818809.973    -4778215.52749  -3712015.55245  24818809.486    24818820.515
  24508589.821    -3488913.70049  -2696091.37645  24508589.836    24508597.445
  20432865.702   -28550674.29549 -21953891.11448  20432864.972    20432870.577
 03  6 11  2  8  0.0000000  0  8G25G16G 2G13G 1G27G 4G20
  23987234.939    -7343882.19549  -5702945.58345  23987234.643    23987241.571
  21322597.958   -22666747.83049 -17124470.51047  21322597.503    21322602.869
  21387479.555   -19410266.54249 -15105448.52147  21387478.797    21387485.781
  22858767.634   -17073715.13149 -13051729.27146  22858767.625    22858773.488
  20985590.573   -25171447.90149 -19596740.53447  20985590.008    20985596.188
  24803789.643    -4857147.28249  -3773520.62145  24803789.344    24803800.226
  24507382.009    -3495260.54849  -2701036.96745  24507382.123    24507389.748
  20438138.587   -28522965.10649 -21932299.56648  20438137.872    20438143.478
 03  6 11  2  8 30.0000000  0  8G25G16G 2G13G 1G27G 4G20
  24003319.857    -7259355.31649  -5637080.52245  24003319.528    24003326.521
  21321864.593   -22670601.83149 -17127473.60747  21321864.111    21321869.488
  21382063.010   -19438730.63349 -15127628.30847  21382062.236    21382069.225
  22844738.325   -17147439.55249 -13109176.80446  22844738.337    22844744.145
  20978638.071   -25207983.46249 -19625209.78847  20978637.511    20978643.660
  24788794.881    -4935944.93549  -3834921.22945  24788794.476    24788805.431
  24506271.035    -3501098.59049  -2705586.06245  24506271.081    24506278.945
  20443520.901   -28494680.91149 -21910259.95848  20443520.185    20443525.823
 03  6 11  2  9  0.0000000  0  8G25G16G 2G13G 1G27G 4G20
  24019406.119    -7174821.42849  -5571210.00145  24019405.811    24019412.856
  21321243.644   -22673864.64649 -17130016.02747  21321243.180    21321248.576
  21376736.547   -19466721.18849 -15149439.11047  21376735.784    21376742.776
  22830721.239   -17221099.74549 -13166574.28946  22830721.241    22830727.014
  20971718.745   -25244344.73949 -19653543.23447  20971718.182    20971724.316
  24773825.790    -5014607.26249  -3896216.37345  24773825.398    24773836.335
  24505256.932    -3506427.15949  -2709738.18845  24505257.173    24505265.064
  20449012.702   -28465821.33649 -21887772.00848  20449011.984    20449017.645
 03  6 11  2  9 30.0000000  0  8G25G16G 2G13G 1G27G 4G20
  24035492.695    -7090286.10549  -5505338.35945  24035492.415    24035499.434
  21320734.286   -22676541.20449 -17132101.60847  21320733.823    21320739.206
  21371499.455   -19494242.36849 -15170884.17347  21371498.699    21371505.658
  22816715.566   -17294700.03449 -13223925.10146  22816715.567    22816721.321
  20964831.830   -25280535.75149 -19681744.00247  20964831.259    20964837.408
  24758881.549    -5093138.85149  -3957409.64045  24758881.075    24758892.118
  24504338.923    -3511251.86249  -2713497.68845  24504339.129    24504346.848
  20454612.948   -28436391.86249 -21864839.97148  20454612.227    20454617.893
 03  6 11  2 10  0.0000000  0  8G25G16G 2G13G 1G27G 4G20
  24051580.347    -7005745.41249  -5439462.52145  24051580.037    24051586.996
  21320337.565   -22678626.02049 -17133726.10847  21320337.108    21320342.448
  21366352.799   -19521288.16149 -15191958.81147  21366352.032    21366358.993
  22802722.350   -17368234.47849 -13281224.60046  22802722.314    22802728.113
  20957978.404   -25316550.59249 -19709807.49947  20957977.834    20957983.967
  24743963.282    -5171533.97249  -4018496.59545  24743962.611    24743973.904
  24503517.446    -3515567.86649  -2716860.79345  24503517.857    24503525.541
  20460322.517   -28406387.93749 -21841460.31848  20460321.814    20460327.491
 03  6 11  2 10 30.0000000  0  8G25G16G 2G13G 1G27G 4G20
  24067668.319    -6921202.68049  -5373585.10845  24067667.960    24067674.962
  21320053.103   -22680120.84649 -17134890.88447  21320052.635    21320057.992
  21361296.371   -19547859.90449 -15212664.05847  21361295.593    21361302.548
  22788741.389   -17441704.23549 -13338473.68646  22788741.373    22788747.287
  20951158.299   -25352390.41849 -19737734.61747  20951157.725    20951163.847
  24729070.722    -5249794.33549  -4079478.54445  24729070.131    24729081.254
  24502792.560    -3519377.74449  -2719829.51645  24502792.750    24502800.585
  20466140.913   -28375812.16249 -21817635.06548  20466140.206    20466145.885
 03  6 11  2 11  0.0000000  0  8G25G16G 2G13G 1G27G 4G20
  24083756.486    -6836658.83449  -5307706.82345  24083756.182    24083763.158
  21319880.824   -22681025.98049 -17135596.16547  21319880.384    21319885.689
  21356330.270   -19573957.01349 -15232999.46447  21356329.491    21356336.438
  22774772.849   -17515108.92549 -13395672.08746  22774772.853    22774778.762
  20944371.619   -25388054.54749 -19765524.83547  20944371.044    20944377.179
  24714203.818    -5327919.86149  -4140355.43945  24714203.174    24714214.280
  24502163.893    -3522682.26149  -2722404.48045  24502163.944    24502171.789
  20472067.991   -28344665.20649 -21793364.73848  20472067.293    20472072.983
 03  6 11  2 11 30.0000000  0  8G25G16G 2G13G 1G27G 4G20
  24099844.707    -6752114.56449  -5241828.22645  24099844.505    24099851.541
  21319820.880   -22681340.76449 -17135841.44247  21319820.425    21319825.761
  21351454.670   -19599578.29549 -15252964.08547  21351453.886    21351460.848
  22760816.961   -17588447.45949 -13452818.92546  22760816.944    22760822.843
  20937618.642   -25423541.59349 -19793177.06347  20937618.069    20937624.217
  24699362.728    -5405909.61649  -4201126.52445  24699362.098    24699373.150
  24501631.027    -3525481.57049  -2724585.77845  24501631.184    24501639.098
  20478103.729   -28312947.45549 -21768649.63648  20478103.014    20478108.693
 03  6 11  2 12  0.0000000  0  8G25G16G 2G13G 1G27G 4G20
  24115932.797    -6667570.98749  -5175950.13545  24115932.527    24115939.667
  21319873.268   -22681065.19049 -17135626.69647  21319872.839    21319878.170
  21346669.766   -19624723.13149 -15272557.43147  21346668.979    21346675.951
  22746873.783   -17661719.06149 -13509913.61446  22746873.837    22746879.703
  20930899.471   -25458850.76849 -19820690.68647  20930898.900    20930905.070
  24684547.518    -5483763.21849  -4261791.52145  24684546.885    24684557.877
  24501194.270    -3527776.16249  -2726373.79845  24501194.526    24501202.392
  20484247.868   -28280659.79649 -21743490.44548  20484247.131    20484252.824
 03  6 11  2 12 30.0000000  0  8G25G16G 2G13G 1G27G 4G20
  24132020.527    -6583029.03949  -5110073.32445  24132020.240    24132027.529
  21320038.060   -22680199.16849 -17134951.86747  21320037.625    21320042.949
  21341975.618   -19649390.68749 -15291778.86847  21341974.838    21341981.821
  22732943.449   -17734922.99649 -13566955.58046  22732943.501    22732949.355
  20924214.387   -25493981.08149 -19848064.94047  20924213.818    20924219.989
  24669758.276    -5561480.24349  -4322350.09645  24669757.782    24669768.713
  24500853.688    -3529566.56749  -2727768.94545  24500853.812    24500861.696
  20490500.438   -28247802.44949 -21717887.34648  20490499.722    20490505.422
 03  6 11  2 13  0.0000000  0  8G25G16G 2G13G 1G27G 4G20
  24148107.714    -6498490.37849  -5044199.07245  24148107.473    24148114.812
  21320315.085   -22678743.41549 -17133817.50547  21320314.633    21320319.948
  21337372.342   -19673580.93649 -15310628.37047  21337371.585    21337378.569
  22719026.128   -17808059.03649 -13623944.64146  22719026.086    22719031.982
  20917563.412   -25528932.18849 -19875299.55047  20917562.823    20917568.992
  24654995.078    -5639061.03149  -4382802.51545  24654994.653    24655005.526
  24500608.776    -3530854.04349  -2728772.19045  24500608.861    24500616.728
  20496861.131   -28214376.91749 -21691841.50448  20496860.409    20496866.086
 03  6 11  2 13 30.0000000  0  8G25G16G 2G13G 1G27G 4G20
  24164194.236    -6413955.26449  -4978327.59345  24164194.036    24164201.381
  21320704.437   -22676697.20549 -17132223.05447  21320703.994    21320709.329
  21332860.135   -19697292.69949 -15329105.03247  21332859.359    21332866.342
  22705121.899   -17881125.99549 -13680879.87746  22705121.901    22705127.741
  20910946.798   -25563702.62349 -19902393.38447  20910946.233    20910952.385
  24640257.958    -5716504.68049  -4443148.08145  24640257.455    24640268.346
  24500459.338    -3531638.39449  -2729383.43145  24500459.545    24500467.534
  20503329.890   -28180383.29849 -21665352.99248  20503329.171    20503334.862
 03  6 11  2 14  0.0000000  0  8G25G16G 2G13G 1G27G 4G20
  24180279.916    -6329424.63449  -4912459.61445  24180279.701    24180287.133
  21321206.152   -22674060.50549 -17130168.47647  21321205.706    21321211.065
  21328439.106   -19720525.15149 -15347208.20847  21328438.339    21328445.305
  22691230.994   -17954122.91249 -13737760.52846  22691230.978    22691236.801
  20904364.740   -25598291.38849 -19929345.65947  20904364.180    20904370.333
  24625546.993    -5793810.64749  -4503386.35545  24625546.549    24625557.426
  24500405.593    -3531920.43849  -2729603.25045  24500405.752    24500413.785
  20509906.668   -28145822.24749 -21638422.32648  20509905.947    20509911.663
 03  6 11  2 14 30.0000000  0  8G25G16G 2G13G 1G27G 4G20
  24196364.492    -6244899.83049  -4846596.17845  24196364.316    24196371.736
  21321820.225   -22670833.56949 -17127653.96747  21321819.741    21321825.130
  21324109.378   -19743277.81949 -15364937.52147  21324108.607    21324115.569
  22677353.493   -18027049.35949 -13794586.27446  22677353.485    22677359.277
  20897817.406   -25632697.82949 -19956155.85647  20897816.853    20897823.011
  24610862.248    -5870978.77949  -4563517.20745  24610861.755    24610872.731
  24500447.466    -3531701.07049  -2729432.36445  24500447.672    24500455.537
  20516591.194   -28110694.88649 -21611050.37648  20516590.470    20516596.192
 03  6 11  2 15  0.0000000  0  8G25G16G 2G13G 1G27G 4G20
  24212447.791    -6160381.88049  -4780738.08445  24212447.532    24212455.058
  21322546.587   -22667016.47849 -17124679.60147  21322546.108    21322551.474
  21319871.040   -19765550.28549 -15382292.66047  21319870.271    21319877.230
  22663489.551   -18099904.44549 -13851356.43646  22663489.523    22663495.370
  20891304.888   -25666921.13349 -19982823.36147  20891304.341    20891310.485
  24596203.838    -5948008.98049  -4623540.59145  24596203.333    24596214.193
  24500584.504    -3530980.97849  -2728871.28345  24500584.628    24500592.665
  20523383.299   -28075002.20149 -21583237.92948  20523382.578    20523388.320
 03  6 11  2 15 30.0000000  0  8G25G16G 2G13G 1G27G 4G20
  24228529.598    -6075871.57949  -4714885.93145  24228529.327    24228536.868
  21323385.167   -22662609.67049 -17121245.69647  21323384.698    21323390.077
  21315724.194   -19787341.90849 -15399273.10847  21315723.462    21315730.367
  22649639.332   -18172687.66449 -13908070.57646  22649639.361    22649645.164
  20884827.444   -25700960.24349 -20009347.33047  20884826.895    20884833.044
  24581571.773    -6024900.78549  -4683456.12745  24581571.242    24581581.938
  24500816.708    -3529760.86749  -2727920.58445  24500816.787    24500824.804
  20530282.819   -28038744.94749 -21554985.55248  20530282.101    20530287.863
 03  6 11  2 16  0.0000000  0  8G25G16G 2G13G 1G27G 4G20
  24244609.673    -5991370.31049  -4649040.81445  24244609.376    24244616.912
  21324335.987   -22657613.13949 -17117352.27947  21324335.510    21324340.872
  21311669.007   -19808652.16849 -15415878.46847  21311668.269    21311675.155
  22635803.025   -18245398.14149 -13964728.04746  22635802.980    22635808.781
  20878385.180   -25734814.41049 -20035727.19947  20878384.625    20878390.802
  24566966.062    -6101654.02849  -4743263.70045  24566965.564    24566976.152
  24501144.132    -3528041.43849  -2726580.80845  24501144.211    24501151.997
  20537289.632   -28001923.96449 -21526293.91748  20537288.901    20537294.690
 03  6 11  2 16 30.0000000  0  8G25G16G 2G13G 1G27G 4G20
  24260687.981    -5906878.34349  -4583202.95845  24260687.665    24260695.238
  21325399.128   -22652026.11049 -17112998.73647  21325398.664    21325404.028
  21307705.607   -19829479.87449 -15432107.81147  21307704.853    21307711.743
  22621980.798   -18318034.33149 -14021327.63746  22621980.769    22621986.515
  20871978.443   -25768481.98449 -20061961.67047  20871977.900    20871984.067
  24552386.829    -6178267.67949  -4802962.50345  24552386.307    24552396.916
  24501566.333    -3525822.93849  -2724852.13645  24501566.329    24501574.241
  20544403.677   -27964539.53149 -21497163.22848  20544402.956    20544408.734
 03  6 11  2 17  0.0000000  0  8G25G16G 2G13G 1G27G 4G20
  24276764.375    -5822396.59249  -4517373.06045  24276764.136    24276771.588
  21326574.416   -22645849.76649 -17108185.98547  21326573.950    21326579.345
  21303834.065   -19849825.06649 -15447961.16247  21303833.293    21303840.156
  22608172.734   -18390596.11649 -14077869.24446  22608172.708    22608178.418
  20865607.321   -25801962.43049 -20088050.32047  20865606.791    20865612.935
  24537834.104    -6254742.01249  -4862552.72145  24537833.622    24537844.158
  24502083.131    -3523106.48949  -2722735.44145  24502083.241    24502091.118
  20551624.687   -27926592.89849 -21467594.46248  20551623.967    20551629.746
 03  6 11  2 17 30.0000000  0  8G25G16G 2G13G 1G27G 4G20
  24292838.774    -5737925.58049  -4451551.53745  24292838.458    24292845.963
  21327861.932   -22639083.66749 -17102913.69047  21327861.489    21327866.896
  21300054.484   -19869686.82149 -15463437.81047  21300053.710    21300060.561
  22594379.053   -18463081.93349 -14134351.66546  22594379.067    22594384.781
  20859272.096   -25835254.37149 -20113992.08847  20859271.547    20859277.704
  24523308.029    -6331076.07449  -4922033.67045  24523307.579    24523318.031
  24502694.708    -3519892.52149  -2720231.05545  24502694.818    24502702.682
  20558952.578   -27888084.75749 -21437588.15748  20558951.864    20558957.636
 03  6 11  2 18  0.0000000  0  8G25G16G 2G13G 1G27G 4G20
  24308910.812    -5653466.68249  -4385739.42845  24308910.531    24308917.969
  21329261.624   -22631728.30449 -17097182.22547  21329261.170    21329266.578
  21296366.895   -19889065.01149 -15478537.65247  21296366.133    21296372.996
  22580599.961   -18535491.25349 -14190774.46746  22580599.946    22580605.704
  20852972.878   -25868357.05149 -20139786.37747  20852972.318    20852978.481
  24508808.584    -6407269.92149  -4981405.34845  24508808.235    24508818.633
  24503400.954    -3516181.99649  -2717339.75045  24503400.859    24503408.821
  20566387.158   -27849016.04149 -21407145.03748  20566386.427    20566392.216
 03  6 11  2 18 30.0000000  0  8G25G16G 2G13G 1G27G 4G20
  24324980.221    -5569021.19549  -4319937.79345  24324980.006    24324987.379
  21330773.371   -22623784.07849 -17090991.91347  21330772.903    21330778.318
  21292771.363   -19907959.38649 -15493260.49747  21292770.612    21292777.473
  22566835.537   -18607823.56049 -14247137.25246  22566835.495    22566841.263
  20846709.762   -25901269.85549 -20165432.71347  20846709.193    20846715.346
  24494335.984    -6483323.55949  -5040667.77445  24494335.544    24494345.904
  24504201.353    -3511976.12549  -2714062.45945  24504201.245    24504209.128
  20573928.097   -27809388.13249 -21376266.17848  20573927.366    20573933.187
 03  6 11  2 19  0.0000000  0  8G25G16G 2G13G 1G27G 4G20
  24341047.062    -5484589.50749  -4254146.92045  24341046.804    24341054.212
  21332397.151   -22615250.95449 -17084342.71647  21332396.689    21332402.087
  21289268.090   -19926369.07949 -15507605.66847  21289267.327    21289274.202
  22553085.957   -18680077.73449 -14303439.16246  22553085.933    22553091.748
  20840482.991   -25933991.69249 -20190930.23947  20840482.424    20840488.578
  24479890.203    -6559236.35549  -5099820.46145  24479889.765    24479900.047
  24505095.843    -3507275.42149  -2710399.58645  24505095.775    24505103.747
  20581575.305   -27769201.77449 -21344952.15748  20581574.602    20581580.449
 03  6 11  2 19 30.0000000  0  8G25G16G 2G13G 1G27G 4G20
  24357111.110    -5400172.62949  -4188367.57945  24357110.823    24357118.303
  21334132.891   -22606129.33749 -17077234.95247  21334132.428    21334137.837
  21285857.104   -19944293.69249 -15521572.85847  21285856.338    21285863.197
  22539351.381   -18752253.00149 -14359679.58346  22539351.372    22539357.215
  20834292.821   -25966521.37549 -20216278.03547  20834292.260    20834298.419
  24465471.299    -6635007.99049  -5158863.12645  24465470.768    24465480.989
  24506084.341    -3502081.05649  -2706352.03645  24506084.221    24506092.240
  20589328.661   -27728457.87449 -21313203.69348  20589327.935    20589333.816
 03  6 11  2 20  0.0000000  0  8G25G16G 2G13G 1G27G 4G20
  24373172.152    -5315771.60549  -4122600.59045  24373171.914    24373179.369
  21335980.517   -22596419.85749 -17069669.10747  21335980.048    21335985.454
  21282538.451   -19961733.19049 -15535162.04247  21282537.676    21282544.540
  22525631.964   -18824348.72449 -14415858.02046  22525631.969    22525637.800
  20828139.299   -25998858.35049 -20241475.66747  20828138.740    20828144.885
  24451079.112    -6710638.57549  -5217795.88945  24451078.681    24451088.912
  24507166.518    -3496393.85349  -2701920.44745  24507166.382    24507174.547
  20597187.800   -27687157.82749 -21281021.86448  20597187.094    20597192.978
 03  6 11  2 20 30.0000000  0  8G25G16G 2G13G 1G27G 4G20
  24389230.167    -5231387.14449  -4056846.51845  24389229.768    24389237.255
  21337940.083   -22586122.34049 -17061645.05147  21337939.602    21337945.012
  21279312.276   -19978686.53949 -15548372.42247  21279311.529    21279318.384
  22511927.948   -18896363.75649 -14471973.57846  22511927.937    22511933.716
  20822022.712   -26031001.27149 -20266522.08747  20822022.144    20822028.244
  24436713.935    -6786127.37449  -5276618.17145  24436713.485    24436723.786
  24508342.334    -3490214.42649  -2697105.32645  24508342.347    24508350.477
  20605152.686   -27645302.32449 -21248407.21248  20605151.960    20605157.843
 03  6 11  2 21  0.0000000  0  8G25G16G 2G13G 1G27G 4G20
  24405284.549    -5147020.62049  -3991106.41445  24405284.144    24405291.638
  21340011.347   -22575237.70449 -17053163.49947  21340010.888    21340016.256
  21276178.614   -19995153.79449 -15561204.02447  21276177.859    21276184.714
  22498239.430   -18968297.35649 -14528025.68346  22498239.413    22498245.166
  20815943.183   -26062949.40249 -20291416.72247  20815942.603    20815948.730
  24422375.732    -6861474.44449  -5335329.99145  24422375.261    24422385.607
  24509611.702    -3483544.10649  -2691907.69745  24509611.739    24509619.853
  20613223.011   -27602892.67649 -21215360.75348  20613222.273    20613228.178
 03  6 11  2 21 30.0000000  0  8G25G16G 2G13G 1G27G 4G20
  24421335.530    -5062671.95849  -3925380.21545  24421335.211    24421342.660
  21342194.344   -22563765.83449 -17044224.36747  21342193.877    21342199.239
  21273137.650   -20011134.17949 -15573656.24747  21273136.884    21273143.744
  22484566.594   -19040148.18849 -14584013.29346  22484566.599    22484572.331
  20809900.977   -26094701.33149 -20316158.47147  20809900.396    20809906.528
  24408064.615    -6936679.16049  -5393930.88145  24408064.060    24408074.521
  24510974.452    -3476383.37449  -2686327.94045  24510974.326    24510982.495
  20621398.593   -27559929.67349 -21181883.11048  20621397.853    20621403.758
 03  6 11  2 22  0.0000000  0  8G25G16G 2G13G 1G27G 4G20
  24437382.856    -4978342.50249  -3859669.02245  24437382.542    24437390.062
  21344488.926   -22551707.62249 -17034828.34947  21344488.468    21344493.829
  21270189.308   -20026627.67049 -15585729.07447  21270188.545    21270195.397
  22470909.649   -19111915.77949 -14639936.03046  22470909.643    22470915.367
  20803896.277   -26126256.23549 -20340746.69647  20803895.703    20803901.832
  24393780.522    -7011741.34449  -5452420.71645  24393780.008    24393790.516
  24512430.106    -3468733.61149  -2680367.10345  24512430.058    24512438.263
  20629679.244   -27516414.56949 -21147975.26248  20629678.511    20629684.420
 03  6 11  2 22 30.0000000  0  8G25G16G 2G13G 1G27G 4G20
  24453426.410    -4894032.52349  -3793972.99445  24453426.135    24453433.825
  21346895.169   -22539062.85349 -17024975.26947  21346894.692    21346900.041
  21267333.733   -20041633.69149 -15597422.03447  21267332.992    21267339.855
  22457268.763   -19183598.83049 -14695792.89346  22457268.787    22457274.478
  20797929.255   -26157612.92749 -20365180.46647  20797928.694    20797934.843
  24379523.565    -7086660.57249  -5510799.16345  24379523.177    24379533.620
  24513978.758    -3460595.23749  -2674025.53245  24513978.786    24513986.835
  20638064.785   -27472348.10549 -21113637.77647  20638064.085    20638070.023
 03  6 11  2 23  0.0000000  0  8G25G16G 2G13G 1G27G 4G20
  24469465.954    -4809744.08949  -3728293.76645  24469465.741    24469473.426
  21349412.710   -22525833.00349 -17014666.28447  21349412.230    21349417.580
  21264570.854   -20056152.70049 -15608735.48147  21264570.095    21264576.947
  22443643.938   -19255197.63649 -14751584.11646  22443643.989    22443649.652
  20792000.018   -26188771.18749 -20389459.61447  20791999.458    20792005.622
  24365293.842    -7161437.63749  -5569066.83345  24365293.569    24365303.893
  24515620.020    -3451970.58149  -2667305.05445  24515619.880    24515628.103
  20646554.858   -27427732.57849 -21078872.45747  20646554.158    20646560.118
 03  6 11  2 23 30.0000000  0  8G25G16G 2G13G 1G27G 4G20
  24485501.394    -4725477.67449  -3662631.68645  24485501.170    24485508.892
  21352041.537   -22512018.29049 -17003901.54847  21352041.089    21352046.431
  21261900.783   -20070184.01449 -15619668.90147  21261900.003    21261906.818
  22430035.540   -19326710.17149 -14807308.10046  22430035.579    22430041.181
  20786108.856   -26219729.45949 -20413582.92148  20786108.307    20786114.468
  24351091.329    -7236071.54849  -5627222.94245  24351091.041    24351101.331
  24517353.684    -3442859.88349  -2660205.85045  24517353.569    24517361.810
  20655149.296   -27382568.59849 -21043679.76147  20655148.588    20655154.562
 03  6 11  2 24  0.0000000  0  8G25G16G 2G13G 1G27G 4G20
  24501532.566    -4641233.52249  -3596986.96645  24501532.222    24501540.051
  21354781.666   -22497618.99649 -16992681.30847  21354781.203    21354786.518
  21259323.516   -20083727.21849 -15630222.01647  21259322.747    21259329.552
  22416443.691   -19398135.80749 -14862964.38146  22416443.729    22416449.281
  20780255.942   -26250486.70749 -20437549.59348  20780255.379    20780261.523
  24336916.049    -7310562.14149  -5685267.37945  24336915.725    24336926.062
  24519179.657    -3433264.16249  -2652728.70645  24519179.685    24519187.901
  20663847.917   -27336857.16449 -21008060.48847  20663847.196    20663853.173
 03  6 11  2 24 30.0000000  0  8G25G16G 2G13G 1G27G 4G20
  24517559.425    -4557012.41249  -3531360.16945  24517559.146    24517566.822
  21357632.979   -22482635.34349 -16981005.72247  21357632.519    21357637.807
  21256839.296   -20096781.67849 -15640394.29347  21256838.527    21256845.337
  22402868.613   -19469473.20949 -14918551.90246  22402868.637    22402874.199
  20774441.550   -26281041.51649 -20461358.51348  20774440.994    20774447.122
  24322768.242    -7384908.87549  -5743199.71545  24322767.958    24322778.150
  24521097.882    -3423184.25649  -2644874.26245  24521097.838    24521106.037
  20672650.499   -27290599.46749 -20972015.54947  20672649.782    20672655.751
 03  6 11  2 25  0.0000000  0  8G25G16G 2G13G 1G27G 4G20
  24533581.691    -4472815.22849  -3465752.04145  24533581.345    24533589.208
  21360595.281   -22467068.43549 -16968875.65847  21360594.818    21360600.081
  21254447.999   -20109347.78149 -15650186.04447  21254447.222    21254454.059
  22389310.397   -19540721.65049 -14974070.10746  22389310.433    22389315.988
  20768665.773   -26311393.39549 -20485009.31548  20768665.222    20768671.334
  24308647.903    -7459111.79449  -5801019.99545  24308647.504    24308657.644
  24523107.920    -3412621.48949  -2636643.56845  24523107.876    24523116.013
  20681556.716   -27243797.12149 -20935546.21047  20681556.007    20681561.982
 03  6 11  2 25 30.0000000  0  8G25G16G 2G13G 1G27G 4G20
  24549599.130    -4388643.35049  -3400163.61445  24549598.826    24549606.531
  21363668.402   -22450918.95949 -16956291.64447  21363667.941    21363673.221
  21252149.650   -20121425.50649 -15659597.24247  21252148.884    21252155.729
  22375769.282   -19611880.52649 -15029518.52446  22375769.287    22375774.805
  20762928.770   -26341541.38049 -20508501.23748  20762928.214    20762934.335
  24294554.804    -7533170.87849  -5858728.19245  24294554.480    24294564.481
  24525209.551    -3401577.28349  -2628037.72145  24525209.531    24525217.555
  20690566.341   -27196451.31349 -20898653.38847  20690565.619    20690571.601
 03  6 11  2 26  0.0000000  0  8G25G16G 2G13G 1G27G 4G20
  24565611.923    -4304496.25649  -3334594.50945  24565611.611    24565619.250
  21366852.500   -22434186.37149 -16943253.26147  21366852.046    21366857.307
  21249944.496   -20133013.43949 -15668626.78347  21249943.720    21249950.570
  22362245.573   -19682947.78449 -15084895.54446  22362245.589    22362251.137
  20757231.020   -26371483.24149 -20531832.54548  20757230.468    20757236.573
  24280489.315    -7607085.09649  -5916323.51545  24280489.037    24280498.875
  24527402.777    -3390051.61849  -2619056.72045  24527402.733    24527410.885
  20699679.314   -27148562.41749 -20861337.38447  20699678.591    20699684.581
 03  6 11  2 26 30.0000000  0  8G25G16G 2G13G 1G27G 4G20
  24581619.405    -4220376.84649  -3269046.99045  24581619.109    24581626.728
  21370146.993   -22416873.62149 -16929762.80047  21370146.535    21370151.807
  21247832.234   -20144113.39349 -15677276.08247  21247831.452    21247838.306
  22348739.079   -19753924.69849 -15140202.18946  22348739.070    22348744.616
  20751572.319   -26401219.98449 -20555004.02248  20751571.766    20751577.853
  24266451.184    -7680855.77849  -5973807.00245  24266450.796    24266460.526
  24529686.952    -3378047.74649  -2609703.08845  24529686.981    24529695.195
  20708895.013   -27100133.76649 -20823600.78847  20708894.291    20708900.282
 03  6 11  2 27  0.0000000  0  8G25G16G 2G13G 1G27G 4G20
  24597621.619    -4136284.50049  -3203520.54145  24597621.291    24597629.015
  21373552.061   -22398979.76149 -16915819.52847  21373551.608    21373556.897
  21245813.063   -20154723.99249 -15685544.05847  21245812.300    21245819.134
  22335250.264   -19824808.73649 -15195436.45146  22335250.248    22335255.752
  20745953.083   -26430749.17749 -20578013.77148  20745952.526    20745958.600
  24252440.543    -7754481.75649  -6031177.72445  24252440.105    24252449.855
  24532062.349    -3365565.65549  -2599976.80945  24532062.476    24532070.474
  20718213.455   -27051165.15049 -20785443.44147  20718212.730    20718218.723
 03  6 11  2 27 30.0000000  0  8G25G16G 2G13G 1G27G 4G20
  24613618.681    -4052219.64349  -3138015.49845  24613618.417    24613626.134
  21377067.567   -22380505.45549 -16901423.95547  21377067.115    21377072.423
  21243887.098   -20164844.94549 -15693430.48747  21243886.324    21243893.151
  22321779.364   -19895598.61549 -15250597.34346  22321779.334    22321784.836
  20740373.572   -26460069.61949 -20600860.85348  20740373.029    20740379.104
  24238457.496    -7827962.62149  -6088435.38445  24238457.065    24238466.793
  24534528.502    -3352606.14649  -2589878.50545  24534528.649    24534536.609
  20727634.397   -27001657.81549 -20746866.31647  20727633.668    20727639.673
 03  6 11  2 28  0.0000000  0  8G25G16G 2G13G 1G27G 4G20
  24629610.252    -3968183.28649  -3072532.67445  24629609.946    24629617.767
  21380693.411   -22361451.44849 -16886576.67247  21380692.954    21380698.278
  21242054.307   -20174476.21149 -15700935.33147  21242053.542    21242060.366
  22308326.534   -19966293.48749 -15305684.21246  22308326.507    22308331.955
  20734833.968   -26489180.40349 -20623544.57148  20734833.424    20734839.480
  24224502.104    -7901298.19949  -6145579.84245  24224501.687    24224511.427
  24537085.132    -3339170.72349  -2579409.35645  24537085.410    24537093.319
  20737157.501   -26951613.49949 -20707870.76747  20737156.785    20737162.793
 03  6 11  2 28 30.0000000  0  8G25G16G 2G13G 1G27G 4G20
  24645596.391    -3884175.98149  -3007072.49045  24645596.239    24645603.739
  21384429.466   -22341818.27649 -16871278.09047  21384429.018    21384434.384
  21240314.770   -20183617.39549 -15708058.30147  21240313.997    21240320.802
  22294891.937   -20036892.41649 -15360696.32846  22294891.928    22294897.321
  20729334.546   -26518080.12749 -20646063.82648  20729333.991    20729340.033
  24210574.398    -7974488.08549  -6202610.76845  24210574.018    24210583.630
  24539732.161    -3325260.34149  -2568570.12245  24539732.387    24539740.353
  20746782.627   -26901033.21849 -20668457.58047  20746781.922    20746787.909
 03  6 11  2 29  0.0000000  0  8G25G16G 2G13G 1G27G 4G20
  24661576.698    -3800199.07549  -2941635.98945  24661576.546    24661584.105
  21388275.514   -22321607.03549 -16855529.06647  21388275.055    21388280.421
  21238668.394   -20192269.12149 -15714799.87547  21238667.616    21238674.392
  22281475.788   -20107394.62449 -15415633.07346  22281475.746    22281481.155
  20723875.333   -26546768.42949 -20668418.33548  20723874.760    20723880.826
  24196674.237    -8047532.71849  -6259528.51245  24196673.852    24196683.553
  24542469.395    -3310876.77649  -2557362.15645  24542469.582    24542477.447
  20756509.331   -26849919.08649 -20628628.40947  20756508.618    20756514.637
 03  6 11  2 29 30.0000000  0  8G25G16G 2G13G 1G27G 4G20
  24677551.179    -3716253.25349  -2876223.71545  24677551.087    24677558.498
  21392231.332   -22300818.99549 -16839330.58447  21392230.867    21392236.236
  21237115.143   -20200431.46849 -15721160.11848  21237114.362    21237121.149
  22268078.101   -20177799.43249 -15470493.92346  22268078.110    22268083.537
  20718456.527   -26575244.26549 -20690607.29148  20718455.991    20718462.039
  24182801.793    -8120432.15949  -6316333.12445  24182801.465    24182811.138
  24545296.333    -3296021.59149  -2545786.71345  24545296.514    24545304.312
  20766337.287   -26798272.70749 -20588384.50347  20766336.584    20766342.600
 03  6 11  2 30  0.0000000  0  8G25G16G 2G13G 1G27G 4G20
  24693519.329    -3632340.41249  -2810837.12245  24693519.172    24693526.551
  21396296.602   -22279455.72049 -16822683.86747  21396296.162    21396301.497
  21235654.860   -20208105.16449 -15727139.59048  21235654.093    21235660.829
  22254699.027   -20248106.55549 -15525278.65746  22254699.072    22254704.478
  20713078.208   -26603507.44849 -20712630.54148  20713077.665    20713083.703
  24168956.976    -8193186.96849  -6373025.04945  24168956.520    24168966.065
  24548212.576    -3280696.84849  -2533845.37445  24548212.745    24548220.592
  20776266.153   -26746096.33749 -20547727.62147  20776265.441    20776271.471
 03  6 11  2 30 30.0000000  0  8G25G16G 2G13G 1G27G 4G20
  24709481.751    -3548457.63849  -2745473.97245  24709481.582    24709488.866
  21400471.821   -22257514.90749 -16805587.12147  21400471.392    21400476.693
  21234288.160   -20215287.12749 -15732735.89948  21234287.399    21234294.117
  22241339.379   -20318311.88749 -15579984.08546  22241339.391    22241344.809
  20707741.151   -26631553.81849 -20734484.85148  20707740.590    20707746.622
  24155140.280    -8265793.92049  -6429601.75245  24155139.915    24155149.289
  24551218.488    -3264900.79449  -2521536.76645  24551218.665    24551226.427
  20786296.176   -26693388.19249 -20506656.36747  20786295.467    20786301.526
 03  6 11  2 31  0.0000000  0  8G25G16G 2G13G 1G27G 4G20
  24725437.849    -3464607.87949  -2680136.54545  24725437.685    24725444.950
  21404756.382   -22234999.39849 -16788042.55847  21404755.926    21404761.199
  21233014.620   -20221979.44449 -15737950.66848  21233013.860    21233020.580
  22227998.945   -20388416.36149 -15634610.91946  22227998.946    22228004.350
  20702445.157   -26659384.41749 -20756171.02448  20702444.606    20702450.652
  24141351.390    -8338254.76549  -6486064.61545  24141351.020    24141360.199
  24554313.440    -3248636.56949  -2508863.37845  24554313.553    24554321.447
  20796426.741   -26640151.89449 -20465173.56847  20796426.044    20796432.081
 03  6 11  2 31 30.0000000  0  8G25G16G 2G13G 1G27G 4G20
  24741387.478    -3380792.20749  -2614825.66845  24741387.214    24741394.549
  21409149.964   -22211910.84349 -16770051.46447  21409149.534    21409154.797
  21231834.166   -20228182.58849 -15742784.26248  21231833.408    21231840.130
  22214677.741   -20458419.41249 -15689158.72746  22214677.788    22214683.156
  20697190.388   -26686998.39249 -20777688.40348  20697189.834    20697195.873
  24127590.181    -8410569.85449  -6542413.89845  24127589.927    24127598.984
  24557496.990    -3231906.37349  -2495826.86845  24557497.099    24557505.084
  20806657.439   -26586389.36849 -20423280.71547  20806656.721    20806662.776
 03  6 11  2 32  0.0000000  0  8G25G16G 2G13G 1G27G 4G20
  24757330.633    -3297010.69149  -2549541.42145  24757330.427    24757337.679
  21413652.622   -22188249.17849 -16751613.79647  21413652.187    21413657.451
  21230746.947   -20233895.83149 -15747236.12848  21230746.190    21230752.937
  22201376.219   -20528319.31849 -15743626.15946  22201376.267    22201381.594
  20691977.206   -26714393.88649 -20799035.54048  20691976.663    20691982.707
  24113856.831    -8482738.21949  -6598648.85445  24113856.565    24113865.699
  24560769.223    -3214710.70849  -2482427.66845  24560769.333    24560777.298
  20816988.102   -26532101.50849 -20380978.51047  20816987.389    20816993.450
 03  6 11  2 32 30.0000000  0  8G25G16G 2G13G 1G27G 4G20
  24773267.230    -3213264.11649  -2484284.37145  24773267.004    24773274.121
  21418264.040   -22164015.71449 -16732730.56447  21418263.605    21418268.910
  21229752.860   -20239119.51549 -15751306.50648  21229752.108    21229758.858
  22188094.492   -20598115.28349 -15798012.60146  22188094.532    22188099.853
  20686805.697   -26741570.26149 -20820211.92848  20686805.133    20686811.205
  24100151.289    -8554760.31149  -6654769.85945  24100151.033    24100160.175
  24564129.828    -3197051.17249  -2468667.03445  24564129.867    24564137.757
  20827418.360   -26477290.33749 -20338268.53647  20827417.629    20827423.669
 03  6 11  2 33  0.0000000  0  8G25G16G 2G13G 1G27G 4G20
  24789196.925    -3129553.45149  -2419055.30345  24789196.706    24789203.532
  21422984.151   -22139211.27049 -16713402.42047  21422983.717    21422989.026
  21228851.960   -20243853.70549 -15754995.46948  21228851.202    21228857.941
  22174832.701   -20667806.22149 -15852317.20446  22174832.743    22174838.097
  20681676.107   -26768526.28649 -20841216.62448  20681675.554    20681681.629
  24086473.795    -8626635.71449  -6710776.55645  24086473.482    24086482.607
  24567578.274    -3178929.30349  -2454546.13545  24567578.390    24567586.357
  20837947.928   -26421957.23649 -20295151.87247  20837947.209    20837953.220
 03  6 11  2 33 30.0000000  0  8G25G16G 2G13G 1G27G 4G20
  24805119.745    -3045879.12849  -2353854.56545  24805119.533    24805126.179
  21427812.763   -22113836.80149 -16693630.09247  21427812.314    21427817.631
  21228044.206   -20248098.44249 -15758303.03248  21228043.441    21228050.188
  22161591.183   -20737390.85349 -15906538.97446  22161591.230    22161596.539
  20676588.713   -26795260.77949 -20862048.69348  20676588.156    20676594.214
  24072824.215    -8698364.24649  -6766668.79945  24072823.891    24072833.075
  24571114.425    -3160346.23649  -2440065.85845  24571114.611    24571122.661
  20848576.539   -26366103.51149 -20251629.52147  20848575.831    20848581.849
 03  6 11  2 34  0.0000000  0  8G25G16G 2G13G 1G27G 4G20
  24821035.317    -2962242.32549  -2288683.04045  24821035.015    24821041.660
  21432749.568   -22087893.54549 -16673414.56047  21432749.137    21432754.487
  21227329.488   -20251854.21949 -15761229.58448  21227328.716    21227335.444
  22148370.023   -20806868.31049 -15960677.23546  22148370.072    22148375.385
  20671543.580   -26821772.95949 -20882707.53548  20671543.038    20671549.081
  24059202.537    -8769946.25649  -6822446.87545  24059202.162    24059211.349
  24574738.052    -3141304.11649  -2425227.86445  24574738.113    24574746.311
  20859303.830   -26309731.35149 -20207703.20047  20859303.125    20859309.147
 03  6 11  2 34 30.0000000  0  8G25G16G 2G13G 1G27G 4G20
  24836943.747    -2878642.89449  -2223540.68745  24836943.383    24836950.105
  21437794.531   -22061381.96749 -16652756.18047  21437794.104    21437799.435
  21226707.926   -20255120.54949 -15763774.74948  21226707.146    21226713.862
  22135169.585   -20876236.91149 -16014730.67046  22135169.621    22135174.987
  20666541.140   -26848060.97249 -20903191.70448  20666540.592    20666546.651
  24045608.818    -8841380.85149  -6878110.08245  24045608.422    24045617.683
  24578448.874    -3121803.45049  -2410032.56945  24578448.984    24578457.100
  20870129.617   -26252841.69149 -20163373.62547  20870128.910    20870134.936
 03  6 11  2 35  0.0000000  0  8G25G16G 2G13G 1G27G 4G20
  24852845.027    -2795081.24249  -2158427.74045  24852844.624    24852851.324
  21442947.477   -22034303.14549 -16631655.78447  21442947.037    21442952.364
  21226179.464   -20257897.60349 -15765938.66248  21226178.692    21226185.394
  22121990.052   -20945495.64249 -16068698.50046  22121990.095    22121995.472
  20661581.534   -26874123.83849 -20923500.43348  20661580.995    20661587.041
  24032043.224    -8912668.10249  -6933658.47345  24032042.774    24032051.999
  24582246.691    -3101845.85449  -2394481.23545  24582246.725    24582255.065
  20881053.476   -26195436.41649 -20118642.27247  20881052.758    20881058.814
 03  6 11  2 35 30.0000000  0  8G25G16G 2G13G 1G27G 4G20
  24868738.905    -2711558.43349  -2093345.05745  24868738.601    24868745.224
  21448208.038   -22006658.53549 -16610114.51947  21448207.605    21448212.974
  21225743.991   -20260185.94249 -15767721.76648  21225743.234    21225749.937
  22108831.584   -21014643.92149 -16122580.25746  22108831.585    22108836.954
  20656664.950   -26899960.68949 -20943633.04948  20656664.409    20656670.446
  24018505.651    -8983808.03449  -6989092.07245  24018505.215    24018514.413
  24586131.057    -3081433.14949  -2378575.26445  24586131.076    24586139.424
  20892075.107   -26137517.38249 -20073510.60447  20892074.408    20892080.456
 03  6 11  2 36  0.0000000  0  7G16G 2G13G 1G27G 4G20
  21453576.341   -21978447.70749 -16588132.04447  21453575.928    21453581.284
  21225401.713   -20261984.40449 -15769123.14048  21225400.941    21225407.652
  22095694.556   -21083679.21949 -16176373.97046  22095694.619    22095699.989
  20651791.840   -26925569.06849 -20963587.63048  20651791.292    20651797.330
  24004996.338    -9054799.39849  -7044409.90745  24004995.847    24005005.043
  24590102.121    -3060565.72049  -2362314.95145  24590102.196    24590110.531
  20903194.479   -26079084.88549 -20027978.82747  20903193.760    20903199.832
 03  6 11  2 36 30.0000000  0  7G16G 2G13G 1G27G 4G20
  21459052.122   -21949672.44849 -16565709.74847  21459051.688    21459057.079
  21225152.549   -20263293.69349 -15770143.34048  21225151.793    21225158.463
  22082579.211   -21152600.72249 -16230079.00446  22082579.269    22082584.628
  20646962.297   -26950948.44449 -20983363.75948  20646961.756    20646967.781
  23991515.300    -9125642.46349  -7099612.18245  23991514.840    23991524.022
  24594159.226    -3039245.65849  -2345701.94345  24594159.277    24594167.602
  20914411.031   -26020141.50449 -19982048.95347  20914410.325    20914416.434
 03  6 11  2 37  0.0000000  0  7G16G 2G13G 1G27G 4G20
  21464634.735   -21920335.71649 -16542849.94547  21464634.283    21464639.688
  21224996.054   -20264115.99449 -15770784.07348  21224995.292    21225001.964
  22069485.439   -21221409.08449 -16283695.88546  22069485.483    22069490.837
  20642176.182   -26976099.57849 -21002962.04548  20642175.639    20642181.667
  23978062.080    -9196339.23749  -7154700.46445  23978061.534    23978070.812
  24598301.887    -3017476.24449  -2328738.77945  24598302.000    24598310.166
  20925724.206   -25960690.51049 -19935723.53747  20925723.503    20925729.599
 03  6 11  2 37 30.0000000  0  7G16G 2G13G 1G27G 4G20
  21470324.057   -21890437.96349 -16519552.97947  21470323.614    21470329.022
  21224932.312   -20264450.80249 -15771044.94248  21224931.556    21224938.232
  22056413.411   -21290102.84849 -16337223.45746  22056413.433    22056418.823
  20637433.902   -27001020.50349 -21022380.94048  20637433.352    20637439.400
  23964636.883    -9266888.79949  -7209674.03145  23964636.378    23964645.603
  24602529.767    -2995258.42349  -2311426.21745  24602529.813    24602538.117
  20937133.732   -25900733.19249 -19889003.58047  20937133.024    20937139.124
 03  6 11  2 38  0.0000000  0  7G16G 2G13G 1G27G 4G20
  21476119.966   -21859980.21949 -16495819.65647  21476119.502    21476124.898
  21224961.336   -20264298.07949 -15770925.91548  21224960.596    21224967.266
  22043363.441   -21358680.54049 -16390660.58346  22043363.487    22043368.910
  20632735.656   -27025709.76949 -21041619.32048  20632735.105    20632741.174
  23951239.651    -9337290.83049  -7264532.64745  23951239.153    23951248.464
  24606842.936    -2972593.53849  -2293765.27945  24606842.887    24606851.042
  20948639.365   -25840270.96349 -19841890.18647  20948638.669    20948644.741
 03  6 11  2 38 30.0000000  0  7G16G 2G13G 1G27G 4G20
  21482022.288   -21828963.36049 -16471650.66147  21482021.836    21482027.201
  21225083.128   -20263657.90549 -15770427.05748  21225082.391    21225089.040
  22030335.887   -21427140.44649 -16444005.93546  22030335.956    22030341.376
  20628081.759   -27050166.10449 -21060676.19948  20628081.227    20628087.298
  23937870.495    -9407544.98849  -7319276.03345  23937870.058    23937879.464
  24611240.898    -2949482.87049  -2275756.96945  24611240.782    24611248.830
  20960240.793   -25779305.30849 -19794384.51147  20960240.088    20960246.130
 03  6 11  2 39  0.0000000  0  7G16G 2G13G 1G27G 4G20
  21488030.656   -21797389.16949 -16447047.38047  21488030.196    21488035.521
  21225297.527   -20262531.17449 -15769549.06148  21225296.783    21225303.424
  22017330.906   -21495481.89549 -16497258.96546  22017330.989    22017336.400
  20623472.316   -27074388.80649 -21079551.01948  20623471.778    20623477.850
  23924529.526    -9477651.49549  -7373904.37545  23924529.073    23924538.440
  24615723.082    -2925928.77449  -2257403.15445  24615722.989    24615731.166
  20971937.583   -25717838.50749 -19746488.32947  20971936.860    20971942.895
 03  6 11  2 39 30.0000000  0  7G16G 2G13G 1G27G 4G20
  21494145.014   -21765258.03249 -16422010.11747  21494144.553    21494149.851
  21225604.591   -20260917.43649 -15768291.58748  21225603.860    21225610.489
  22004348.847   -21563703.20349 -16550418.38847  22004348.886    22004354.295
  20618907.691   -27098376.01049 -21098242.33948  20618907.158    20618913.234
  23911216.842    -9547609.93849  -7428417.34745  23911216.439    23911225.677
  24620289.541    -2901931.99949  -2238704.36745  24620289.458    24620297.477
  20983729.510   -25655871.71149 -19698202.54747  20983728.797    20983734.829
 03  6 11  2 40  0.0000000  0  7G16G 2G13G 1G27G 4G20
  21500364.983   -21732571.64149 -16396540.18247  21500364.527    21500369.837
  21226004.194   -20258817.48549 -15766655.24048  21226003.463    21226010.076
  21991389.776   -21631803.46049 -16603483.47647  21991389.828    21991395.177
  20614388.022   -27122126.89749 -21116749.51048  20614387.497    20614393.575
  23897932.316    -9617420.45249  -7482815.04645  23897931.896    23897941.044
  24624939.599    -2877494.72749  -2219662.34945  24624939.609    24624947.768
  20995616.092   -25593407.21049 -19649528.93347  20995615.388    20995621.439
 03  6 11  2 40 30.0000000  0  7G16G 2G13G 1G27G 4G20
  21506690.507   -21699330.74449 -16370638.17047  21506690.058    21506695.333
  21226496.364   -20256231.06749 -15764639.83048  21226495.623    21226502.211
  21978454.054   -21699780.92649 -16656452.88447  21978454.133    21978459.464
  20609913.680   -27145639.78949 -21135071.23648  20609913.154    20609919.220
  23884676.024    -9687082.49749  -7537097.06145  23884675.623    23884684.658
  24629673.392    -2852618.06149  -2200277.96145  24629673.441    24629681.680
  21007597.136   -25530446.42449 -19600468.61347  21007596.414    21007602.510
 03  6 11  2 41  0.0000000  0  7G16G 2G13G 1G27G 4G20
  21513121.161   -21665537.54749 -16344305.78947  21513120.686    21513125.944
  21227080.902   -20253159.28549 -15762246.21748  21227080.168    21227086.750
  21965541.776   -21767635.47549 -16709326.50747  21965541.822    21965547.118
  20605484.674   -27168914.41549 -21153207.29548  20605484.150    20605490.204
  23871447.903    -9756596.88849  -7591264.02145  23871447.470    23871456.406
  24634490.460    -2827304.65149  -2180553.24245  24634490.448    24634498.775
  21019672.102   -25466992.10049 -19551023.71547  21019671.404    21019677.498
 03  6 11  2 41 30.0000000  0  7G16G 2G13G 1G27G 4G20
  21519656.628   -21631193.22349 -16317543.96447  21519656.162    21519661.429
  21227757.735   -20249602.48949 -15759474.67248  21227757.000    21227763.548
  21952653.190   -21835365.39249 -16762103.01947  21952653.224    21952658.531
  20601101.244   -27191949.31649 -21171156.55348  20601100.725    20601106.800
  23858247.873    -9825963.17049  -7645315.57045  23858247.409    23858256.277
  24639390.310    -2801555.83649  -2160489.25745  24639390.244    24639398.665
  21031840.663   -25403045.85649 -19501195.51447  21031839.960    21031846.096
 03  6 11  2 42  0.0000000  0  7G16G 2G13G 1G27G 4G20
  21526296.841   -21596298.48349 -16290353.24347  21526296.385    21526301.652
  21228526.845   -20245560.83549 -15756325.30648  21228526.097    21228532.645
  21939788.597   -21902969.15049 -16814781.21947  21939788.650    21939793.940
  20596763.772   -27214742.93749 -21188917.79948  20596763.238    20596769.310
  23845076.050    -9895180.96849  -7699251.41445  23845075.637    23845084.445
  24644372.735    -2775373.17849  -2140087.19645  24644372.766    24644381.104
  21044102.592   -25338609.11549 -19450985.11147  21044101.891    21044108.041
 03  6 11  2 42 30.0000000  0  7G16G 2G13G 1G27G 4G20
  21533041.464   -21560855.27749 -16262735.14747  21533041.006    21533046.277
  21229388.069   -20241035.07649 -15752798.72148  21229387.331    21229393.848
  21926948.136   -21970445.96049 -16867360.50147  21926948.180    21926953.445
  20592472.324   -27237294.54149 -21206490.46448  20592471.788    20592477.864
  23831932.333    -9964250.90049  -7753072.04345  23831931.967    23831940.801
  24649437.369    -2748758.69249  -2119348.64945  24649437.389    24649445.604
  21056457.405   -25273684.30149 -19400394.39847  21056456.698    21056462.837
 03  6 11  2 43  0.0000000  0  7G16G 2G13G 1G27G 4G20
  21539890.291   -21524864.38249 -16234690.28547  21539889.845    21539895.104
  21230341.500   -20236024.76349 -15748894.56048  21230340.751    21230347.260
  21914132.227   -22037793.97649 -16919839.43347  21914132.262    21914137.514
  20588227.269   -27259602.37749 -21223873.17948  20588226.727    20588232.805
  23818816.979   -10033172.00549  -7806776.69945  23818816.627    23818825.486
  24654583.771    -2721713.51349  -2098274.51545  24654583.837    24654592.139
  21068904.826   -25208272.79449 -19349424.44647  21068904.121    21068910.266
 03  6 11  2 43 30.0000000  0  7G16G 2G13G 1G27G 4G20
  21546843.050   -21488327.34349 -16206219.85547  21546842.621    21546847.844
  21231386.894   -20230531.00049 -15744613.68448  21231386.147    21231392.649
  21901340.954   -22105012.13449 -16972217.17647  21901340.957    21901346.258
  20584028.755   -27281665.62649 -21241065.30548  20584028.224    20584034.299
  23805729.943   -10101944.77249  -7860365.77345  23805729.516    23805738.314
  24659811.902    -2694239.96549  -2076866.56345  24659812.007    24659820.149
  21081444.380   -25142376.93849 -19298077.07247  21081443.700    21081449.859
 03  6 11  2 44  0.0000000  0  7G16G 2G13G 1G27G 4G20
  21553899.263   -21451246.73549 -16177325.86847  21553898.826    21553904.074
  21232524.073   -20224554.91049 -15739956.96848  21232523.330    21232529.857
  21888574.544   -22172099.93249 -17024493.33847  21888574.545    21888579.877
  20579876.856   -27303483.88149 -21258066.52648  20579876.338    20579882.389
  23792670.931   -10170569.90949  -7913839.80845  23792670.527    23792679.229
  24665121.135    -2666340.62049  -2055126.83245  24665121.242    24665129.253
  21094075.653   -25075999.40649 -19246354.36447  21094074.956    21094081.133
 03  6 11  2 44 30.0000000  0  7G16G 2G13G 1G27G 4G20
  21561058.780   -21413622.96149 -16148008.63447  21561058.350    21561063.600
  21233753.074   -20218096.39749 -15734924.33848  21233752.319    21233758.865
  21875833.249   -22239055.62949 -17076666.56247  21875833.246    21875838.560
  20575771.962   -27325055.17049 -21274875.30348  20575771.430    20575777.497
  23779640.170   -10239046.73049  -7967198.27845  23779639.778    23779648.451
  24670511.171    -2638016.43749  -2033056.05945  24670511.191    24670519.304
  21106798.352   -25009141.36249 -19194257.23147  21106797.648    21106803.840
 03  6 11  2 45  0.0000000  0  7G16G 2G13G 1G27G 4G20
  21568321.472   -21375457.18049 -16118269.05847  21568321.042    21568326.285
  21235073.792   -20211155.68049 -15729515.96248  21235073.055    21235079.609
  21863117.437   -22305877.52349 -17128735.53147  21863117.439    21863122.698
  20571714.333   -27346377.94049 -21291490.42748  20571713.809    20571719.902
  23766637.707   -10307374.84849  -8020440.86645  23766637.290    23766645.909
  24675981.357    -2609269.10949  -2010655.57345  24675981.464    24675989.948
  21119612.106   -24941804.80349 -19141787.22547  21119611.407    21119617.611
 03  6 11  2 45 30.0000000  0  7G16G 2G13G 1G27G 4G20
  21575686.959   -21336751.30049 -16088108.62447  21575686.513    21575691.776
  21236486.184   -20203733.43249 -15723732.36648  21236485.437    21236491.993
  21850427.248   -22372564.73149 -17180699.54847  21850427.234    21850432.466
  20567704.196   -27367451.31249 -21307911.21548  20567703.655    20567709.750
  23753663.486   -10375554.46649  -8073567.74045  23753663.091    23753671.614
  24681531.833    -2580100.53449  -1987926.85645  24681531.931    24681540.382
  21132516.517   -24873992.00049 -19088946.12147  21132515.824    21132522.022
 03  6 11  2 46  0.0000000  0  7G16G 2G13G 1G27G 4G20
  21583154.806   -21297507.18049 -16057528.79147  21583154.393    21583159.697
  21237989.957   -20195830.87749 -15717574.51348  21237989.206    21237995.766
  21837762.848   -22439116.36949 -17232557.93847  21837762.852    21837768.073
  20563741.635   -27388274.62849 -21324137.16748  20563741.118    20563747.200
  23740717.351   -10443586.21249  -8126579.39445  23740716.904    23740725.475
  24687162.217    -2550513.36249  -1964871.93645  24687162.293    24687170.564
  21145511.072   -24805705.27149 -19035735.72447  21145510.368    21145516.567
 03  6 11  2 46 30.0000000  0  7G16G 2G13G 1G27G 4G20
  21590724.974   -21257725.75749 -16026530.27747  21590724.543    21590729.871
  21239585.133   -20187447.99549 -15711042.37448  21239584.382    21239590.952
  21825124.596   -22505530.61649 -17284309.26547  21825124.611    21825129.789
  20559826.996   -27408846.14649 -21340166.90748  20559826.468    20559832.538
  23727799.407   -10511469.51749  -8179475.39045  23727798.987    23727807.636
  24692872.097    -2520508.81249  -1941491.77945  24692872.120    24692880.204
  21158595.495   -24736946.28049 -18982157.32947  21158594.800    21158601.026
 03  6 11  2 47  0.0000000  0  7G16G 2G13G 1G27G 4G20
  21598396.927   -21217409.38449 -15995114.92447  21598396.482    21598401.807
  21241271.506   -20178585.84349 -15704136.78448  21241270.764    21241277.349
  21812512.628   -22571806.80949 -17335953.02747  21812512.632    21812517.808
  20555960.369   -27429165.25749 -21355999.96648  20555959.835    20555965.929
  23714909.661   -10579204.75049  -8232255.99345  23714909.211    23714917.962
  24698660.803    -2490089.38149  -1917788.37545  24698660.733    24698668.941
  21171769.287   -24667717.69349 -18928213.01547  21171768.590    21171774.833
 03  6 11  2 47 30.0000000  0  7G16G 2G13G 1G27G 4G20
  21606170.502   -21176558.64149 -15963283.16747  21606170.090    21606175.429
  21243049.154   -20169244.19949 -15696857.55648  21243048.434    21243054.994
  21799927.402   -22637942.45749 -17387487.26147  21799927.424    21799932.621
  20552142.182   -27449229.90849 -21371634.73948  20552141.649    20552147.729
  23702048.247   -10646791.31049  -8284920.75245  23702047.794    23702056.597
  24704527.937    -2459256.02249  -1893762.41545  24704527.932    24704536.488
  21185032.193   -24598020.76949 -18873903.75247  21185031.498    21185037.760
 03  6 11  2 48  0.0000000  0  7G16G 2G13G 1G27G 4G20
  21614045.483   -21135175.44649 -15931036.52447  21614045.048    21614050.386
  21244917.865   -20159424.16549 -15689205.56148  21244917.120    21244923.667
  21787369.092   -22703936.73349 -17438911.34447  21787369.118    21787374.316
  20548372.556   -27469039.24249 -21387070.56648  20548372.038    20548378.122
  23689215.106   -10714229.59049  -8337469.96645  23689214.668    23689223.407
  24710473.406    -2428011.31749  -1869415.93745  24710473.545    24710482.282
  21198383.714   -24527858.05849 -18819231.54547  21198383.005    21198389.280
 03  6 11  2 48 30.0000000  0  7G16G 2G13G 1G27G 4G20
  21622021.386   -21093261.98149 -15898376.68447  21622020.936    21622026.239
  21246877.316   -20149127.03549 -15681181.80648  21246876.573    21246883.113
  21774837.853   -22769788.78149 -17490224.60747  21774837.873    21774843.035
  20544651.653   -27488592.46949 -21402306.83248  20544651.154    20544657.235
  23676410.144   -10781519.81049  -8389903.80845  23676409.683    23676418.435
  24716497.138    -2396357.45449  -1844750.61245  24716497.235    24716505.728
  21211823.387   -24457232.15749 -18764198.41847  21211822.671    21211828.968
 03  6 11  2 49  0.0000000  0  7G16G 2G13G 1G27G 4G20
  21630097.949   -21050819.41549 -15865304.55547  21630097.515    21630102.784
  21248927.513   -20138353.01149 -15672786.44048  21248926.774    21248933.329
  21762333.976   -22835497.10649 -17541425.87547  21762334.010    21762339.156
  20540979.847   -27507887.98249 -21417342.28448  20540979.346    20540985.399
  23663633.328   -10848661.84949  -8442222.18545  23663632.898    23663641.628
  24722598.310    -2364296.08449  -1819767.76745  24722598.361    24722606.713
  21225350.898   -24386144.64049 -18708805.57747  21225350.196    21225356.508
 03  6 11  2 49 30.0000000  0  7G16G 2G13G 1G27G 4G20
  21638274.907   -21007849.27849 -15831821.33347  21638274.454    21638279.686
  21251068.326   -20127102.78049 -15664020.00848  21251067.572    21251074.137
  21749857.708   -22901060.41349 -17592514.14747  21749857.747    21749862.862
  20537357.281   -27526924.62649 -21432176.02148  20537356.784    20537362.834
  23650884.755   -10915655.82849  -8494425.18546  23650884.374    23650893.061
  24728776.676    -2331829.23549  -1794468.93945  24728776.753    24728784.817
  21238965.843   -24314597.73449 -18653054.77847  21238965.170    21238971.481
 03  6 11  2 50  0.0000000  0  7G16G 2G13G 1G27G 4G20
  21646551.892   -20964353.47749 -15797928.50247  21646551.424    21646556.651
  21253299.628   -20115377.12149 -15654883.10848  21253298.877    21253305.425
  21737409.248   -22966477.46749 -17643488.45347  21737409.294    21737414.357
  20533784.196   -27545701.30949 -21446807.18948  20533783.687    20533789.740
  23638164.293   -10982501.79949  -8546512.85946  23638163.910    23638172.596
  24735031.686    -2298959.11149  -1768855.89245  24735031.783    24735039.883
  21252667.705   -24242593.95849 -18596947.97647  21252667.035    21252673.369
 03  6 11  2 50 30.0000000  0  7G16G 2G13G 1G27G 4G20
  21654928.667   -20920333.39549 -15763627.14347  21654928.225    21654933.412
  21255621.296   -20103176.51749 -15645376.12448  21255620.540    21255627.103
  21724988.945   -23031746.48549 -17694347.41447  21724988.983    21724994.023
  20530260.825   -27564216.78549 -21461234.82448  20530260.327    20530266.360
  23625472.096   -11049199.49249  -8598484.98146  23625471.696    23625480.368
  24741363.130    -2265687.42249  -1742929.94845  24741363.151    24741371.328
  21266456.172   -24170135.20849 -18540486.64847  21266455.499    21266461.820
 03  6 11  2 51  0.0000000  0  7G16G 2G13G 1G27G 4G20
  21663404.835   -20875790.73849 -15728918.57947  21663404.377    21663409.575
  21258033.220   -20090501.53649 -15635499.49648  21258032.480    21258039.058
  21712597.066   -23096866.05749 -17745089.91347  21712597.092    21712602.153
  20526787.407   -27582469.70949 -21475457.87148  20526786.901    20526792.932
  23612808.044   -11115748.94449  -8650341.59546  23612807.614    23612816.295
  24747770.521    -2232016.22449  -1716692.70045  24747770.575    24747778.839
  21280330.817   -24097223.76849 -18483672.57347  21280330.134    21280336.476
 03  6 11  2 51 30.0000000  0  8G16G 2G13G 1G27G 4G20G 3
  21671979.715   -20830729.68149 -15693806.07247  21671979.241    21671984.413
  21260534.764   -20077355.71549 -15625255.97948  21260534.029    21260540.624
  21700233.371   -23161837.44649 -17795716.95447  21700233.411    21700238.486
  20523363.719   -27600461.30049 -21489477.28348  20523363.201    20523369.237
  23600171.644   -11182152.77049  -8702084.73546  23600171.291    23600179.974
  24754253.044    -2197950.01449  -1690147.63245  24754253.138    24754261.475
  21294290.665   -24023864.28449 -18426509.37247  21294289.990    21294296.343
  24599485.118    -5178914.63649  -3785689.83644  24599484.902    24599495.624
 03  6 11  2 52  0.0000000  0  8G16G 2G13G 1G27G 4G20G 3
  21680653.344   -20785149.31549 -15658288.90547  21680652.876    21680658.078
  21263126.264   -20063737.05649 -15614644.01648  21263125.535    21263132.118
  21687898.677   -23226656.64349 -17846225.39847  21687898.700    21687903.782
  20519990.492   -27618187.68649 -21503290.04148  20519989.966    20519996.019
  23587563.615   -11248408.49949  -8753712.47646  23587563.200    23587571.838
  24760810.944    -2163488.33549  -1663294.39945  24760810.897    24760819.271
  21308335.910   -23950056.22849 -18368996.63647  21308335.236    21308341.589
  24584760.339    -5256293.29249  -3845984.70544  24584760.144    24584770.694
 03  6 11  2 52 30.0000000  0  8G16G 2G13G 1G27G 4G20G 3
  21689425.628   -20739050.57149 -15622367.81147  21689425.163    21689430.353
  21265807.778   -20049645.45949 -15603663.53648  21265807.048    21265813.635
  21675593.289   -23291321.60349 -17896613.66247  21675593.329    21675598.413
  20516668.091   -27635646.76049 -21516894.50548  20516667.587    20516673.653
  23574983.916   -11314515.12249  -8805224.02946  23574983.479    23574992.103
  24767443.853    -2128632.37349  -1636133.95645  24767443.875    24767452.244
  21322466.209   -23875801.24649 -18311135.65147  21322465.534    21322471.887
  24570043.478    -5333630.24749  -3906247.09844  24570043.174    24570053.644
 03  6 11  2 53  0.0000000  0  8G16G 2G13G 1G27G 4G20G 3
  21698296.146   -20692435.75449 -15586044.57647  21698295.672    21698300.861
  21268579.045   -20035082.30849 -15592315.60848  21268578.310    21268584.893
  21663317.533   -23355831.11449 -17946880.79447  21663317.548    21663322.642
  20513396.723   -27652837.95849 -21530290.23648  20513396.211    20513402.264
  23562432.389   -11380473.24849  -8856619.86246  23562431.938    23562440.608
  24774151.236    -2093384.57249  -1608668.15645  24774151.322    24774159.592
  21336681.026   -23801101.93749 -18252928.42747  21336680.373    21336686.708
  24555335.022    -5410923.42849  -3966475.41844  24555334.726    24555345.337
 03  6 11  2 53 30.0000000  0  8G16G 2G13G 1G27G 4G20G 3
  21707264.492   -20645306.68349 -15549320.63047  21707264.024    21707269.213
  21271439.848   -20020048.66749 -15580601.06848  21271439.109    21271445.682
  21651071.524   -23420184.10249 -17997025.96347  21651071.535    21651076.663
  20510176.532   -27669760.09749 -21543476.31148  20510176.021    20510182.080
  23549909.093   -11446283.25549  -8907900.29746  23549908.688    23549917.313
  24780932.831    -2057747.52349  -1580899.07545  24780932.797    24780941.182
  21350979.898   -23725960.88749 -18194376.98847  21350979.255    21350985.582
  24540635.327    -5488169.93649  -4026667.33844  24540634.913    24540645.281
 03  6 11  2 54  0.0000000  0  8G16G 2G13G 1G27G 4G20G 3
  21716330.323   -20597665.36949 -15512197.52747  21716329.868    21716335.063
  21274390.018   -20004545.37649 -15568520.56748  21274389.277    21274395.837
  21638855.586   -23484379.08949 -18047048.01247  21638855.632    21638860.761
  20507007.733   -27686412.17649 -21556451.94948  20507007.214    20507013.279
  23537413.973   -11511945.13749  -8959065.30446  23537413.588    23537422.111
  24787788.073    -2021723.10349  -1552828.12445  24787788.152    24787796.427
  21365362.441   -23650380.29149 -18135483.04347  21365361.778    21365368.117
  24525945.010    -5565366.86749  -4086820.58844  24525944.592    24525954.987
 03  6 11  2 54 30.0000000  0  8G16G 2G13G 1G27G 4G20G 3
  21725493.348   -20549513.26549 -15474676.41047  21725492.904    21725498.085
  21277429.462   -19988572.99449 -15556074.54248  21277428.723    21277435.285
  21626670.031   -23548414.74849 -18096945.90747  21626670.048    21626675.159
  20503890.595   -27702792.81049 -21569216.07248  20503890.072    20503896.144
  23524947.039   -11577458.88849  -9010114.88146  23524946.698    23524955.149
  24794716.620    -1985313.62449  -1524457.15445  24794716.664    24794724.852
  21379828.223   -23574362.30549 -18076248.28147  21379827.553    21379833.879
  24511264.810    -5642510.92249  -4146932.65945  24511264.495    24511274.835
 03  6 11  2 55  0.0000000  0  8G16G 2G13G 1G27G 4G20G 3
  21734753.051   -20500853.11849 -15436759.40947  21734752.594    21734757.779
  21280557.820   -19972133.26949 -15543264.35948  21280557.087    21280563.647
  21614514.917   -23612290.22449 -18146718.97247  21614514.943    21614520.016
  20500825.191   -27718901.50249 -21581768.29148  20500824.674    20500830.746
  23512508.137   -11642825.27049  -9061049.62746  23512507.780    23512516.211
  24801717.968    -1948521.75649  -1495788.21945  24801717.978    24801726.158
  21394376.568   -23497910.25349 -18016675.27447  21394375.922    21394382.240
  24496595.087    -5719600.35249  -4207002.20845  24496594.820    24496604.874
 03  6 11  2 55 30.0000000  0  8G16G 2G13G 1G27G 4G20G 3
  21744109.123   -20451686.60249 -15398447.84147  21744108.677    21744113.880
  21283775.002   -19955226.84849 -15530090.51148  21283774.270    21283780.803
  21602390.639   -23676003.83449 -18196365.91147  21602390.646    21602395.732
  20497811.819   -27734736.84149 -21594107.51148  20497811.311    20497817.363
  23500097.352   -11708044.22249  -9111869.49646  23500096.962    23500105.388
  24808791.508    -1911349.54949  -1466822.89345  24808791.521    24808799.838
  21409007.127   -23421026.25249 -17956765.68947  21409006.473    21409012.819
  24481936.375    -5796631.50149  -4267026.36245  24481936.189    24481946.096
 03  6 11  2 56  0.0000000  0  8G16G 2G13G 1G27G 4G20G 3
  21753561.306   -20402015.26249 -15359742.89747  21753560.853    21753566.061
  21287080.843   -19937854.41049 -15516553.53448  21287080.111    21287086.660
  21590297.355   -23739554.22749 -18245885.66947  21590297.388    21590302.460
  20494850.747   -27750297.45249 -21606232.65548  20494850.240    20494856.296
  23487714.588   -11773115.61349  -9162574.38846  23487714.194    23487722.566
  24815937.105    -1873798.80249  -1437562.61145  24815937.275    24815945.573
  21423719.518   -23343712.39749 -17896521.16247  21423718.838    21423725.194
  24467289.291    -5873601.39049  -4327002.74845  24467289.078    24467299.017
 03  6 11  2 56 30.0000000  0  8G16G 2G13G 1G27G 4G20G 3
  21763109.082   -20351841.51249 -15320646.46847  21763108.614    21763113.794
  21290475.084   -19920017.49049 -15502654.62648  21290474.361    21290480.887
  21578235.327   -23802940.31649 -18295277.38847  21578235.349    21578240.441
  20491942.068   -27765582.56049 -21618143.12148  20491941.564    20491947.652
  23475359.807   -11838040.05249  -9213164.76146  23475359.427    23475367.723
  24823154.361    -1835872.45449  -1408009.68245  24823154.387    24823162.795
  21438513.157   -23265971.45249 -17835943.82847  21438512.487    21438518.851
  24452654.351    -5950507.69549  -4386929.58745  24452654.071    24452664.152
 03  6 11  2 57  0.0000000  0  8G16G 2G13G 1G27G 4G20G 3
  21772752.143   -20301166.63049 -15281159.54847  21772751.688    21772756.904
  21293957.655   -19901716.49749 -15488394.09648  21293956.920    21293963.423
  21566204.923   -23866160.14649 -18344539.55647  21566204.967    21566210.082
  20489086.170   -27780590.43649 -21629837.56148  20489085.661    20489091.735
  23463033.162   -11902817.19649  -9263640.36346  23463032.731    23463040.940
  24830442.714    -1797572.22649  -1378165.38345  24830442.761    24830451.120
  21453387.735   -23187805.31149 -17775035.17347  21453387.059    21453393.402
  24438032.204    -6027346.68349  -4446803.98145  24438031.873    24438042.027
 03  6 11  2 57 30.0000000  0  8G16G 2G13G 1G27G 4G20G 3
  21782490.284   -20249992.37749 -15241283.50747  21782489.846    21782495.071
  21297528.378   -19882952.15449 -15473772.51748  21297527.639    21297534.152
  21554206.522   -23929212.00849 -18393670.84147  21554206.563    21554211.707
  20486283.268   -27795319.67249 -21641314.88348  20486282.752    20486288.817
  23450734.531   -11967446.86249  -9314001.04846  23450734.045    23450742.234
  24837801.735    -1758900.06049  -1348031.31045  24837801.699    24837810.320
  21468342.769   -23109216.14449 -17713796.89447  21468342.096    21468348.467
  24423423.426    -6104115.55449  -4506623.73345  24423423.167    24423433.251
 03  6 11  2 58  0.0000000  0  8G16G 2G13G 1G27G 4G20G 3
  21792323.018   -20198321.02449 -15201020.11347  21792322.589    21792327.794
  21301187.023   -19863725.69149 -15458790.84648  21301186.306    21301192.814
  21542240.291   -23992094.85049 -18442670.42247  21542240.337    21542245.465
  20483533.578   -27809769.30749 -21652574.33148  20483533.065    20483539.145
  23438463.837   -12031929.36249  -9364247.05946  23438463.349    23438471.528
  24845231.273    -1719858.48249  -1317609.34245  24845231.054    24845239.689
  21483377.765   -23030206.80249 -17652231.20047  21483377.097    21483383.493
  24408828.579    -6180811.60049  -4566386.78245  24408828.020    24408838.380
 03  6 11  2 58 30.0000000  0  7G16G 2G13G 1G27G20G 3
  21802250.920   -20146149.51049 -15160366.98447  21802250.496    21802255.716
  21304934.388   -19844033.15749 -15443446.00048  21304933.651    21304940.167
  21530307.475   -24054802.03149 -18491533.12247  21530307.538    21530312.648
  20480838.250   -27823933.20949 -21663611.12848  20480837.731    20480843.858
  23426222.081   -12096259.92749  -9414374.67846  23426221.574    23426229.764
  21498493.223   -22950774.71549 -17590336.08847  21498492.553    21498498.957
  24394249.141    -6257426.44649  -4626086.54345  24394248.813    24394259.015
 03  6 11  2 59  0.0000000  0  7G16G 2G13G 1G27G20G 3
  21812272.461   -20093485.86349 -15119330.37347  21812272.028    21812277.258
  21308769.085   -19823881.55349 -15427743.43948  21308768.347    21308774.870
  21518407.214   -24117338.36949 -18540262.69747  21518407.247    21518412.319
  20478196.409   -27837816.21949 -21674429.05148  20478195.890    20478202.000
  23414008.062   -12160444.68649  -9464388.68346  23414007.570    23414015.707
  21513687.507   -22870928.18349 -17528118.03847  21513686.825    21513693.253
  24379684.503    -6333963.26749  -4685725.46445  24379684.147    24379694.266
 03  6 11  2 59 30.0000000  0  7G16G 2G13G 1G27G20G 3
  21822387.124   -20040333.06849 -15077912.60547  21822386.686    21822391.902
  21312690.765   -19803272.92949 -15411684.75548  21312690.022    21312696.524
  21506539.525   -24179703.45249 -18588858.82247  21506539.553    21506544.633
  20475608.071   -27851417.97449 -21685027.80748  20475607.552    20475613.649
  23401821.551   -12224484.83949  -9514290.01946  23401821.077    23401829.134
  21528959.991   -22790670.87349 -17465579.89747  21528959.322    21528965.768
  24365135.232    -6410419.99149  -4745301.93745  24365134.758    24365144.928
 03  6 11  3  0  0.0000000  0  7G16G 2G13G 1G27G20G 3
  21832594.697   -19986691.93849 -15036114.32347  21832594.269    21832599.467
  21316699.453   -19782207.11749 -15395269.82548  21316698.717    21316705.182
  21494704.931   -24241894.46249 -18637319.31047  21494704.975    21494710.018
  20473073.701   -27864736.25349 -21695405.67748  20473073.196    20473079.263
  23389662.778   -12288379.24349  -9564077.78046  23389662.324    23389670.322
  21544310.402   -22710003.97649 -17402722.60247  21544309.725    21544316.163
  24350601.937    -6486792.40549  -4804812.67645  24350601.300    24350611.517
 03  6 11  3  0 30.0000000  0  7G16G 2G13G 1G27G20G 3
  21842894.765   -19932564.71349 -14993937.25747  21842894.339    21842899.532
  21320794.849   -19760685.64949 -15378499.83247  21320794.111    21320800.590
  21482903.744   -24303910.07149 -18685643.11747  21482903.775    21482908.785
  20470593.445   -27877770.03749 -21705561.85848  20470592.943    20470599.001
  23377531.696   -12352128.35849  -9613752.31646  23377531.212    23377539.185
  21559738.258   -22628930.28049 -17339548.32347  21559737.554    21559744.010
  24336085.166    -6563078.04649  -4864255.80345  24336084.469    24336094.546
 03  6 11  3  1  0.0000000  0  7G16G 2G13G 1G27G20G 3
  21853287.147   -19877952.31749 -14951382.13847  21853286.714    21853291.901
  21324976.923   -19738708.51749 -15361374.77847  21324976.186    21324982.680
  21471136.366   -24365748.06149 -18733828.52147  21471136.412    21471141.372
  20468167.754   -27890517.09849 -21715494.62248  20468167.243    20468173.299
  23365428.419   -12415731.27649  -9663312.95346  23365427.941    23365435.811
  21575243.152   -22547451.48449 -17276058.37947  21575242.460    21575248.923
  24321585.569    -6639272.66449  -4923628.03045  24321585.007    24321594.884
 03  6 11  3  1 30.0000000  0  7G16G 2G13G 1G27G20G 3
  21863771.496   -19822856.61449 -14908450.41947  21863771.066    21863776.224
  21329245.520   -19716276.65349 -15343895.39347  21329244.791    21329251.299
  21459403.109   -24427406.60749 -18781874.10647  21459403.134    21459408.094
  20465796.861   -27902976.11949 -21725202.94048  20465796.354    20465802.391
  23353352.945   -12479187.86549  -9712759.56546  23353352.520    23353360.337
  21590824.736   -22465569.79449 -17212254.49847  21590824.043    21590830.520
  24307103.991    -6715373.15549  -4982926.87345  24307103.533    24307113.177
 03  6 11  3  2  0.0000000  0  7G16G 2G13G 1G27G20G 3
  21874347.292   -19767280.37549 -14865144.25747  21874346.865    21874352.046
  21333600.399   -19693391.43749 -15326062.73947  21333599.666    21333606.181
  21447704.175   -24488884.66649 -18829779.05247  21447704.183    21447709.136
  20463480.963   -27915146.32349 -21734686.20348  20463480.457    20463486.474
  23341305.211   -12542498.74249  -9762092.64746  23341304.761    23341312.584
  21606482.531   -22383287.70949 -17148138.61047  21606481.834    21606488.320
  24292640.768    -6791376.83449  -5042150.30345  24292640.425    24292649.886
 03  6 11  3  2 30.0000000  0  7G16G 2G13G 1G27G20G 3
  21885014.278   -19711224.84449 -14821464.62647  21885013.830    21885019.045
  21338041.444   -19670053.49349 -15307877.31547  21338040.702    21338047.206
  21436040.011   -24550180.05449 -18877541.65947  21436040.008    21436044.981
  20461220.328   -27927025.88649 -21743942.99548  20461219.802    20461225.835
  23329285.285   -12605663.65849  -9811311.98746  23329284.882    23329292.586
  21622216.049   -22300607.57049 -17083712.55347  21622215.342    21622221.881
  24278196.649    -6867280.31549  -5101295.65945  24278196.384    24278205.796
 03  6 11  3  3  0.0000000  0  7G16G 2G13G 1G27G20G 3
  21895772.097   -19654692.28649 -14777413.27447  21895771.633    21895776.835
  21342568.411   -19646264.10649 -15289340.10647  21342567.688    21342574.179
  21424410.768   -24611291.81649 -18925161.16847  21424410.789    21424415.765
  20459015.176   -27938613.94949 -21752972.63848  20459014.659    20459020.681
  23317293.125   -12668682.84249  -9860417.77046  23317292.704    23317300.341
  21638024.711   -22217532.35449 -17018978.64147  21638024.018    21638030.581
  24263772.207    -6943080.94649  -5160360.86145  24263771.801    24263781.265
 03  6 11  3  3 30.0000000  0  7G16G 2G13G 1G27G20G 3
  21906620.148   -19597685.38749 -14732992.30947  21906619.693    21906624.873
  21347180.998   -19622024.78949 -15270452.30648  21347180.265    21347186.781
  21412816.752   -24672218.52449 -18972636.48947  21412816.775    21412821.776
  20456865.669   -27949909.73449 -21761774.53648  20456865.157    20456871.163
  23305328.511   -12731556.81049  -9909410.39246  23305328.097    23305335.806
  21653908.047   -22134064.83149 -16953939.03947  21653907.382    21653913.950
  24249367.680    -7018776.03049  -5219343.81245  24249367.423    24249376.733
 03  6 11  3  4  0.0000000  0  7G16G 2G13G 1G27G20G 3
  21917558.247   -19540205.41249 -14688202.72247  21917557.771    21917562.945
  21351879.064   -19597336.22349 -15251214.44748  21351878.332    21351884.843
  21401258.356   -24732958.01349 -19019965.93147  21401258.377    21401263.393
  20454772.119   -27960911.32749 -21770347.19548  20454771.616    20454777.592
  23293391.607   -12794285.28149  -9958289.66146  23293391.191    23293398.897
  21669865.728   -22050206.72949 -16888595.08947  21669865.084    21669871.645
  24234984.083    -7094361.68549  -5278241.52945  24234983.780    24234993.180
 03  6 11  3  4 30.0000000  0  7G16G 2G13G 1G27G20G 3
  21928585.882   -19482254.91249 -14643046.49247  21928585.366    21928590.565
  21356662.379   -19572199.73849 -15231627.55748  21356661.641    21356668.158
  21389735.818   -24793509.22149 -19067148.65947  21389735.874    21389740.865
  20452734.758   -27971617.67949 -21778689.79148  20452734.247    20452740.241
  23281482.359   -12856868.54149 -10007055.76146  23281481.956    23281489.604
  21685897.155   -21965961.07449 -16822949.15247  21685896.466    21685903.069
  24220621.748    -7169835.47649  -5337052.12145  24220621.383    24220630.837
 03  6 11  3  5  0.0000000  0  7G16G 2G13G 1G27G20G 3
  21939702.745   -19423835.53049 -14597524.89947  21939702.230    21939707.366
  21361530.810   -19546616.09049 -15211692.23048  21361530.070    21361536.573
  21378249.542   -24853870.08749 -19114183.07247  21378249.576    21378254.540
  20450753.855   -27982027.36149 -21786801.22048  20450753.338    20450759.338
  23269600.812   -12919306.15449 -10055708.38546  23269600.401    23269608.031
  21702001.911   -21881330.04049 -16757002.92147  21702001.227    21702007.860
  24206281.527    -7245193.82449  -5395772.76345  24206281.170    24206290.509
 03  6 11  3  5 30.0000000  0  7G16G 2G13G 1G27G20G 3
  21950908.293   -19364949.88449 -14551639.97947  21950907.793    21950912.933
  21366483.978   -19520586.87849 -15191409.70748  21366483.251    21366489.724
  21366799.623   -24914039.55749 -19161068.34747  21366799.662    21366804.606
  20448829.564   -27992139.51149 -21794680.80748  20448829.040    20448835.051
  23257746.853   -12981598.87649 -10104248.09846  23257746.438    23257754.027
  21718179.470   -21796316.61049 -16690758.71447  21718178.778    21718185.407
  24191963.667    -7320434.41449  -5454401.66645  24191963.363    24191972.477
 03  6 11  3  6  0.0000000  0  7G16G 2G13G 1G27G20G 3
  21962202.173   -19305599.90949 -14505393.24647  21962201.704    21962206.838
  21371521.758   -19494113.27749 -15170780.90748  21371521.014    21371527.478
  21355386.555   -24974015.60449 -19207802.90147  21355386.584    21355391.534
  20446962.116   -28001952.80949 -21802327.52448  20446961.603    20446967.614
  23245920.477   -13043746.73949 -10152674.92746  23245920.054    23245927.552
  21734429.339   -21710923.18649 -16624218.41547  21734428.658    21734435.236
  24177668.775    -7395553.74549  -5512936.05045  24177668.569    24177677.556
 03  6 11  3  6 30.0000000  0  7G16G 2G13G 1G27G20G 3
  21973584.116   -19245787.16749 -14458785.91647  21973583.655    21973588.828
  21376643.927   -19467196.03149 -15149806.41248  21376643.188    21376649.629
  21344010.540   -25033796.61749 -19254385.48347  21344010.599    21344015.539
  20445151.914   -28011465.45749 -21809739.97048  20445151.396    20445157.426
  23234121.699   -13105749.39749 -10200988.61346  23234121.293    23234128.731
  21750751.174   -21625151.79849 -16557383.58947  21750750.479    21750757.010
  24163397.610    -7470548.16349  -5571373.11945  24163397.368    24163406.517
 03  6 11  3  7  0.0000000  0  7G16G 2G13G 1G27G20G 3
  21985053.579   -19185514.77249 -14411820.41247  21985053.164    21985058.310
  21381850.066   -19439837.28749 -15128487.89048  21381849.324    21381855.780
  21332671.887   -25093381.52149 -19300815.25447  21332671.939    21332676.879
  20443398.929   -28020677.20849 -21816917.94948  20443398.420    20443404.449
  23222350.319   -13167607.82449 -10249189.91446  23222349.952    23222357.408
  21767144.191   -21539005.94149 -16490256.97347  21767143.500    21767149.997
  24149150.749    -7545415.61449  -5629711.24745  24149150.501    24149159.661
 03  6 11  3  7 30.0000000  0  7G16G 2G13G 1G27G20G 3
  21996610.192   -19124784.33849 -14364498.00047  21996609.754    21996614.933
  21387140.161   -19412037.58749 -15106825.77148  21387139.432    21387145.918
  21321370.933   -25152768.36549 -19347090.69447  21321370.972    21321375.915
  20441703.580   -28029586.37149 -21823860.14948  20441703.073    20441709.104
  23210606.452   -13229321.71549 -10297278.59046  23210606.082    23210613.639
  21783608.080   -21452487.73549 -16422840.21747  21783607.422    21783613.893
  24134928.716    -7620152.51449  -5687947.65645  24134928.537    24134937.591
 03  6 11  3  8  0.0000000  0  7G16G 2G13G 1G27G20G 3
  22008253.470   -19063598.30649 -14316820.57147  22008253.043    22008258.263
  21392513.835   -19383798.56149 -15084821.31748  21392513.091    21392519.596
  21310107.914   -25211955.85849 -19393210.79747  21310107.949    21310112.887
  20440065.965   -28038192.03149 -21830565.84948  20440065.457    20440071.496
  23198890.026   -13290891.47549 -10345254.95146  23198889.653    23198897.220
  21800142.232   -21365600.36449 -16355135.80447  21800141.566    21800148.015
  24120731.937    -7694756.36349  -5746080.36945  24120731.686    24120740.770
 03  6 11  3  8 30.0000000  0  7G16G 2G13G 1G27G20G 3
  22019983.055   -19001958.71649 -14268789.72647  22019982.623    22019987.892
  21397970.927   -19355121.28149 -15062475.37248  21397970.203    21397976.672
  21298883.173   -25270942.13549 -19439174.11447  21298883.240    21298888.162
  20438486.370   -28046492.83749 -21837034.00748  20438485.861    20438491.892
  23187201.059   -13352317.20749 -10393119.08446  23187200.675    23187208.224
  21816746.199   -21278346.19149 -16287145.57647  21816745.501    21816751.971
  24106561.076    -7769223.61449  -5804106.67045  24106560.756    24106570.128
 03  6 11  3  9  0.0000000  0  7G16G 2G13G 1G27G20G 3
  22031798.534   -18939867.94549 -14220407.30947  22031798.114    22031803.380
  21403511.156   -19326007.14849 -15039789.01948  21403510.428    21403516.889
  21287697.028   -25329725.66249 -19484979.43747  21287697.064    21287702.007
  20436965.044   -28054487.49149 -21843263.60248  20436964.534    20436970.565
  23175539.440   -13413599.03949 -10440871.08346  23175539.018    23175546.605
  21833419.478   -21190727.60049 -16218871.37847  21833418.769    21833425.258
  24092416.903    -7843551.52449  -5862024.38845  24092416.507    24092425.792
 03  6 11  3  9 30.0000000  0  7G16G 2G13G 1G27G20G 3
  22043699.381   -18877328.53549 -14171675.31247  22043698.935    22043704.236
  21409134.234   -19296457.64549 -15016763.41547  21409133.505    21409139.969
  21276549.716   -25388305.19149 -19530625.80147  21276549.761    21276554.700
  20435502.137   -28062174.97449 -21849253.84348  20435501.637    20435507.648
  23163905.071   -13474737.53349 -10488511.39346  23163904.692    23163912.253
  21850161.508   -21102747.76449 -16150315.69747  21850160.769    21850167.260
  24078299.810    -7917737.13349  -5919831.20445  24078299.411    24078308.659
 03  6 11  3 10  0.0000000  0  7G16G 2G13G 1G27G20G 3
  22055685.292   -18814342.04249 -14122594.93047  22055684.837    22055690.144
  21414839.957   -19266473.66149 -14993399.25447  21414839.235    21414845.697
  21265441.500   -25446678.86349 -19576111.76147  21265441.581    21265446.502
  20434097.969   -28069553.87049 -21855003.62548  20434097.459    20434103.499
  23152298.139   -13535732.26649 -10536039.67346  23152297.718    23152305.244
  21866971.890   -21014408.86049 -16081480.21947  21866971.171    21866977.634
  24064210.401    -7991777.07349  -5977524.50645  24064210.074    24064219.159
 03  6 11  3 10 30.0000000  0  7G16G 2G13G 1G27G20G 3
  22067755.801   -18750911.27049 -14073168.35547  22067755.341    22067760.634
  21420628.021   -19236056.94949 -14969697.90947  21420627.298    21420633.765
  21254372.838   -25504845.10849 -19621436.08347  21254372.904    21254377.796
  20432752.701   -28076623.25049 -21860512.22448  20432752.210    20432758.242
  23140718.427   -13596583.84549 -10583456.40946  23140717.994    23140725.508
  21883849.950   -20925714.09849 -16012367.44947  21883849.226    21883855.727
  24050149.123    -8065668.67749  -6035102.20945  24050148.809    24050157.920
 03  6 11  3 11  0.0000000  0  7G16G 2G13G 1G27G20G 3
  22079910.486   -18687037.77649 -14023396.80547  22079910.036    22079915.316
  21426498.349   -19205208.14249 -14945659.86547  21426497.624    21426504.101
  21243344.027   -25562801.97349 -19666597.26147  21243344.089    21243348.966
  20431466.700   -28083381.36049 -21865778.27648  20431466.180    20431472.209
  23129166.006   -13657291.80549 -10630761.22946  23129165.552    23129173.099
  21900795.379   -20836665.32949 -15942978.83547  21900794.655    21900801.179
  24036116.811    -8139408.32649  -6092561.50345  24036116.453    24036125.535
 03  6 11  3 11 30.0000000  0  7G16G 2G13G 1G27G20G 3
  22092148.951   -18622724.22649 -13973282.35247  22092148.494    22092153.812
  21432450.573   -19173929.03949 -14921286.52147  21432449.844    21432456.326
  21232355.317   -25620547.83549 -19711594.01347  21232355.386    21232360.266
  20430240.041   -28089827.47449 -21870801.21048  20430239.520    20430245.545
  23117640.799   -13717856.84149 -10677954.68546  23117640.410    23117647.911
  21917807.578   -20747265.70649 -15873316.82747  21917806.878    21917813.444
  24022113.875    -8212993.23649  -6149900.21345  24022113.507    24022122.618
 03  6 11  3 12  0.0000000  0  7G16G 2G13G 1G27G20G 3
  22104470.807   -18557972.52749 -13922826.48147  22104470.384    22104475.672
  21438484.468   -19142220.60449 -14896578.63447  21438483.737    21438490.219
  21221407.112   -25678080.98149 -19756425.01047  21221407.186    21221412.034
  20429073.067   -28095959.86649 -21875579.68448  20429072.567    20429078.596
  23106142.810   -13778278.70649 -10725036.58446  23106142.440    23106149.930
  21934886.103   -20657517.46349 -15803383.16947  21934885.425    21934892.016
  24008141.078    -8286419.85649  -6207115.57545  24008140.690    24008149.765
 03  6 11  3 12 30.0000000  0  7G16G 2G13G 1G27G20G 3
  22116875.373   -18492786.05049 -13872031.82747  22116874.956    22116880.229
  21444599.632   -19110085.15949 -14871538.01847  21444598.913    21444605.386
  21210499.513   -25735400.78949 -19801089.77447  21210499.567    21210504.412
  20427965.854   -28101778.25549 -21880113.48148  20427965.344    20427971.372
  23094671.876   -13838558.44349 -10772007.72346  23094671.492    23094679.004
  21952030.201   -20567424.45149 -15733180.87247  21952029.566    21952036.181
  23994198.723    -8359686.15549  -6264206.02345  23994198.383    23994207.392
 03  6 11  3 13  0.0000000  0  7G16G 2G13G 1G27G20G 3
  22129362.493   -18427165.84149 -13820899.20047  22129362.081    22129367.338
  21450795.956   -19077523.23449 -14846165.07347  21450795.203    21450801.691
  21199633.041   -25792504.30549 -19845585.99247  21199633.100    21199637.936
  20426918.792   -28107280.54849 -21884400.96948  20426918.279    20426924.299
  23083228.106   -13898695.41749 -10818867.61746  23083227.754    23083235.247
  21969239.658   -20476988.18049 -15662711.08747  21969239.002    21969245.651
  23980287.653    -8432788.28449  -6321168.52945  23980287.253    23980296.244
 03  6 11  3 13 30.0000000  0  7G16G 2G13G 1G27G20G 3
  22141931.571   -18361115.06549 -13769431.06746  22141931.150    22141936.378
  21457073.017   -19044536.95949 -14820461.46947  21457072.278    21457078.756
  21188807.914   -25849390.74949 -19889913.06047  21188807.964    21188812.795
  20425931.961   -28112466.33149 -21888441.82248  20425931.452    20425937.481
  23071811.430   -13958690.26949 -10865616.76746  23071811.058    23071818.538
  21986513.798   -20386211.99749 -15591976.43347  21986513.174    21986519.832
  23966408.409    -8505723.64949  -6378001.11245  23966408.001    23966417.009
 03  6 11  3 14  0.0000000  0  7G16G 2G13G 1G27G20G 3
  22154582.180   -18294635.80849 -13717629.05346  22154581.752    22154586.929
  21463430.599   -19011127.50649 -14794428.11247  21463429.877    21463436.340
  21178024.350   -25906058.61749 -19934069.81447  21178024.399    21178029.243
  20425005.546   -28117334.43349 -21892235.13148  20425005.043    20425011.059
  23060421.660   -14018543.32249 -10912255.42846  23060421.322    23060428.765
  22003852.148   -20295098.85449 -15520979.20947  22003851.480    22003858.119
  23952561.456    -8578489.27949  -6434701.45845  23952561.047    23952570.003
 03  6 11  3 14 30.0000000  0  7G16G 2G13G 1G27G20G 3
  22167313.891   -18227730.39049 -13665494.96346  22167313.478    22167318.630
  21469868.456   -18977296.23749 -14768066.06747  21469867.730    21469874.197
  21167282.727   -25962506.04749 -19978054.79747  21167282.785    21167287.599
  20424139.866   -28121883.60049 -21895779.91748  20424139.363    20424145.365
  23049058.942   -14078254.73049 -10958783.71646  23049058.569    23049065.996
  22021254.077   -20203651.40149 -15449721.49247  22021253.393    22021260.021
  23938747.503    -8651081.96849  -6491267.05745  23938747.061    23938755.903
 03  6 11  3 15  0.0000000  0  7G16G 2G13G 1G27G20G 3
  22180126.170   -18160401.34649 -13613030.76946  22180125.738    22180130.911
  21476386.295   -18943044.72449 -14741376.55847  21476385.568    21476392.028
  21156583.437   -26018731.16149 -20021866.54547  21156583.482    21156588.295
  20423335.094   -28126112.69949 -21899075.29748  20423334.590    20423340.583
  23037723.149   -14137824.63949 -11005201.74646  23037722.727    23037730.148
  22038719.079   -20111872.36949 -15378205.40247  22038718.403    22038725.001
  23924966.940    -8723498.90949  -6547695.70645  23924966.540    23924975.307
 03  6 11  3 15 30.0000000  0  7G16G 2G13G 1G27G20G 3
  22193018.603   -18092650.91149 -13560238.22346  22193018.173    22193023.359
  21482983.824   -18908374.41449 -14714360.71347  21482983.110    21482989.569
  21145926.707   -26074732.49549 -20065503.91947  21145926.740    21145931.570
  20422591.424   -28130020.61049 -21902120.40048  20422590.925    20422596.928
  23026414.085   -14197253.41949 -11051509.82746  23026413.705    23026421.113
  22056246.632   -20019764.51249 -15306433.08647  22056245.969    22056252.611
  23911220.418    -8795737.09749  -6603985.07245  23911220.017    23911228.736
 03  6 11  3 16  0.0000000  0  7G16G 2G13G 1G27G20G 3
  22205991.038   -18024480.32649 -13507118.28146  22205990.613    22205995.793
  21489660.982   -18873285.63149 -14687018.78847  21489660.248    21489666.700
  21135313.086   -26130507.44349 -20108964.89147  21135313.107    21135317.957
  20421909.281   -28133605.13049 -21904913.51348  20421908.797    20421914.791
  23015132.128   -14256540.13749 -11097707.17646  23015131.746    23015139.127
  22073836.469   -19927329.46749 -15234405.80047  22073835.821    22073842.453
  23897508.601    -8867792.23349  -6660131.79545  23897508.309    23897517.051
 03  6 11  3 16 30.0000000  0  7G16G 2G13G 1G27G20G 3
  22219042.684   -17955893.27649 -13453673.82346  22219042.237    22219047.481
  21496417.242   -18837781.28449 -14659353.04247  21496416.491    21496422.928
  21124742.644   -26186055.38249 -20152248.97647  21124742.675    21124747.524
  20421288.659   -28136866.40549 -21907454.74848  20421288.166    20421294.156
  23003876.954   -14315686.48949 -11143795.15546  23003876.578    23003883.876
  22091487.791   -19834571.52449 -15162126.91147  22091487.122    22091493.749
  23883831.962    -8939662.76649  -6716134.67645  23883831.678    23883840.465
 03  6 11  3 17  0.0000000  0  7G16G 2G13G 1G27G20G 3
  22232173.131   -17886892.07449 -13399906.64946  22232172.708    22232177.987
  21503252.346   -18801862.47049 -14631364.33547  21503251.599    21503258.060
  21114215.726   -26241374.46849 -20195354.73247  21114215.773    21114220.627
  20420729.875   -28139802.75449 -21909742.78848  20420729.383    20420735.369
  22992648.524   -14374691.96449 -11189773.35446  22992648.121    22992655.460
  22109200.077   -19741492.90749 -15089598.14547  22109199.400    22109206.072
  23870191.212    -9011344.97949  -6771990.80145  23870190.931    23870199.625
 03  6 11  3 17 30.0000000  0  7G16G 2G13G 1G27G20G 3
  22245382.118   -17817478.53349 -13345818.17646  22245381.673    22245386.981
  21510166.104   -18765530.28149 -14603053.51847  21510165.372    21510171.829
  21103732.701   -26296462.99549 -20238280.83347  21103732.740    21103737.590
  20420233.150   -28142412.86149 -21911776.61648  20420232.657    20420238.662
  22981446.811   -14433556.75049 -11235641.94046  22981446.436    22981453.777
  22126972.859   -19648096.26349 -15016821.56147  22126972.206    22126978.867
  23856586.866    -9082835.65349  -6827697.68245  23856586.549    23856595.248
 03  6 11  3 18  0.0000000  0  7G16G 2G13G 1G27G20G 3
  22258669.037   -17747655.44049 -13291410.57146  22258668.584    22258673.904
  21517158.179   -18728786.60049 -14574422.05347  21517157.452    21517163.902
  21093293.905   -26351319.18349 -20281025.89147  21093293.947    21093298.790
  20419798.692   -28144695.84549 -21913555.54648  20419798.188    20419804.200
  22970271.790   -14492281.33049 -11281401.26846  22970271.412    22970278.730
  22144805.598   -19554384.54549 -14943799.47947  22144804.941    22144811.657
  23843019.483    -9154132.15549  -6883253.25045  23843019.212    23843027.780
 03  6 11  3 18 30.0000000  0  7G16G 2G13G 1G27G20G 3
  22272033.456   -17677424.90149 -13236685.47546  22272033.002    22272038.340
  21524228.323   -18691632.72949 -14545470.96247  21524227.587    21524234.025
  21082899.617   -26405941.43849 -20323588.66947  21082899.662    21082904.504
  20419426.753   -28146650.34749 -21915078.51548  20419426.255    20419432.261
  22959123.494   -14550865.77849 -11327051.41446  22959123.090    22959130.380
  22162697.781   -19460360.52649 -14870534.04347  22162697.114    22162703.869
  23829489.690    -9225231.14549  -6938654.91545  23829489.398    23829497.962
 03  6 11  3 19  0.0000000  0  7G16G 2G13G 1G27G20G 3
  22285475.116   -17606788.39049 -13181644.03146  22285474.687    22285480.027
  21531376.402   -18654069.16649 -14516200.63047  21531375.669    21531382.080
  21072550.364   -26460326.95349 -20365966.98247  21072550.417    21072555.260
  20419117.714   -28148274.23949 -21916343.87148  20419117.209    20419123.208
  22948001.973   -14609309.28449 -11372591.72246  22948001.599    22948008.893
  22180649.055   -19366025.89449 -14797026.56947  22180648.377    22180655.204
  23815998.212    -9296128.56749  -6993899.52145  23815997.968    23816006.455
 03  6 11  3 19 30.0000000  0  7G16G 2G13G 1G27G20G 3
  22298992.871   -17535751.83249 -13126290.86346  22298992.449    22298997.855
  21538601.521   -18616100.97549 -14486615.00447  21538600.787    21538607.185
  21062245.863   -26514477.38949 -20408162.11247  21062245.911    21062250.733
  20418871.086   -28149570.15449 -21917353.65348  20418870.580    20418876.595
  22936906.608   -14667615.74649 -11418025.24246  22936906.201    22936913.450
  22198658.278   -19271386.97349 -14723281.99046  22198657.589    22198664.423
  23802545.045    -9366825.04049  -7048987.53145  23802544.761    23802553.228
 03  6 11  3 20  0.0000000  0  7G16G 2G13G 1G27G20G 3
  22312587.173   -17464313.33349 -13070624.50046  22312586.747    22312592.133
  21545904.137   -18577725.33849 -14456711.89147  21545903.431    21545909.784
  21051987.255   -26568386.75549 -20450169.39247  21051987.303    21051992.104
  20418687.955   -28150532.55749 -21918103.56348  20418687.437    20418693.452
  22925838.104   -14725780.74249 -11463348.55346  22925837.683    22925844.923
  22216725.737   -19176442.10749 -14649299.00946  22216725.041    22216731.873
  23789131.512    -9437313.12949  -7103913.16545  23789131.197    23789139.663
 03  6 11  3 20 30.0000000  0  7G16G 2G13G 1G27G20G 3
  22326257.095   -17392477.43349 -13014648.46746  22326256.644    22326262.027
  21553283.590   -18538946.12849 -14426494.30547  21553282.853    21553289.196
  21041774.392   -26622055.69349 -20491989.32447  21041774.433    21041779.200
  20418568.072   -28151162.36949 -21918594.31048  20418567.560    20418573.586
  22914796.048   -14783806.82749 -11508563.60146  22914795.637    22914802.885
  22234850.329   -19081196.70249 -14575081.84546  22234849.644    22234856.497
  23775757.883    -9507591.77549  -7158675.61045  23775757.555    23775765.961
 03  6 11  3 21  0.0000000  0  7G16G 2G13G 1G27G20G 3
  22340002.225   -17320246.28149 -12958364.45846  22340001.759    22340007.130
  21560739.523   -18499764.82049 -14395963.39747  21560738.791    21560745.143
  21031607.650   -26675482.27249 -20533620.40347  21031607.681    21031612.426
  20418511.725   -28151458.38349 -21918824.94948  20418511.219    20418517.236
  22903780.434   -14841694.08849 -11553670.48946  22903780.023    22903787.224
  22253031.639   -18985653.26849 -14500632.44746  22253030.947    22253037.797
  23762424.680    -9577657.83149  -7213272.39245  23762424.286    23762432.725
 03  6 11  3 21 30.0000000  0  8G31G16G 2G13G 1G27G20G 3
  24569589.511    -5267249.72048  -4089257.54544  24569589.028    24569599.188
  22353821.978   -17247622.79249 -12901774.73146  22353821.521    22353826.918
  21568271.621   -18460183.14249 -14365120.51547  21568270.897    21568277.260
  21021487.327   -26728664.83249 -20575061.34447  21021487.377    21021492.107
  20418519.090   -28151419.58549 -21918794.70548  20418518.594    20418524.597
  22892791.146   -14899442.92849 -11598669.52346  22892790.721    22892797.926
  22271269.085   -18889814.65349 -14425953.04246  22271268.432    22271275.279
  23749132.408    -9647508.66049  -7267701.48045  23749131.998    23749140.417
 03  6 11  3 22  0.0000000  0  8G31G16G 2G13G 1G27G20G 3
  24552024.875    -5359550.60348  -4161180.05944  24552024.558    24552034.974
  22367715.845   -17174609.91849 -12844881.58246  22367715.423    22367720.784
  21575879.508   -18420203.40149 -14333967.45147  21575878.780    21575885.139
  21011413.565   -26781602.77249 -20616311.66747  21011413.621    21011418.347
  20418590.212   -28151045.75949 -21918503.39448  20418589.705    20418595.715
  22881827.963   -14957054.44649 -11643561.55546  22881827.580    22881834.761
  22289562.049   -18793684.53949 -14351046.47846  22289561.378    22289568.257
  23735881.490    -9717142.17249  -7321961.21545  23735881.062    23735889.450
 03  6 11  3 22 30.0000000  0  8G31G16G 2G13G 1G27G20G 3
  24534451.009    -5451900.76748  -4233141.01344  24534450.204    24534461.298
  22381683.739   -17101208.56949 -12787685.72846  22381683.283    22381688.611
  21583563.129   -18379825.55849 -14302504.18147  21583562.401    21583568.734
  21001387.076   -26834292.32949 -20657368.44447  21001387.132    21001391.834
  20418725.632   -28150334.03149 -21917948.78648  20418725.141    20418731.151
  22870891.223   -15014527.11849 -11688345.39746  22870890.832    22870897.959
  22307910.199   -18697264.07149 -14275913.67846  22307909.576    22307916.509
  23722672.840    -9786553.46549  -7376047.81845  23722672.525    23722680.737
 03  6 11  3 23  0.0000000  0  8G31G16G 2G13G 1G27G20G 3
  24516868.421    -5544297.36848  -4305138.14944  24516867.694    24516878.847
  22395724.998   -17027421.43649 -12730189.26546  22395724.533    22395729.870
  21591322.184   -18339051.34949 -14270732.05747  21591321.449    21591327.801
  20991408.104   -26886732.06549 -20698230.55147  20991408.151    20991412.857
  20418925.514   -28149283.53349 -21917130.20048  20418925.012    20418931.024
  22859980.896   -15071861.21449 -11733021.25446  22859980.505    22859987.597
  22326313.064   -18600556.36049 -14200557.04746  22326312.446    22326319.394
  23709507.083    -9855739.66049  -7429959.01045  23709506.770    23709514.916
 03  6 11  3 23 30.0000000  0  8G31G16G 2G13G 1G27G20G 3
  24499277.802    -5636737.47648  -4377169.16544  24499277.063    24499287.999
  22409839.147   -16953250.91649 -12672394.05346  22409838.702    22409844.059
  21599156.386   -18297882.26949 -14238652.24147  21599155.666    21599161.989
  20981476.976   -26938920.24649 -20738896.64047  20981477.036    20981481.735
  20419190.099   -28147893.22649 -21916046.82648  20419189.589    20419195.605
  22849096.863   -15129057.16849 -11777589.46546  22849096.440    22849103.535
  22344770.120   -18503564.20949 -14124978.76946  22344769.488    22344776.407
  23696384.709    -9924698.03549  -7483692.68845  23696384.375    23696392.481
 03  6 11  3 24  0.0000000  0  8G31G16G 2G13G 1G27G20G 3
  24481679.217    -5729218.30649  -4449231.88544  24481678.637    24481689.019
  22424025.810   -16878699.46949 -12614302.02146  22424025.380    22424030.750
  21607065.382   -18256320.15749 -14206266.16847  21607064.640    21607070.990
  20971594.074   -26990855.18049 -20779365.39547  20971594.138    20971598.829
  20419519.549   -28146161.93949 -21914697.75948  20419519.051    20419525.048
  22838239.078   -15186115.15349 -11822050.18546  22838238.627    22838245.699
  22363280.759   -18406290.47649 -14049181.08646  22363280.093    22363286.969
  23683306.210    -9993425.39749  -7537246.36445  23683305.809    23683314.041
 03  6 11  3 24 30.0000000  0  8G31G16G 2G13G 1G27G20G 3
  24464073.316    -5821736.77949  -4521323.99544  24464072.965    24464082.876
  22438284.455   -16803769.54949 -12555915.07346  22438284.069    22438289.414
  21615048.902   -18214366.31149 -14173574.84947  21615048.183    21615054.516
  20961759.691   -27042535.14249 -20819635.47047  20961759.746    20961764.439
  20419914.060   -28144088.58849 -21913082.14648  20419913.568    20419919.545
  22827407.447   -15243035.29349 -11866403.47146  22827407.005    22827414.072
  22381844.438   -18308738.09849 -13973166.27746  22381843.742    22381850.594
  23670272.273   -10061918.27749  -7590617.33245  23670271.962    23670280.078
 03  6 11  3 25  0.0000000  0  9G31G16G 2G13G 1G27G20G 3G 8
  24446460.210    -5914293.50948  -4593445.85544  24446459.958    24446469.663
  22452614.078   -16728467.14349 -12497237.88046  22452613.639    22452618.966
  21623105.979   -18172026.02649 -14140582.40647  21623105.256    21623111.589
  20951973.483   -27093961.91149 -20859708.24347  20951973.531    20951978.214
  20420373.244   -28141675.58549 -21911201.86548  20420372.750    20420378.730
  22816601.328   -15299821.27949 -11910652.21946  22816600.936    22816608.014
  22400459.897   -18210913.21149 -13896939.10746  22400459.245    22400466.071
  23657282.875   -10130177.33749  -7643806.09845  23657282.545    23657290.651
  24729350.361    -6451125.32449  -4756789.42345  24729349.697    24729359.798
 03  6 11  3 25 30.0000000  0  9G31G16G 2G13G 1G27G20G 3G 8
  24428840.325    -6006885.90249  -4665595.56144  24428840.056    24428849.683
  22467013.976   -16652794.92949 -12438272.52446  22467013.550    22467018.885
  21631236.208   -18129301.33449 -14107290.43247  21631235.477    21631241.816
  20942235.803   -27145133.69549 -20899582.33047  20942235.862    20942240.537
  20420897.202   -28138922.13949 -21909056.31048  20420896.707    20420902.672
  22805820.625   -15356473.88949 -11954797.04846  22805820.239    22805827.292
  22419126.583   -18112819.09549 -13820502.15246  22419125.922    22419132.788
  23644338.432   -10198199.94449  -7696810.62045  23644338.116    23644346.285
  24713262.076    -6535669.23349  -4822667.64745  24713261.307    24713271.642
 03  6 11  3 26  0.0000000  0  9G31G16G 2G13G 1G27G20G 3G 8
  24411215.497    -6099504.67849  -4737765.84044  24411215.208    24411224.738
  22481485.020   -16576749.13149 -12379016.06946  22481484.622    22481489.942
  21639440.475   -18086187.65149 -14073695.34847  21639439.748    21639446.055
  20932548.077   -27196042.88349 -20939251.79447  20932548.158    20932552.821
  20421487.320   -28135820.86949 -21906639.71948  20421486.829    20421492.796
  22795066.556   -15412987.03549 -11998833.21046  22795066.144    22795073.130
  22437845.159   -18014452.53849 -13743852.89446  22437844.483    22437851.359
  23631440.764   -10265977.01149  -7749623.82845  23631440.525    23631448.684
  24697192.118    -6620116.66049  -4888470.72345  24697191.360    24697201.567
 03  6 11  3 26 30.0000000  0  9G31G16G 2G13G 1G27G20G 3G 8
  24393585.956    -6192147.93449  -4809955.20345  24393585.573    24393595.281
  22496026.415   -16500333.42649 -12319471.36246  22496026.005    22496031.385
  21647718.235   -18042687.69549 -14039799.27247  21647717.507    21647723.813
  20922910.496   -27246688.64749 -20978715.99147  20922910.551    20922915.231
  20422143.623   -28132371.86349 -21903952.16848  20422143.125    20422149.098
  22784338.733   -15469361.89249 -12042761.60546  22784338.331    22784345.263
  22456614.896   -17915817.27949 -13666994.28246  22456614.170    22456621.079
  23618590.166   -10333506.44849  -7802244.06045  23618589.841    23618598.136
  24681140.387    -6704468.29949  -4954199.13845  24681139.633    24681149.874
 03  6 11  3 27  0.0000000  0  9G31G16G 2G13G 1G27G20G 3G 8
  24375952.114    -6284813.78149  -4882162.17045  24375951.611    24375961.373
  22510637.570   -16423551.32849 -12259641.15946  22510637.180    22510642.552
  21656068.964   -17998804.33449 -14005604.44047  21656068.226    21656074.554
  20913323.170   -27297070.24249 -21017974.34347  20913323.228    20913327.915
  20422866.091   -28128575.14149 -21900993.66948  20422865.594    20422871.563
  22773636.973   -15525599.86449 -12086583.32546  22773636.550    22773643.485
  22475434.969   -17816917.16649 -13589929.28246  22475434.241    22475441.194
  23605787.155   -10400786.43749  -7854669.94345  23605786.794    23605795.067
  24665106.763    -6788725.02349  -5019853.60745  24665106.122    24665116.243
 03  6 11  3 27 30.0000000  0  9G31G16G 2G13G 1G27G20G 3G 8
  24358314.398    -6377499.50649  -4954384.59445  24358313.761    24358323.480
  22525317.966   -16346405.66449 -12199527.65246  22525317.517    22525322.855
  21664492.280   -17954539.43949 -13971112.30947  21664491.555    21664497.865
  20903786.377   -27347186.31249 -21057025.78947  20903786.440    20903791.121
  20423654.863   -28124430.04349 -21897763.70548  20423654.358    20423660.322
  22762961.165   -15581701.50249 -12130298.81046  22762960.710    22762967.680
  22494304.737   -17717755.59749 -13512660.53646  22494304.057    22494311.034
  23593032.027   -10467814.07249  -7906899.17745  23593031.684    23593039.930
  24649091.189    -6872887.10549  -5085434.32345  24649090.360    24649100.652
 03  6 11  3 28  0.0000000  0  9G31G16G 2G13G 1G27G20G 3G 8
  24340673.599    -6470202.44449  -5026620.41145  24340672.953    24340682.544
  22540066.957   -16268899.22149 -12139133.02346  22540066.517    22540071.843
  21672987.851   -17909894.93349 -13936324.38147  21672987.133    21672993.414
  20894300.390   -27397035.32649 -21095869.14547  20894300.467    20894305.149
  20424510.090   -28119935.74949 -21894261.64048  20424509.586    20424515.536
  22752311.189   -15637667.23549 -12173908.40246  22752310.673    22752317.692
  22513223.750   -17618335.60749 -13435190.43446  22513223.050    22513230.076
  23580325.585   -10534586.66749  -7958929.68145  23580325.241    23580333.435
  24633093.728    -6956954.38249  -5150941.16745  24633092.874    24633102.983
 03  6 11  3 28 30.0000000  0  9G31G16G 2G13G 1G27G20G 3G 8
  24323030.088    -6562919.60749  -5098867.32045  24323029.368    24323038.937
  22554884.095   -16191034.69249 -12078459.36446  22554883.649    22554889.063
  21681555.285   -17864872.69649 -13901242.11547  21681554.552    21681560.854
  20884865.576   -27446615.54849 -21134503.05047  20884865.638    20884870.324
  20425431.943   -28115091.35449 -21890486.77448  20425431.438    20425437.392
  22741686.956   -15693497.40349 -12217412.35746  22741686.498    22741693.525
  22532191.326   -17518660.09649 -13357521.22346  22532190.679    22532197.707
  23567668.216   -10601101.51549  -8010759.34345  23567667.843    23567675.935
  24617114.238    -7040926.67149  -5216373.97945  24617113.447    24617123.425
 03  6 11  3 29  0.0000000  0  9G31G16G 2G13G 1G27G20G 3G 8
  24305384.127    -6655648.13449  -5171123.08045  24305383.533    24305393.154
  22569768.855   -16112814.50949 -12017508.58046  22569768.395    22569773.863
  21690194.258   -17819474.41649 -13865866.83147  21690193.522    21690199.878
  20875482.166   -27495925.40849 -21172926.28247  20875482.244    20875486.896
  20426420.640   -28109895.69449 -21886438.18848  20426420.134    20426426.073
  22731088.499   -15749192.49649 -12260811.07346  22731088.075    22731095.024
  22551206.983   -17418732.17249 -13279655.32846  22551206.365    22551213.348
  23555060.454   -10667355.61449  -8062385.82445  23555060.051    23555068.109
  24601152.757    -7124803.74849  -5281732.59545  24601151.977    24601162.212
 03  6 11  3 29 30.0000000  0  9G31G16G 2G13G 1G27G20G 3G 8
  24287736.777    -6748384.64249  -5243385.08445  24287736.210    24287745.706
  22584720.877   -16034240.84949 -11956282.35246  22584720.433    22584725.929
  21698904.551   -17773701.38049 -13830199.52547  21698903.821    21698910.186
  20866150.694   -27544962.59649 -21211137.04247  20866150.754    20866155.384
  20427476.429   -28104347.46949 -21882114.87948  20427475.943    20427481.861
  22720515.824   -15804752.15049 -12304104.23546  22720515.385    22720522.305
  22570270.239   -17318554.28949 -13201594.66646  22570269.607    22570276.557
  23542502.974   -10733345.53149  -8113806.44645  23542502.635    23542510.626
  24585209.528    -7208584.85549  -5347016.44045  24585208.755    24585218.896
 03  6 11  3 30  0.0000000  0  9G31G16G 2G13G 1G27G20G 3G 8
  24270088.478    -6841126.38949  -5315651.18845  24270087.958    24270097.050
  22599739.735   -15955316.27849 -11894782.68546  22599739.316    22599744.784
  21707685.803   -17727555.60249 -13794241.77647  21707685.062    21707691.459
  20856871.376   -27593725.73949 -21249134.26347  20856871.418    20856876.040
  20428599.466   -28098445.92449 -21877516.26248  20428598.985    20428604.873
  22709968.727   -15860176.83949 -12347292.24346  22709968.307    22709975.234
  22589380.458   -17218129.69149 -13123341.74646  22589379.817    22589386.719
  23529996.241   -10799068.47349  -8165019.05345  23529995.913    23530003.769
  24569284.641    -7292270.15249  -5412225.62245  24569283.829    24569293.847
 03  6 11  3 30 30.0000000  0  9G31G16G 2G13G 1G27G20G 3G 8
  24252439.655    -6933870.98049  -5387919.49045  24252438.976    24252448.263
  22614824.733   -15876044.27349 -11833012.30946  22614824.273    22614829.760
  21716537.467   -17681039.63249 -13757995.56047  21716536.744    21716543.137
  20847644.344   -27642213.88449 -21286917.19647  20847644.396    20847649.023
  20429789.790   -28092190.67949 -21872642.03048  20429789.301    20429795.185
  22699447.038   -15915467.88349 -12390376.11646  22699446.640    22699453.633
  22608536.946   -17117461.85249 -13044899.29246  22608536.276    22608543.174
  23517540.656   -10864522.27849  -8216021.92045  23517540.316    23517548.292
  24553377.783    -7375860.12349  -5477360.51745  24553377.011    24553387.055
 03  6 11  3 31  0.0000000  0  9G31G16G 2G13G 1G27G20G 3G 8
  24234790.967    -7026614.06949  -5460186.60745  24234790.314    24234799.506
  22629975.606   -15796426.01049 -11770972.11846  22629975.144    22629980.583
  21725459.549   -17634153.69649 -13721461.06347  21725458.818    21725465.234
  20838470.283   -27690423.69649 -21324483.25047  20838470.347    20838474.941
  20431047.870   -28085579.37249 -21867490.34748  20431047.370    20431053.241
  22688951.120   -15970623.95549 -12433354.79746  22688950.736    22688957.688
  22627739.339   -17016552.46849 -12966268.62546  22627738.662    22627745.589
  23505137.200   -10929702.60349  -8266811.68445  23505136.833    23505144.736
  24537489.404    -7459353.21849  -5542419.93245  24537488.740    24537498.666
 03  6 11  3 31 30.0000000  0  9G31G16G 2G13G 1G27G20G 3G 8
  24217143.137    -7119353.25149  -5532450.62345  24217142.532    24217151.598
  22645191.728   -15716464.84049 -11708664.71746  22645191.300    22645196.716
  21734451.516   -17586900.56749 -13684640.44047  21734450.793    21734457.213
  20829349.384   -27738354.26249 -21361831.71147  20829349.451    20829354.032
  20432373.759   -28078611.76549 -21862061.02948  20432373.262    20432379.132
  22678480.756   -16025645.91549 -12476228.98246  22678480.375    22678487.312
  22646987.054   -16915405.11649 -12887452.51946  22646986.358    22646993.294
  23492786.222   -10994607.26849  -8317386.65445  23492785.873    23492793.717
  24521619.462    -7542749.90749  -5607404.21045  24521618.867    24521628.658
 03  6 11  3 32  0.0000000  0  9G31G16G 2G13G 1G27G20G 3G 8
  24199496.509    -7212086.17549  -5604709.76945  24199495.778    24199504.935
  22660472.528   -15636163.62249 -11646092.35446  22660472.082    22660477.517
  21743512.995   -17539282.22249 -13647535.23347  21743512.260    21743518.652
  20820281.835   -27786004.32049 -21398961.59647  20820281.909    20820286.480
  20433767.526   -28071287.31749 -21856353.65648  20433767.027    20433772.897
  22668035.704   -16080534.65449 -12518999.35546  22668035.316    22668042.227
  22666279.384   -16814023.29949 -12808453.71046  22666278.682    22666285.624
  23480488.124   -11059233.86249  -8367744.93545  23480487.777    23480495.539
  24505767.846    -7626050.32649  -5672313.48545  24505767.200    24505776.989
 03  6 11  3 32 30.0000000  0  9G31G16G 2G13G 1G27G20G 3G 8
  24181851.784    -7304809.05949  -5676961.18945  24181851.023    24181860.241
  22675817.755   -15555524.15149 -11583256.41246  22675817.309    22675822.678
  21752643.703   -17491299.92649 -13610146.42547  21752642.979    21752649.375
  20811268.209   -27833371.28849 -21435870.89847  20811268.279    20811272.832
  20435229.515   -28063604.53649 -21850367.05948  20435229.035    20435234.898
  22657616.133   -16135289.79449 -12561665.63646  22657615.709    22657622.609
  22685615.914   -16712409.34549 -12729274.01546  22685615.185    22685622.143
  23468243.763   -11123578.71149  -8417883.67445  23468243.353    23468251.029
  24489934.705    -7709253.77049  -5737147.20045  24489934.112    24489943.748
 03  6 11  3 33  0.0000000  0  9G31G16G 2G13G 1G27G20G 3G 8
  24164209.461    -7397519.32349  -5749202.76945  24164208.777    24164217.795
  22691226.704   -15474549.74649 -11520159.48646  22691226.211    22691231.554
  21761843.233   -17442956.04949 -13572475.86547  21761842.510    21761848.907
  20802308.606   -27880454.07849 -21472558.75947  20802308.662    20802313.219
  20436759.758   -28055562.91649 -21844100.84948  20436759.266    20436765.142
  22647221.826   -16189912.04049 -12604228.37146  22647221.395    22647228.303
  22704995.982   -16610566.29149 -12649915.80646  22704995.288    22705002.241
  23456053.357   -11187639.36449  -8467800.96545  23456052.993    23456060.600
  24474119.989    -7792360.39649  -5801905.46945  24474119.340    24474129.028
 03  6 11  3 33 30.0000000  0  9G31G16G 2G13G 1G27G20G 3G 8
  24146570.219    -7490213.29049  -5821431.65745  24146569.558    24146578.549
  22706698.970   -15393242.27449 -11456803.02946  22706698.480    22706703.835
  21771111.356   -17394251.72649 -13534524.44047  21771110.644    21771117.013
  20793403.523   -27927250.44349 -21509023.43647  20793403.586    20793408.122
  20438358.612   -28047160.85849 -21837553.78448  20438358.139    20438363.998
  22636852.855   -16244401.02449 -12646687.25646  22636852.443    22636859.352
  22724419.207   -16508496.85049 -12570381.18446  22724418.483    22724425.431
  23443917.750   -11251412.17049  -8517493.96245  23443917.384    23443924.959
  24458323.775    -7875369.54149  -5866587.79145  24458323.025    24458332.891
 03  6 11  3 34  0.0000000  0  9G31G16G 2G13G 1G27G20G 3G 8
  24128934.612    -7582888.15749  -5893645.66645  24128934.106    24128943.109
  22722234.124   -15311604.44549 -11393189.15646  22722233.625    22722239.000
  21780447.713   -17345188.82549 -13496293.60547  21780447.010    21780453.375
  20784553.349   -27973758.26349 -21545263.27347  20784553.433    20784557.951
  20440026.171   -28038397.73349 -21830725.36648  20440025.685    20440031.557
  22626509.189   -16298757.12349 -12689042.59146  22626508.774    22626515.676
  22743884.891   -16406204.05649 -12490672.53846  22743884.167    22743891.070
  23431837.326   -11314894.60049  -8566960.67745  23431836.937    23431844.602
  24442546.130    -7958280.98249  -5931193.98145  24442545.398    24442555.162
 03  6 11  3 34 30.0000000  0  9G31G16G 2G13G 1G27G20G 3G 8
  24111303.312    -7675540.83549  -5965842.40745  24111302.762    24111311.566
  22737831.666   -15229638.78949 -11329319.84246  22737831.207    22737836.559
  21789851.987   -17295769.06349 -13457784.69047  21789851.270    21789857.639
  20775758.405   -28019976.12149 -21581277.16547  20775758.462    20775762.956
  20441762.641   -28029272.39649 -21823614.70148  20441762.163    20441768.041
  22616190.707   -16352980.77849 -12731294.72046  22616190.297    22616197.194
  22763392.536   -16303690.72449 -12410792.04446  22763391.882    22763398.755
  23419812.711   -11378083.73149  -8616198.84345  23419812.332    23419820.089
  24426787.086    -8041094.58349  -5995723.92345  24426786.437    24426796.165
 03  6 11  3 35  0.0000000  0  9G31G16G 2G13G 1G27G20G 3G 8
  24093676.891    -7768168.20549  -6038019.46445  24093676.275    24093684.892
  22753491.115   -15147347.90349 -11265197.09046  22753490.656    22753495.965
  21799323.798   -17245994.44349 -13418999.26447  21799323.073    21799329.410
  20767018.882   -28065902.44149 -21617063.89247  20767018.942    20767023.428
  20443568.254   -28019783.95349 -21816221.10248  20443567.772    20443573.637
  22605897.456   -16407072.20949 -12773443.83646  22605897.013    22605903.880
  22782941.606   -16200959.86449 -12330742.04146  22782940.928    22782947.812
  23407844.461   -11440976.62049  -8665206.18145  23407844.067    23407851.798
  24411046.676    -8123810.17949  -6060177.50945  24411046.125    24411055.645
 03  6 11  3 35 30.0000000  0  9G31G16G 2G13G 1G27G20G 3G 8
  24076055.722    -7860767.50949  -6110174.62245  24076055.134    24076063.580
  22769211.913   -15064734.79649 -11200823.25446  22769211.483    22769216.679
  21808862.692   -17195867.12049 -13379939.00247  21808861.979    21808868.286
  20758335.148   -28111535.56549 -21652622.14547  20758335.204    20758339.725
  20445443.053   -28009931.79849 -21808544.08748  20445442.565    20445448.441
  22595629.139   -16461032.00349 -12815490.36646  22595628.752    22595635.610
  22802531.410   -16098014.64449 -12250525.00046  22802530.766    22802537.652
  23395933.158   -11503570.81549  -8713980.75245  23395932.763    23395940.413
  24395324.957    -8206427.95049  -6124554.85545  24395324.378    24395333.878
 03  6 11  3 36  0.0000000  0  9G31G16G 2G13G 1G27G20G 3G 8
  24058440.646    -7953334.75649  -6182304.79545  24058440.079    24058448.384
  22784993.781   -14981800.91649 -11136199.46946  22784993.348    22784998.507
  21818468.539   -17145387.89349 -13340604.52847  21818467.829    21818474.149
  20749707.717   -28156872.87049 -21687949.89447  20749707.786    20749712.299
  20447387.375   -27999714.14449 -21800582.26648  20447386.909    20447392.788
  22585386.032   -16514859.46449 -12857433.78246  22585385.693    22585392.564
  22822161.650   -15994857.34149 -12170142.70746  22822160.957    22822167.883
  23384079.370   -11565862.29749  -8762519.45045  23384079.029    23384086.646
  24379622.076    -8288946.84249  -6188855.17245  24379621.509    24379630.875
 03  6 11  3 36 30.0000000  0  9G31G16G 2G13G 1G27G20G 3G 8
  24040832.139    -8045867.92949  -6254408.44145  24040831.519    24040839.743
  22800835.808   -14898550.32349 -11071328.89646  22800835.420    22800840.563
  21828140.788   -17094559.86249 -13300998.26747  21828140.063    21828146.413
  20741136.751   -28201913.49049 -21723046.47147  20741136.820    20741141.315
  20449401.189   -27989131.24049 -21792335.84048  20449400.705    20449406.599
  22575167.893   -16568556.09849 -12899275.27146  22575167.517    22575174.353
  22841831.471   -15891491.82249 -12089598.17746  22841830.769    22841837.673
  23372283.450   -11627849.29249  -8810820.88645  23372283.115    23372290.736
  24363937.910    -8371367.64649  -6253079.04345  24363937.198    24363946.534
 03  6 11  3 37  0.0000000  0  9G31G16G 2G13G 1G27G20G 3G 8
  24023230.722    -8138363.21249  -6326482.54445  24023230.124    24023238.308
  22816737.858   -14814984.61949 -11006212.77646  22816737.431    22816742.612
  21837879.220   -17043383.97849 -13261120.94647  21837878.491    21837884.868
  20732622.738   -28246654.94449 -21757909.92547  20732622.804    20732627.284
  20451484.878   -27978181.28749 -21783803.39648  20451484.392    20451490.305
  22564974.741   -16622121.26649 -12941014.30346  22564974.363    22564981.152
  22861540.467   -15787920.33849 -12008893.14246  22861539.785    22861546.685
  23360546.249   -11689528.23449  -8858882.27545  23360545.941    23360553.485
  24348272.502    -8453689.39149  -6317225.72445  24348271.842    24348281.071
 03  6 11  3 37 30.0000000  0  9G31G16G 2G13G 1G27G20G 3G 8
  24005637.114    -8230817.49149  -6398524.72245  24005636.534    24005644.670
  22832699.411   -14731106.32749 -10940853.07846  22832698.951    22832704.139
  21847683.508   -16991861.96149 -13220973.91447  21847682.784    21847689.173
  20724165.923   -28291095.67449 -21792539.04747  20724165.988    20724170.475
  20453638.597   -27966863.37449 -21774984.23248  20453638.111    20453644.041
  22554806.508   -16675555.26949 -12982651.11846  22554806.163    22554812.937
  22881288.103   -15684145.86849 -11928029.95846  22881287.444    22881294.381
  23348868.260   -11750896.16549  -8906701.32845  23348867.905    23348875.437
  24332625.826    -8535911.98849  -6381295.14345  24332625.224    24332634.540
 03  6 11  3 38  0.0000000  0  9G31G16G 2G13G 1G27G20G 3G 8
  23988051.884    -8323227.79549  -6470532.64745  23988051.268    23988059.454
  22848719.924   -14646918.02749 -10875251.81646  22848719.430    22848724.654
  21857553.299   -16939995.92249 -13180558.81047  21857552.581    21857558.975
  20715766.680   -28335233.87949 -21826932.43547  20715766.753    20715771.261
  20455862.441   -27955176.83449 -21765877.82348  20455861.962    20455867.899
  22544663.224   -16728858.56849 -13024186.08746  22544662.835    22544669.596
  22901073.827   -15580171.37649 -11847010.91846  22901073.127    22901080.122
  23337249.896   -11811950.30449  -8954275.84245  23337249.539    23337257.143
  24316998.209    -8618035.19049  -6445287.11545  24316997.643    24317006.948
 03  6 11  3 38 30.0000000  0  9G31G16G 2G13G 1G27G20G 3G 8
  23970475.583    -8415591.14849  -6542503.99945  23970475.055    23970483.021
  22864798.810   -14562422.73849 -10809411.35346  22864798.379    22864803.611
  21867488.174   -16887787.72249 -13139877.09147  21867487.463    21867493.852
  20707425.291   -28379067.95149 -21861088.83648  20707425.378    20707429.891
  20458156.575   -27943120.87649 -21756483.55348  20458156.103    20458162.037
  22534544.738   -16782031.49849 -13065619.47546  22534544.330    22534551.051
  22920896.985   -15475999.94549 -11765838.39646  22920896.274    22920903.322
  23325691.784   -11872688.20249  -9001603.94145  23325691.451    23325698.979
  24301389.465    -8700059.13349  -6509201.72745  24301388.869    24301398.239
 03  6 11  3 39  0.0000000  0  9G31G16G 2G13G 1G27G20G 3G 8
  23952908.893    -8507903.83449  -6614435.88045  23952908.357    23952916.442
  22880935.749   -14477622.35449 -10743333.13446  22880935.348    22880940.586
  21877487.861   -16835238.99449 -13098930.02447  21877487.151    21877493.508
  20699142.208   -28422595.77049 -21895006.59448  20699142.292    20699146.811
  20460521.303   -27930694.17249 -21746800.39448  20460520.816    20460526.770
  22524451.005   -16835073.99849 -13106951.24147  22524450.607    22524457.340
  22940757.119   -15371634.11549 -11684514.40346  22940756.445    22940763.503
  23314194.434   -11933106.54449  -9048683.04545  23314194.139    23314201.625
  24285799.711    -8781983.26749  -6573038.57845  24285799.122    24285808.522
 03  6 11  3 39 30.0000000  0  9G31G16G 2G13G 1G27G20G 3G 8
  23935352.309    -8600163.09549  -6686326.10945  23935351.791    23935359.965
  22897130.245   -14392519.78249 -10677019.45946  22897129.817    22897135.042
  21887551.977   -16782351.82349 -13057719.23447  21887551.273    21887557.598
  20690917.632   -28465815.95149 -21928684.63848  20690917.726    20690922.256
  20462956.654   -27917896.09549 -21736827.84948  20462956.190    20462962.130
  22514382.002   -16887986.41349 -13148181.63047  22514381.618    22514388.352
  22960653.678   -15267077.20449 -11603041.49946  22960652.980    22960660.039
  23302758.440   -11993202.59749  -9095511.02845  23302758.117    23302765.596
  24270228.969    -8863807.37949  -6636797.47945  24270228.381    24270237.757
 03  6 11  3 40  0.0000000  0  9G31G16G 2G13G 1G27G20G 3G 8
  23917806.631    -8692365.65049  -6758172.20145  23917806.217    23917814.256
  22913381.840   -14307117.46249 -10610472.19646  22913381.406    22913386.602
  21897680.135   -16729128.03749 -13016246.14647  21897679.422    21897685.750
  20682752.107   -28508726.08649 -21962121.08748  20682752.189    20682756.711
  20465462.861   -27904725.87549 -21726565.32148  20465462.385    20465468.328
  22504337.824   -16940768.84849 -13189310.74047  22504337.402    22504344.141
  22980586.046   -15162332.00249 -11521421.89246  22980585.312    22980592.420
  23291384.379   -12052973.43549  -9142085.59045  23291384.031    23291391.456
  24254677.326    -8945531.31649  -6700478.32945  24254676.707    24254686.091
 03  6 11  3 40 30.0000000  0  9G31G16G 2G13G 1G27G20G 3G 8
  23900272.348    -8784508.57549  -6829971.83345  23900272.006    23900280.007
  22929689.880   -14221418.17349 -10543693.54046  22929689.426    22929694.611
  21907871.978   -16675569.55149 -12974512.26447  21907871.266    21907877.594
  20674645.854   -28551324.74849 -21995314.83348  20674645.921    20674650.444
  20468040.042   -27891182.71049 -21716012.18948  20468039.561    20468045.506
  22494318.220   -16993422.01449 -13230339.12147  22494317.788    22494324.544
  23000553.585   -15057401.59749 -11439657.95346  23000552.908    23000560.059
  23280072.651   -12112416.54649  -9188404.79645  23280072.292    23280079.595
  24239144.674    -9027155.16049  -6764081.17845  24239144.060    24239153.481
 03  6 11  3 41  0.0000000  0  9G31G16G 2G13G 1G27G20G 3G 8
  23882750.076    -8876588.35849  -6901722.26245  23882749.716    23882757.647
  22946053.994   -14135424.17949 -10476685.24046  22946053.548    22946058.740
  21918127.221   -16621677.85449 -12932518.72947  21918126.507    21918132.833
  20666599.179   -28593610.09349 -22028264.42348  20666599.261    20666603.785
  20470688.402   -27877265.29649 -21705167.42748  20470687.928    20470693.876
  22484323.204   -17045945.67049 -13271266.59347  22484322.817    22484329.565
  23020555.894   -14952288.59149 -11357751.74746  23020555.241    23020562.383
  23268823.875   -12171528.60049  -9234466.02145  23268823.579    23268830.785
  24223631.260    -9108678.29149  -6827605.56245  24223630.709    24223640.021
 03  6 11  3 41 30.0000000  0  9G31G16G 2G13G 1G27G20G 3G 8
  23865240.311    -8968602.36249  -6973421.39345  23865239.958    23865247.845
  22962473.501   -14049138.82949 -10409449.91246  22962473.081    22962478.303
  21928445.410   -16567455.52949 -12890267.56147  21928444.694    21928451.005
  20658612.400   -28635580.86549 -22060968.89748  20658612.450    20658616.986
  20473408.014   -27862973.54349 -21694030.97648  20473407.545    20473413.501
  22474352.715   -17098340.75349 -13312093.87047  22474352.319    22474359.043
  23040592.250   -14846996.58449 -11275706.03946  23040591.661    23040598.828
  23257638.478   -12230307.50749  -9280267.65545  23257638.172    23257645.378
  24208136.845    -9190101.47149  -6891052.05945  24208136.326    24208145.486
 03  6 11  3 42  0.0000000  0  9G31G16G 2G13G 1G27G20G 3G 8
  23847743.914    -9060546.74049  -7045066.24945  23847743.541    23847751.298
  22978948.159   -13962563.94849 -10341988.99046  22978947.706    22978953.086
  21938826.204   -16512903.81649 -12847759.73047  21938825.497    21938831.832
  20650685.922   -28677234.52349 -22093426.26148  20650685.988    20650690.527
  20476199.166   -27848305.84149 -21682601.57748  20476198.693    20476204.641
  22464406.804   -17150606.77349 -13352820.58247  22464406.395    22464413.082
  23060662.315   -14741527.73849 -11193522.54646  23060661.686    23060668.910
  23246517.237   -12288749.71449  -9325806.93246  23246516.911    23246524.117
  24192661.569    -9271423.59349  -6954419.79745  24192661.020    24192670.183
 03  6 11  3 42 30.0000000  0  9G31G16G 2G13G 1G27G20G 3G 8
  23830261.271    -9152418.75149  -7116654.71645  23830260.874    23830268.606
  22995477.337   -13875702.57749 -10274304.82146  22995476.892    22995482.318
  21949269.294   -16458024.92949 -12804996.95947  21949268.598    21949274.956
  20642820.018   -28718570.06549 -22125635.74848  20642820.093    20642824.600
  20479061.925   -27833261.92649 -21670879.02848  20479061.451    20479067.389
  22454485.264   -17202744.44749 -13393447.30147  22454484.893    22454491.535
  23080765.403   -14635885.54649 -11111203.97446  23080764.779    23080771.895
  23235460.461   -12346852.70649  -9371081.88246  23235460.176    23235467.311
  24177205.521    -9352644.90249  -7017708.99745  24177204.960    24177214.208
 03  6 11  3 43  0.0000000  0  9G31G16G 2G13G 1G27G20G 3G 8
  23812793.077    -9244214.68149  -7188183.88145  23812792.597    23812800.407
  23012060.632   -13788556.71049 -10206398.96646  23012060.182    23012065.704
  21959774.348   -16402820.39349 -12761980.43547  21959773.635    21959780.027
  20635015.162   -28759584.81549 -22157595.26548  20635015.216    20635019.715
  20481996.491   -27817840.55549 -21658862.35648  20481996.019    20482001.941
  22444588.256   -17254753.52149 -13433973.79647  22444587.835    22444594.491
  23100901.060   -14530072.20449 -11028752.04246  23100900.390    23100907.548
  23224468.969   -12404613.25449  -9416090.02346  23224468.615    23224475.809
  24161768.832    -9433764.76049  -7080919.14945  24161768.226    24161777.484
 03  6 11  3 43 30.0000000  0  9G31G16G 2G13G 1G27G20G 3G 8
  23795339.817    -9335931.86149  -7259651.67545  23795339.310    23795347.106
  23028697.493   -13701129.11949 -10138273.59146  23028697.074    23028702.643
  21970340.969   -16347292.39149 -12718711.85947  21970340.240    21970346.684
  20627271.632   -28800277.31549 -22189303.67548  20627271.697    20627276.177
  20485003.028   -27802041.12449 -21646551.09648  20485002.558    20485008.452
  22434715.624   -17306634.63949 -13474400.58347  22434715.180    22434721.818
  23121068.584   -14424091.49249 -10946169.69446  23121067.918    23121075.052
  23213543.002   -12462029.32149  -9460829.72246  23213542.628    23213549.794
  24146351.263    -9514783.47849  -7144050.47945  24146350.620    24146360.030
 03  6 11  3 44  0.0000000  0  9G31G16G 2G13G 1G27G20G 3G 8
  23777902.126    -9427567.13249  -7331055.64445  23777901.631    23777909.409
  23045387.451   -13613422.76349 -10069930.99546  23045387.030    23045392.588
  21980968.705   -16291442.94549 -12675192.80847  21980968.002    21980974.430
  20619589.650   -28840646.09749 -22220759.83848  20619589.725    20619594.198
  20488081.623   -27785862.97349 -21633944.72148  20488081.137    20488087.015
  22424867.205   -17358388.19749 -13514727.98547  22424866.768    22424873.385
  23141267.382   -14317946.23949 -10863459.13146  23141266.655    23141273.827
  23202683.198   -12519097.94249  -9505298.66446  23202682.817    23202689.929
  24130952.959    -9595700.95549  -7207102.91645  24130952.330    24130961.757
 03  6 11  3 44 30.0000000  0  9G31G16G 2G13G 1G27G20G 3G 8
  23760480.793    -9519116.78649  -7402392.90145  23760480.222    23760487.941
  23062130.101   -13525439.62949 -10001372.71446  23062129.660    23062135.206
  21991657.375   -16235273.57449 -12631424.46647  21991656.673    21991663.078
  20611969.773   -28880688.94049 -22251962.02748  20611969.860    20611974.289
  20491232.540   -27769304.82949 -21621042.25448  20491232.065    20491237.910
  22415043.107   -17410013.91449 -13554955.77647  22415042.679    22415049.308
  23161497.084   -14211638.65749 -10780622.09246  23161496.360    23161503.461
  23191890.050   -12575815.89749  -9549494.37546  23191889.699    23191896.793
  24115574.156    -9676516.31149  -7270075.77245  24115573.596    24115582.934
 03  6 11  3 45  0.0000000  0  9G31G16G 2G13G 1G27G20G 3G 8
  23743076.167    -9610578.24749  -7473661.42745  23743075.531    23743083.342
  23078924.858   -13437182.90149  -9932601.24846  23078924.423    23078929.926
  22002406.439   -16178786.77449 -12587408.77647  22002405.741    22002412.162
  20604412.154   -28920404.45049 -22282909.15248  20604412.222    20604416.655
  20494455.757   -27752366.60149 -21607843.61848  20494455.274    20494461.127
  22405243.252   -17461512.57449 -13595084.55547  22405242.813    22405249.400
  23181756.945   -14105172.53549 -10697661.50046  23181756.254    23181763.341
  23181164.102   -12632180.83049  -9593415.00346  23181163.774    23181170.865
  24100214.750    -9757230.06049  -7332969.47545  24100214.299    24100223.488
 03  6 11  3 45 30.0000000  0  9G31G16G 2G13G 1G27G20G 3G 8
  23725688.975    -9701948.44749  -7544858.86845  23725688.368    23725696.090
  23095771.196   -13348655.15549  -9863618.59546  23095770.701    23095776.184
  22013215.577   -16121984.49649 -12543147.25747  22013214.858    22013221.285
  20596917.101   -28959791.03449 -22313599.96548  20596917.171    20596921.591
  20497751.412   -27735047.74249 -21594348.38448  20497750.932    20497756.780
  22395467.417   -17512884.56649 -13635114.62747  22395466.981    22395473.568
  23202046.341   -13998551.09449 -10614579.88646  23202045.668    23202052.729
  23170505.725   -12688190.50049  -9637058.80746  23170505.422    23170512.492
  24084874.642    -9837842.56649  -7395784.27245  24084874.209    24084883.299
 03  6 11  3 46  0.0000000  0  9G31G16G 2G13G 1G27G20G 3G 8
  23708319.850    -9793223.40549  -7615982.08845  23708319.202    23708326.908
  23112668.722   -13259858.37749  -9794426.30846  23112668.242    23112673.643
  22024084.494   -16064867.94749 -12498640.85547  22024083.774    22024090.196
  20589485.118   -28998846.29249 -22344032.60248  20589485.196    20589489.596
  20501119.809   -27717346.65849 -21580555.31748  20501119.330    20501125.162
  22385715.762   -17564129.49549 -13675045.70047  22385715.362    22385721.903
  23222364.868   -13891776.41249 -10531378.86046  23222364.221    23222371.266
  23159915.629   -12743841.46449  -9680423.10646  23159915.335    23159922.332
  24069554.098    -9918352.51649  -7458519.16145  24069553.545    24069562.612
 03  6 11  3 46 30.0000000  0  9G31G16G 2G13G 1G27G20G 3G 8
  23690969.304    -9884400.18449  -7687028.81945  23690968.674    23690976.370
  23129616.869   -13170795.33749  -9725026.55646  23129616.400    23129621.792
  22035012.801   -16007439.37249 -12453891.31447  22035012.099    22035018.486
  20582116.439   -29037568.79049 -22374205.94648  20582116.507    20582120.895
  20504561.036   -27699262.85149 -21566464.02348  20504560.558    20504566.382
  22375988.224   -17615247.94149 -13714878.21547  22375987.816    22375994.302
  23242712.009   -13784851.72049 -10448060.96346  23242711.336    23242718.433
  23149394.364   -12799131.18549  -9723505.92246  23149393.988    23149400.885
  24054252.981    -9998760.19749  -7521174.36345  24054252.408    24054261.485
 03  6 11  3 47  0.0000000  0  9G31G16G 2G13G 1G27G20G 3G 8
  23673638.073    -9975475.35349  -7757996.38645  23673637.512    23673645.246
  23146615.283   -13081468.23049  -9655421.04146  23146614.802    23146620.185
  22046000.214   -15949700.28149 -12408899.81347  22045999.502    22046005.858
  20574811.516   -29075956.35049 -22404118.29748  20574811.604    20574815.969
  20508075.267   -27680795.27049 -21552073.68648  20508074.785    20508080.612
  22366284.798   -17666239.66349 -13754611.97447  22366284.374    22366290.849
  23263087.234   -13677779.43949 -10364628.05846  23263086.550    23263093.623
  23138942.301   -12854056.61349  -9766304.87046  23138941.954    23138948.847
  24038971.312   -10079065.26249  -7583749.61945  24038970.757    24038979.719
 03  6 11  3 47 30.0000000  0  9G31G16G 2G13G 1G27G20G 3G 8
  23656326.876   -10066445.89249  -7828882.44745  23656326.316    23656334.010
  23163663.382   -12991880.04449  -9585612.08146  23163662.890    23163668.246
  22057046.239   -15891653.07949 -12363668.22347  22057045.535    22057051.879
  20567570.619   -29114007.42749 -22433768.46348  20567570.707    20567575.045
  20511662.614   -27661943.50749 -21537383.98848  20511662.142    20511667.944
  22356605.337   -17717105.26549 -13794247.46447  22356604.915    22356611.405
  23283489.974   -13570562.77449 -10281082.62646  23283489.245    23283496.283
  23128560.072   -12908615.17349  -9808817.95246  23128559.742    23128566.599
  24023709.151   -10159267.64149  -7646244.84445  24023708.633    24023717.579
 03  6 11  3 48  0.0000000  0  9G31G16G 2G13G 1G27G20G 3G 8
  23639036.116   -10157308.50349  -7899684.39545  23639035.557    23639043.266
  23180760.634   -12902033.44749  -9515601.76846  23180760.183    23180765.545
  22068150.537   -15833299.56949 -12318197.95047  22068149.828    22068156.192
  20560394.080   -29151720.33549 -22463155.11948  20560394.145    20560398.480
  20515323.265   -27642706.88349 -21522394.39448  20515322.768    20515328.568
  22346949.825   -17767844.96249 -13833784.84547  22346949.429    22346955.904
  23303919.527   -13463204.92749 -10197427.20045  23303918.813    23303925.824
  23118248.171   -12962804.19549  -9851043.06046  23118247.811    23118254.622
  24008466.576   -10239367.40149  -7708660.11645  24008466.105    24008475.035
 03  6 11  3 48 30.0000000  0  9G31G16G 2G13G 1G27G20G 3G 8
  23621766.568   -10248059.85149  -7970399.67745  23621766.061    23621773.779
  23197906.633   -12811930.55249  -9445391.74146  23197906.224    23197911.598
  22079312.791   -15774641.57249 -12272490.41747  22079312.100    22079318.450
  20553282.254   -29189092.98249 -22492276.63548  20553282.339    20553286.647
  20519057.249   -27623084.45949 -21507104.17848  20519056.763    20519062.571
  22337318.266   -17818458.90249 -13873224.23847  22337317.877    22337324.356
  23324375.343   -13355708.41149 -10113663.71945  23324374.692    23324381.651
  23108007.081   -13016621.00749  -9892978.15946  23108006.740    23108013.524
  23993243.681   -10319364.06649  -7770995.05445  23993243.213    23993252.066
 03  6 11  3 49  0.0000000  0  9G31G16G 2G13G 1G27G20G 3G 8
  23604518.914   -10338696.96249  -8041025.92245  23604518.332    23604525.994
  23215100.822   -12721574.50949  -9374984.43746  23215100.420    23215105.825
  22090532.582   -15715681.24549 -12226547.30347  22090531.873    22090538.228
  20546235.460   -29226124.20449 -22521132.10448  20546235.527    20546239.840
  20522864.758   -27603075.78949 -21491512.99248  20522864.277    20522870.080
  22327710.558   -17868947.65749 -13912566.08247  22327710.178    22327716.588
  23344856.972   -13248076.79249 -10029794.96145  23344856.302    23344863.318
  23097837.301   -13070063.08049  -9934621.24346  23097836.980    23097843.758
  23978040.361   -10399257.87249  -7833249.83845  23978039.798    23978048.636
 03  6 11  3 49 30.0000000  0  9G31G16G 2G13G 1G27G20G 3G 8
  23587293.576   -10429216.59949  -8111560.64245  23587293.047    23587300.577
  23232342.674   -12630967.98849  -9304381.96546  23232342.264    23232347.723
  22101809.546   -15656420.63549 -12180370.19947  22101808.826    22101815.134
  20539253.947   -29262812.06349 -22549720.02348  20539254.030    20539258.335
  20526745.886   -27582680.11249 -21475620.24648  20526745.420    20526751.214
  22318126.613   -17919311.37549 -13951810.48347  22318126.213    22318132.629
  23365363.858   -13140312.72849  -9945822.99145  23365363.156    23365370.140
  23087739.299   -13123127.82649  -9975970.29846  23087739.021    23087745.664
  23962856.677   -10479048.67449  -7895424.36645  23962856.100    23962864.755
 03  6 11  3 50  0.0000000  0  9G31G16G 2G13G 1G27G20G 3G 8
  23570091.310   -10519614.80349  -8182000.73245  23570090.746    23570098.232
  23249631.901   -12540112.60849  -9233585.57746  23249631.525    23249636.900
  22113143.381   -15596860.80949 -12133959.94247  22113142.660    22113148.957
  20532338.274   -29299154.12849 -22578038.49348  20532338.348    20532342.661
  20530700.920   -27561896.22049 -21459424.99248  20530700.432    20530706.244
  22308566.545   -17969549.59949 -13990957.10947  22308566.181    22308572.588
  23385895.449   -13032418.54849  -9861749.64745  23385894.782    23385901.793
  23077713.756   -13175811.86949 -10017022.72046  23077713.481    23077720.096
  23947692.737   -10558735.60849  -7957517.96845  23947692.148    23947700.719
 03  6 11  3 50 30.0000000  0  9G31G16G 2G13G 1G27G20G 3G 8
  23552912.720   -10609888.83549  -8252344.05545  23552912.208    23552919.576
  23266967.859   -12449011.44049  -9162597.68046  23266967.434    23266972.843
  22124533.677   -15537004.30749 -12087318.51447  22124532.955    22124539.281
  20525488.598   -29335149.21149 -22606086.59048  20525488.690    20525492.973
  20534729.864   -27540723.97249 -21442927.12448  20534729.383    20534735.195
  22299030.215   -18019663.13849 -14030006.57647  22299029.833    22299036.249
  23406451.129   -12924397.64949  -9777577.57045  23406450.452    23406457.516
  23067761.053   -13228113.10249 -10057776.84446  23067760.792    23067767.411
  23932548.459   -10638318.95149  -8019530.84445  23932547.882    23932556.436
 03  6 11  3 51  0.0000000  0  9G31G16G 2G13G 1G27G20G 3G 8
  23535758.398   -10700035.28549  -8322587.94845  23535757.854    23535765.158
  23284350.083   -12357667.02049  -9091420.23446  23284349.660    23284355.064
  22135980.062   -15476853.04049 -12040447.39647  22135979.340    22135985.668
  20518705.339   -29370795.52049 -22633862.91648  20518705.416    20518709.688
  20538832.829   -27519162.56049 -21426126.01048  20538832.352    20538838.150
  22289517.607   -18069652.04349 -14068958.93247  22289517.218    22289523.608
  23427030.422   -12816252.94049  -9693309.01445  23427029.725    23427036.856
  23057881.683   -13280029.10949 -10098230.79546  23057881.401    23057888.035
  23917423.820   -10717798.66849  -8081462.99145  23917423.322    23917431.679
 03  6 11  3 51 30.0000000  0  9G31G16G 2G13G 1G27G20G 3G 8
  23518628.903   -10790051.01449  -8392729.98045  23518628.423    23518635.666
  23301778.155   -12266081.92649  -9020055.24546  23301777.745    23301783.154
  22147482.196   -15416408.85249 -11993348.02747  22147481.468    22147487.804
  20511988.783   -29406091.17249 -22661366.00248  20511988.866    20511993.122
  20543010.022   -27497211.31449 -21409021.13048  20543009.540    20543015.339
  22280028.680   -18119516.64849 -14107814.42747  22280028.287    22280034.656
  23447632.763   -12707987.33849  -9608946.24145  23447632.032    23447639.095
  23048076.290   -13331556.79749 -10138382.15546  23048075.969    23048082.601
  23902318.912   -10797174.54449  -8143314.20645  23902318.450    23902326.833
 03  6 11  3 52  0.0000000  0  9G31G16G 2G13G 1G27G20G 3G 8
  23501524.871   -10879932.87449  -8462767.67345  23501524.323    23501531.643
  23319251.506   -12174258.80649  -8948504.78146  23319251.059    23319256.541
  22159039.668   -15355673.86049 -11946022.06847  22159038.956    22159045.273
  20505339.245   -29441034.67149 -22688594.69248  20505339.349    20505343.577
  20547261.470   -27474869.65049 -21391612.03748  20547261.007    20547266.810
  22270563.284   -18169257.48449 -14146573.48347  22270562.920    22270569.238
  23468257.493   -12599603.99049  -9524491.72345  23468256.733    23468263.791
  23038345.159   -13382693.88649 -10178229.16546  23038344.806    23038351.414
  23887233.821   -10876446.63949  -8205084.55745  23887233.423    23887241.801
 03  6 11  3 52 30.0000000  0  9G31G16G 2G13G 1G27G20G 3G 8
  23484447.006   -10969677.26249  -8532698.28045  23484446.406    23484453.720
  23336769.681   -12082199.87349  -8876770.56946  23336769.291    23336774.798
  22170652.213   -15294649.58749 -11898470.68247  22170651.507    22170657.810
  20498757.146   -29475623.74349 -22715547.19248  20498757.246    20498761.452
  20551587.393   -27452136.72749 -21373898.05648  20551586.922    20551592.732
  22261121.497   -18218874.13049 -14185235.75747  22261121.137    22261127.481
  23488904.135   -12491105.26849  -9439947.31645  23488903.371    23488910.358
  23028688.838   -13433437.37549 -10217769.46846  23028688.551    23028695.200
  23872168.682   -10955614.56049  -8266773.73845  23872168.132    23872176.395
 03  6 11  3 53  0.0000000  0  9G31G16G 2G13G 1G27G20G 3G 8
  23467395.879   -11059281.17849  -8602519.42945  23467395.251    23467402.610
  23354332.269   -11989907.93749  -8804854.79646  23354331.883    23354337.424
  22182319.351   -15233338.51149 -11850695.81647  22182318.630    22182324.935
  20492242.731   -29509857.12249 -22742222.53148  20492242.826    20492247.032
  20555987.828   -27429012.24449 -21355878.96748  20555987.346    20555993.150
  22251703.193   -18268367.19149 -14223801.73047  22251702.837    22251709.206
  23509572.100   -12382494.41149  -9355315.53445  23509571.382    23509578.244
  23019107.977   -13483785.17749 -10257001.44546  23019107.703    23019114.209
  23857123.295   -11034678.29749  -8328381.75445  23857122.738    23857131.088
 03  6 11  3 53 30.0000000  0  9G31G16G 2G13G 1G27G20G 3G 8
  23450372.051   -11148741.08249  -8672228.37345  23450371.417    23450378.907
  23371938.699   -11897385.26349  -8732759.23946  23371938.313    23371943.882
  22194040.759   -15171742.13049 -11802698.63447  22194040.056    22194046.325
  20485796.401   -29543732.68349 -22768619.05548  20485796.488    20485800.683
  20560462.943   -27405495.19049 -21337553.97848  20560462.468    20560468.279
  22242308.473   -18317736.61749 -14262271.37847  22242308.100    22242314.471
  23530260.923   -12273774.08049  -9270598.46345  23530260.159    23530267.098
  23009603.000   -13533734.25749 -10295922.73746  23009602.684    23009609.187
  23842097.807   -11113637.57249  -8389908.35245  23842097.250    23842105.471
 03  6 11  3 54  0.0000000  0  9G31G16G 2G13G 1G27G20G 3G 8
  23433376.209   -11238054.14849  -8741822.88945  23433375.622    23433383.111
  23389588.448   -11804634.84349  -8660486.21945  23389588.045    23389593.710
  22205815.992   -15109862.87849 -11754481.03547  22205815.274    22205821.529
  20479418.441   -29577249.20749 -22794735.81448  20479418.534    20479422.709
  20565012.830   -27381585.47449 -21318923.01748  20565012.358    20565018.157
  22232937.125   -18366983.14449 -14300645.26047  22232936.778    22232943.108
  23550969.851   -12164947.98249  -9185798.99145  23550969.083    23550976.063
  23000174.207   -13583282.73449 -10334531.86846  23000173.921    23000180.359
  23827092.080   -11192492.53449  -8451353.67345  23827091.488    23827099.740
